Illinois River (Oklahoma), Gore (07198000)

StateOklahomaLatestHigh (3950 cfs)
RiverIllinois RiverRatingObservedEstimated
Updated2026-05-10 15:30 (24 minutes ago)Flood - The river is flooding. Obstacles can be treacherous or deadly. The river should be avoided at this stage for casual trips and definitely for the inexperienced. Trips should be attempted only with protective gear and equipment.Flood(none)7838
Discharge3950 cfs (median: 1840 cfs)High - The river is high and potentially dangerous, especially for the young and / or inexperienced. Normal stream obstacles are sometimes difficult to navigate. Extended distances can be attempted, but canoe travel may not be advisable.High(none)1752
Height11.27 feetGood - Conditions are ideal for a canoe or kayak. Boats typically will drag on fewer than one-quarter of riffles, if at all, and portages are unnecessary or rare. Normal float lengths can be attempted without a problem.Good(none)1208
TrendFalling (falling over 24 hours)Low - River is low but can still be floated. Some riffles are okay but most come with significant dragging and might need a portage. Float lengths should be reduced to accommodate low flow, dragging, and portages.Low(none)956
USGSExternal icon USGS Site (External icon Duck Duck Go Maps)Poor - River is too low to float comfortably. Most or all riffles will drag or must be portaged and some obstacles (such as slick shelf rock) cause undue problems. Avoid the river at this stage for casual paddling trips.Poor(none)101

Trending Data

Plot Image

Trips for Illinois River (Oklahoma), Gore (07198000)

DateStartEndDistanceConditionDischargeHeightFishingDetails

A total of 0 rows are displayed.

Condition Descriptions

Fishing Conditions

Fish Species

Notes

Classic Trip List

The classic River Trips application is still available for use. It is updated with the new system using a data retrofit. It is no longer maintained. The original River Trips application is no longer updated (as of 1 Dec 2016) but can be checked for errors or for the condition of the data before it was converted to the new system.

Gauge Data Table

ObservationHeightDischargeMaximum
Discharge
Minimum
Discharge
Mean
Discharge
P05P10P20P25P50
(Median)
P75P80P90P95
2026-05-10 15:30 11.27 3950 14700 (2022) 25 (1992) 3300 44 122 727 871 1840 3950 5460 10700 13400
2026-05-10 14:30 11.28 3960 14700 (2022) 25 (1992) 3300 44 122 727 871 1840 3950 5460 10700 13400
2026-05-10 13:30 11.27 3950 14700 (2022) 25 (1992) 3300 44 122 727 871 1840 3950 5460 10700 13400
2026-05-10 12:30 11.24 3910 14700 (2022) 25 (1992) 3300 44 122 727 871 1840 3950 5460 10700 13400
2026-05-10 11:30 11.13 3770 14700 (2022) 25 (1992) 3300 44 122 727 871 1840 3950 5460 10700 13400
2026-05-10 10:30 10.22 2710 14700 (2022) 25 (1992) 3300 44 122 727 871 1840 3950 5460 10700 13400
2026-05-10 09:30 9.98 2440 14700 (2022) 25 (1992) 3300 44 122 727 871 1840 3950 5460 10700 13400
2026-05-10 08:30 1 2460 14700 (2022) 25 (1992) 3300 44 122 727 871 1840 3950 5460 10700 13400
2026-05-10 07:30 1 2460 14700 (2022) 25 (1992) 3300 44 122 727 871 1840 3950 5460 10700 13400
2026-05-10 06:30 1 2460 14700 (2022) 25 (1992) 3300 44 122 727 871 1840 3950 5460 10700 13400
2026-05-10 05:30 9.99 2450 14700 (2022) 25 (1992) 3300 44 122 727 871 1840 3950 5460 10700 13400
2026-05-10 04:30 10.01 2470 14700 (2022) 25 (1992) 3300 44 122 727 871 1840 3950 5460 10700 13400
2026-05-10 03:30 10.04 2500 14700 (2022) 25 (1992) 3300 44 122 727 871 1840 3950 5460 10700 13400
2026-05-10 02:30 10.13 2600 14700 (2022) 25 (1992) 3300 44 122 727 871 1840 3950 5460 10700 13400
2026-05-10 01:30 10.23 2720 14700 (2022) 25 (1992) 3300 44 122 727 871 1840 3950 5460 10700 13400
2026-05-10 00:30 11.11 3750 14700 (2022) 25 (1992) 3300 44 122 727 871 1840 3950 5460 10700 13400
2026-05-09 23:30 11.31 4000 14700 (2022) 25 (1992) 3300 44 122 727 871 1840 3950 5460 10700 13400
2026-05-09 22:30 11.31 4000 14700 (2022) 14 (2001) 3100 46 79 165 552 1540 3730 5150 10300 13700
2026-05-09 21:30 11.32 4010 14700 (2022) 14 (2001) 3100 46 79 165 552 1540 3730 5150 10300 13700
2026-05-09 20:30 11.33 4020 14700 (2022) 14 (2001) 3100 46 79 165 552 1540 3730 5150 10300 13700
2026-05-09 19:30 11.33 4020 14700 (2022) 14 (2001) 3100 46 79 165 552 1540 3730 5150 10300 13700
2026-05-09 18:30 11.32 4010 14700 (2022) 14 (2001) 3100 46 79 165 552 1540 3730 5150 10300 13700
2026-05-09 17:30 11.31 4000 14700 (2022) 14 (2001) 3100 46 79 165 552 1540 3730 5150 10300 13700
2026-05-09 16:30 11.33 4020 14700 (2022) 14 (2001) 3100 46 79 165 552 1540 3730 5150 10300 13700
2026-05-09 15:30 11.33 4020 14700 (2022) 14 (2001) 3100 46 79 165 552 1540 3730 5150 10300 13700
2026-05-09 14:30 11.33 4020 14700 (2022) 14 (2001) 3100 46 79 165 552 1540 3730 5150 10300 13700
2026-05-09 13:30 11.33 4020 14700 (2022) 14 (2001) 3100 46 79 165 552 1540 3730 5150 10300 13700
2026-05-09 12:30 11.33 4020 14700 (2022) 14 (2001) 3100 46 79 165 552 1540 3730 5150 10300 13700
2026-05-09 11:30 11.32 4010 14700 (2022) 14 (2001) 3100 46 79 165 552 1540 3730 5150 10300 13700
2026-05-09 10:30 11.32 4010 14700 (2022) 14 (2001) 3100 46 79 165 552 1540 3730 5150 10300 13700
2026-05-09 09:30 11.32 4010 14700 (2022) 14 (2001) 3100 46 79 165 552 1540 3730 5150 10300 13700
2026-05-09 08:30 11.32 4010 14700 (2022) 14 (2001) 3100 46 79 165 552 1540 3730 5150 10300 13700
2026-05-09 07:30 11.33 4020 14700 (2022) 14 (2001) 3100 46 79 165 552 1540 3730 5150 10300 13700
2026-05-09 06:30 11.33 4020 14700 (2022) 14 (2001) 3100 46 79 165 552 1540 3730 5150 10300 13700
2026-05-09 05:30 11.33 4020 14700 (2022) 14 (2001) 3100 46 79 165 552 1540 3730 5150 10300 13700
2026-05-09 04:30 11.34 4040 14700 (2022) 14 (2001) 3100 46 79 165 552 1540 3730 5150 10300 13700
2026-05-09 03:30 11.35 4050 14700 (2022) 14 (2001) 3100 46 79 165 552 1540 3730 5150 10300 13700
2026-05-09 02:30 11.34 4040 14700 (2022) 14 (2001) 3100 46 79 165 552 1540 3730 5150 10300 13700
2026-05-09 01:30 11.35 4050 14700 (2022) 14 (2001) 3100 46 79 165 552 1540 3730 5150 10300 13700
2026-05-09 00:30 11.35 4050 14700 (2022) 14 (2001) 3100 46 79 165 552 1540 3730 5150 10300 13700
2026-05-08 23:30 11.35 4050 14700 (2022) 14 (2001) 3100 46 79 165 552 1540 3730 5150 10300 13700
2026-05-08 22:30 11.36 4060 14200 (2022) 38 (2005) 3250 56 82 245 392 1790 3920 5190 11000 13600
2026-05-08 21:30 11.36 4060 14200 (2022) 38 (2005) 3250 56 82 245 392 1790 3920 5190 11000 13600
2026-05-08 20:30 11.36 4060 14200 (2022) 38 (2005) 3250 56 82 245 392 1790 3920 5190 11000 13600
2026-05-08 19:30 11.36 4060 14200 (2022) 38 (2005) 3250 56 82 245 392 1790 3920 5190 11000 13600
2026-05-08 18:30 11.35 4050 14200 (2022) 38 (2005) 3250 56 82 245 392 1790 3920 5190 11000 13600
2026-05-08 17:30 11.35 4050 14200 (2022) 38 (2005) 3250 56 82 245 392 1790 3920 5190 11000 13600
2026-05-08 16:30 11.35 4050 14200 (2022) 38 (2005) 3250 56 82 245 392 1790 3920 5190 11000 13600
2026-05-08 15:30 11.35 4050 14200 (2022) 38 (2005) 3250 56 82 245 392 1790 3920 5190 11000 13600
2026-05-08 14:30 11.36 4060 14200 (2022) 38 (2005) 3250 56 82 245 392 1790 3920 5190 11000 13600
2026-05-08 13:30 11.36 4060 14200 (2022) 38 (2005) 3250 56 82 245 392 1790 3920 5190 11000 13600
2026-05-08 12:30 11.36 4060 14200 (2022) 38 (2005) 3250 56 82 245 392 1790 3920 5190 11000 13600
2026-05-08 11:30 11.34 4040 14200 (2022) 38 (2005) 3250 56 82 245 392 1790 3920 5190 11000 13600
2026-05-08 10:30 11.33 4020 14200 (2022) 38 (2005) 3250 56 82 245 392 1790 3920 5190 11000 13600
2026-05-08 09:30 11.33 4020 14200 (2022) 38 (2005) 3250 56 82 245 392 1790 3920 5190 11000 13600
2026-05-08 08:30 11.32 4010 14200 (2022) 38 (2005) 3250 56 82 245 392 1790 3920 5190 11000 13600
2026-05-08 07:30 11.33 4020 14200 (2022) 38 (2005) 3250 56 82 245 392 1790 3920 5190 11000 13600
2026-05-08 06:30 11.34 4040 14200 (2022) 38 (2005) 3250 56 82 245 392 1790 3920 5190 11000 13600
2026-05-08 05:30 11.34 4040 14200 (2022) 38 (2005) 3250 56 82 245 392 1790 3920 5190 11000 13600
2026-05-08 04:30 11.33 4020 14200 (2022) 38 (2005) 3250 56 82 245 392 1790 3920 5190 11000 13600
2026-05-08 03:30 11.32 4010 14200 (2022) 38 (2005) 3250 56 82 245 392 1790 3920 5190 11000 13600
2026-05-08 02:30 11.33 4020 14200 (2022) 38 (2005) 3250 56 82 245 392 1790 3920 5190 11000 13600
2026-05-08 01:30 11.32 4010 14200 (2022) 38 (2005) 3250 56 82 245 392 1790 3920 5190 11000 13600
2026-05-08 00:30 11.33 4020 14200 (2022) 38 (2005) 3250 56 82 245 392 1790 3920 5190 11000 13600
2026-05-07 23:30 11.34 4040 14200 (2022) 38 (2005) 3250 56 82 245 392 1790 3920 5190 11000 13600
2026-05-07 22:30 11.34 4040 15400 (1957) 42 (2005) 3410 56 74 275 453 1710 3970 5220 11400 13600
2026-05-07 21:30 11.33 4020 15400 (1957) 42 (2005) 3410 56 74 275 453 1710 3970 5220 11400 13600
2026-05-07 20:30 11.34 4040 15400 (1957) 42 (2005) 3410 56 74 275 453 1710 3970 5220 11400 13600
2026-05-07 19:30 11.35 4050 15400 (1957) 42 (2005) 3410 56 74 275 453 1710 3970 5220 11400 13600
2026-05-07 18:30 11.35 4050 15400 (1957) 42 (2005) 3410 56 74 275 453 1710 3970 5220 11400 13600
2026-05-07 17:30 11.34 4040 15400 (1957) 42 (2005) 3410 56 74 275 453 1710 3970 5220 11400 13600
2026-05-07 16:30 11.36 4060 15400 (1957) 42 (2005) 3410 56 74 275 453 1710 3970 5220 11400 13600
2026-05-07 15:30 11.38 4090 15400 (1957) 42 (2005) 3410 56 74 275 453 1710 3970 5220 11400 13600
2026-05-07 14:30 11.42 4140 15400 (1957) 42 (2005) 3410 56 74 275 453 1710 3970 5220 11400 13600
2026-05-07 13:30 11.43 4150 15400 (1957) 42 (2005) 3410 56 74 275 453 1710 3970 5220 11400 13600
2026-05-07 12:30 11.49 4230 15400 (1957) 42 (2005) 3410 56 74 275 453 1710 3970 5220 11400 13600
2026-05-07 11:30 11.73 4560 15400 (1957) 42 (2005) 3410 56 74 275 453 1710 3970 5220 11400 13600
2026-05-07 10:30 12.58 5830 15400 (1957) 42 (2005) 3410 56 74 275 453 1710 3970 5220 11400 13600
2026-05-07 09:30 12.70 6030 15400 (1957) 42 (2005) 3410 56 74 275 453 1710 3970 5220 11400 13600
2026-05-07 08:30 12.70 6030 15400 (1957) 42 (2005) 3410 56 74 275 453 1710 3970 5220 11400 13600
2026-05-07 07:30 12.70 6030 15400 (1957) 42 (2005) 3410 56 74 275 453 1710 3970 5220 11400 13600
2026-05-07 06:30 12.71 6040 15400 (1957) 42 (2005) 3410 56 74 275 453 1710 3970 5220 11400 13600
2026-05-07 05:30 12.71 6040 15400 (1957) 42 (2005) 3410 56 74 275 453 1710 3970 5220 11400 13600
2026-05-07 04:30 12.70 6030 15400 (1957) 42 (2005) 3410 56 74 275 453 1710 3970 5220 11400 13600
2026-05-07 03:30 12.71 6040 15400 (1957) 42 (2005) 3410 56 74 275 453 1710 3970 5220 11400 13600
2026-05-07 02:30 12.70 6030 15400 (1957) 42 (2005) 3410 56 74 275 453 1710 3970 5220 11400 13600
2026-05-07 01:30 12.70 6030 15400 (1957) 42 (2005) 3410 56 74 275 453 1710 3970 5220 11400 13600
2026-05-07 00:30 12.71 6040 15400 (1957) 42 (2005) 3410 56 74 275 453 1710 3970 5220 11400 13600
2026-05-06 23:30 12.71 6040 15400 (1957) 42 (2005) 3410 56 74 275 453 1710 3970 5220 11400 13600
2026-05-06 22:30 12.71 6040 15800 (1957) 53 (1999) 3530 66 115 455 791 1940 4400 5350 11100 13700
2026-05-06 21:30 12.71 6040 15800 (1957) 53 (1999) 3530 66 115 455 791 1940 4400 5350 11100 13700
2026-05-06 20:30 12.72 6060 15800 (1957) 53 (1999) 3530 66 115 455 791 1940 4400 5350 11100 13700
2026-05-06 19:30 12.71 6040 15800 (1957) 53 (1999) 3530 66 115 455 791 1940 4400 5350 11100 13700
2026-05-06 18:30 12.71 6040 15800 (1957) 53 (1999) 3530 66 115 455 791 1940 4400 5350 11100 13700
2026-05-06 17:30 12.70 6030 15800 (1957) 53 (1999) 3530 66 115 455 791 1940 4400 5350 11100 13700
2026-05-06 16:30 12.70 6030 15800 (1957) 53 (1999) 3530 66 115 455 791 1940 4400 5350 11100 13700
2026-05-06 15:30 12.71 6040 15800 (1957) 53 (1999) 3530 66 115 455 791 1940 4400 5350 11100 13700
2026-05-06 14:30 12.71 6040 15800 (1957) 53 (1999) 3530 66 115 455 791 1940 4400 5350 11100 13700
2026-05-06 13:30 12.71 6040 15800 (1957) 53 (1999) 3530 66 115 455 791 1940 4400 5350 11100 13700
2026-05-06 12:30 12.71 6040 15800 (1957) 53 (1999) 3530 66 115 455 791 1940 4400 5350 11100 13700
2026-05-06 11:30 12.72 6060 15800 (1957) 53 (1999) 3530 66 115 455 791 1940 4400 5350 11100 13700
2026-05-06 10:30 12.71 6040 15800 (1957) 53 (1999) 3530 66 115 455 791 1940 4400 5350 11100 13700
2026-05-06 09:30 12.72 6060 15800 (1957) 53 (1999) 3530 66 115 455 791 1940 4400 5350 11100 13700
2026-05-06 08:30 12.72 6060 15800 (1957) 53 (1999) 3530 66 115 455 791 1940 4400 5350 11100 13700
2026-05-06 07:30 12.72 6060 15800 (1957) 53 (1999) 3530 66 115 455 791 1940 4400 5350 11100 13700
2026-05-06 06:30 12.72 6060 15800 (1957) 53 (1999) 3530 66 115 455 791 1940 4400 5350 11100 13700
2026-05-06 05:30 12.72 6060 15800 (1957) 53 (1999) 3530 66 115 455 791 1940 4400 5350 11100 13700
2026-05-06 04:30 12.72 6060 15800 (1957) 53 (1999) 3530 66 115 455 791 1940 4400 5350 11100 13700
2026-05-06 03:30 12.71 6040 15800 (1957) 53 (1999) 3530 66 115 455 791 1940 4400 5350 11100 13700
2026-05-06 02:30 12.73 6070 15800 (1957) 53 (1999) 3530 66 115 455 791 1940 4400 5350 11100 13700
2026-05-06 01:30 12.73 6070 15800 (1957) 53 (1999) 3530 66 115 455 791 1940 4400 5350 11100 13700
2026-05-06 00:30 12.73 6070 15800 (1957) 53 (1999) 3530 66 115 455 791 1940 4400 5350 11100 13700
2026-05-05 23:30 12.73 6070 15800 (1957) 53 (1999) 3530 66 115 455 791 1940 4400 5350 11100 13700
2026-05-05 22:30 12.72 6060 14100 (2017) 17 (2001) 3470 70 113 327 590 2040 4250 5240 10800 12800
2026-05-05 21:30 12.72 6060 14100 (2017) 17 (2001) 3470 70 113 327 590 2040 4250 5240 10800 12800
2026-05-05 20:30 12.72 6060 14100 (2017) 17 (2001) 3470 70 113 327 590 2040 4250 5240 10800 12800
2026-05-05 19:30 12.73 6070 14100 (2017) 17 (2001) 3470 70 113 327 590 2040 4250 5240 10800 12800
2026-05-05 18:30 12.73 6070 14100 (2017) 17 (2001) 3470 70 113 327 590 2040 4250 5240 10800 12800
2026-05-05 17:30 12.72 6060 14100 (2017) 17 (2001) 3470 70 113 327 590 2040 4250 5240 10800 12800
2026-05-05 16:30 12.72 6060 14100 (2017) 17 (2001) 3470 70 113 327 590 2040 4250 5240 10800 12800
2026-05-05 15:30 12.73 6070 14100 (2017) 17 (2001) 3470 70 113 327 590 2040 4250 5240 10800 12800
2026-05-05 14:30 12.73 6070 14100 (2017) 17 (2001) 3470 70 113 327 590 2040 4250 5240 10800 12800
2026-05-05 13:30 12.72 6060 14100 (2017) 17 (2001) 3470 70 113 327 590 2040 4250 5240 10800 12800
2026-05-05 12:30 12.73 6070 14100 (2017) 17 (2001) 3470 70 113 327 590 2040 4250 5240 10800 12800
2026-05-05 11:30 12.73 6070 14100 (2017) 17 (2001) 3470 70 113 327 590 2040 4250 5240 10800 12800
2026-05-05 10:30 12.72 6060 14100 (2017) 17 (2001) 3470 70 113 327 590 2040 4250 5240 10800 12800
2026-05-05 09:30 12.72 6060 14100 (2017) 17 (2001) 3470 70 113 327 590 2040 4250 5240 10800 12800
2026-05-05 08:30 12.72 6060 14100 (2017) 17 (2001) 3470 70 113 327 590 2040 4250 5240 10800 12800
2026-05-05 07:30 12.70 6030 14100 (2017) 17 (2001) 3470 70 113 327 590 2040 4250 5240 10800 12800
2026-05-05 06:30 12.66 5960 14100 (2017) 17 (2001) 3470 70 113 327 590 2040 4250 5240 10800 12800
2026-05-05 05:30 12.54 5770 14100 (2017) 17 (2001) 3470 70 113 327 590 2040 4250 5240 10800 12800
2026-05-05 04:30 12.47 5660 14100 (2017) 17 (2001) 3470 70 113 327 590 2040 4250 5240 10800 12800
2026-05-05 03:30 12.47 5660 14100 (2017) 17 (2001) 3470 70 113 327 590 2040 4250 5240 10800 12800
2026-05-05 02:30 12.48 5680 14100 (2017) 17 (2001) 3470 70 113 327 590 2040 4250 5240 10800 12800
2026-05-05 01:30 12.50 5710 14100 (2017) 17 (2001) 3470 70 113 327 590 2040 4250 5240 10800 12800
2026-05-05 00:30 12.61 5880 14100 (2017) 17 (2001) 3470 70 113 327 590 2040 4250 5240 10800 12800
2026-05-04 23:30 12.68 5990 14100 (2017) 17 (2001) 3470 70 113 327 590 2040 4250 5240 10800 12800
2026-05-04 22:30 12.67 5980 13900 (2017) 46 (1997) 3180 55 67 525 747 2050 3970 4730 9980 11700
2026-05-04 21:30 12.67 5980 13900 (2017) 46 (1997) 3180 55 67 525 747 2050 3970 4730 9980 11700
2026-05-04 20:30 12.68 5990 13900 (2017) 46 (1997) 3180 55 67 525 747 2050 3970 4730 9980 11700
2026-05-04 19:30 12.68 5990 13900 (2017) 46 (1997) 3180 55 67 525 747 2050 3970 4730 9980 11700
2026-05-04 18:30 12.68 5990 13900 (2017) 46 (1997) 3180 55 67 525 747 2050 3970 4730 9980 11700
2026-05-04 17:30 12.68 5990 13900 (2017) 46 (1997) 3180 55 67 525 747 2050 3970 4730 9980 11700
2026-05-04 16:30 12.68 5990 13900 (2017) 46 (1997) 3180 55 67 525 747 2050 3970 4730 9980 11700
2026-05-04 15:30 12.67 5980 13900 (2017) 46 (1997) 3180 55 67 525 747 2050 3970 4730 9980 11700
2026-05-04 14:30 12.65 5950 13900 (2017) 46 (1997) 3180 55 67 525 747 2050 3970 4730 9980 11700
2026-05-04 13:30 12.60 5870 13900 (2017) 46 (1997) 3180 55 67 525 747 2050 3970 4730 9980 11700
2026-05-04 12:30 12.53 5750 13900 (2017) 46 (1997) 3180 55 67 525 747 2050 3970 4730 9980 11700
2026-05-04 11:30 12.20 5240 13900 (2017) 46 (1997) 3180 55 67 525 747 2050 3970 4730 9980 11700
2026-05-04 10:30 11.30 3990 13900 (2017) 46 (1997) 3180 55 67 525 747 2050 3970 4730 9980 11700
2026-05-04 09:30 11.30 3990 13900 (2017) 46 (1997) 3180 55 67 525 747 2050 3970 4730 9980 11700
2026-05-04 08:30 11.27 3950 13900 (2017) 46 (1997) 3180 55 67 525 747 2050 3970 4730 9980 11700
2026-05-04 07:30 11.25 3920 13900 (2017) 46 (1997) 3180 55 67 525 747 2050 3970 4730 9980 11700
2026-05-04 06:30 11.25 3920 13900 (2017) 46 (1997) 3180 55 67 525 747 2050 3970 4730 9980 11700
2026-05-04 05:30 11.09 3720 13900 (2017) 46 (1997) 3180 55 67 525 747 2050 3970 4730 9980 11700
2026-05-04 04:30 11.01 3630 13900 (2017) 46 (1997) 3180 55 67 525 747 2050 3970 4730 9980 11700
2026-05-04 03:30 11.01 3630 13900 (2017) 46 (1997) 3180 55 67 525 747 2050 3970 4730 9980 11700
2026-05-04 02:30 11.00 3610 13900 (2017) 46 (1997) 3180 55 67 525 747 2050 3970 4730 9980 11700
2026-05-04 01:30 11.03 3650 13900 (2017) 46 (1997) 3180 55 67 525 747 2050 3970 4730 9980 11700
2026-05-04 00:30 11.18 3830 13900 (2017) 46 (1997) 3180 55 67 525 747 2050 3970 4730 9980 11700
2026-05-03 23:30 11.23 3900 13900 (2017) 46 (1997) 3180 55 67 525 747 2050 3970 4730 9980 11700
2026-05-03 22:30 11.24 3910 13700 (2011) 24 (1992) 3030 46 58 227 477 2000 3710 4490 9480 11200
2026-05-03 21:30 11.23 3900 13700 (2011) 24 (1992) 3030 46 58 227 477 2000 3710 4490 9480 11200
2026-05-03 20:30 11.24 3910 13700 (2011) 24 (1992) 3030 46 58 227 477 2000 3710 4490 9480 11200
2026-05-03 19:30 11.24 3910 13700 (2011) 24 (1992) 3030 46 58 227 477 2000 3710 4490 9480 11200
2026-05-03 18:30 11.25 3920 13700 (2011) 24 (1992) 3030 46 58 227 477 2000 3710 4490 9480 11200
2026-05-03 17:30 11.23 3900 13700 (2011) 24 (1992) 3030 46 58 227 477 2000 3710 4490 9480 11200
2026-05-03 16:30 11.22 3890 13700 (2011) 24 (1992) 3030 46 58 227 477 2000 3710 4490 9480 11200
2026-05-03 15:30 11.05 3670 13700 (2011) 24 (1992) 3030 46 58 227 477 2000 3710 4490 9480 11200
2026-05-03 14:30 10.11 2580 13700 (2011) 24 (1992) 3030 46 58 227 477 2000 3710 4490 9480 11200
2026-05-03 13:30 10.99 3600 13700 (2011) 24 (1992) 3030 46 58 227 477 2000 3710 4490 9480 11200
2026-05-03 12:30 11.26 3940 13700 (2011) 24 (1992) 3030 46 58 227 477 2000 3710 4490 9480 11200
2026-05-03 11:30 11.25 3920 13700 (2011) 24 (1992) 3030 46 58 227 477 2000 3710 4490 9480 11200
2026-05-03 10:30 11.25 3920 13700 (2011) 24 (1992) 3030 46 58 227 477 2000 3710 4490 9480 11200
2026-05-03 09:30 11.25 3920 13700 (2011) 24 (1992) 3030 46 58 227 477 2000 3710 4490 9480 11200
2026-05-03 08:30 11.26 3940 13700 (2011) 24 (1992) 3030 46 58 227 477 2000 3710 4490 9480 11200
2026-05-03 07:30 11.24 3910 13700 (2011) 24 (1992) 3030 46 58 227 477 2000 3710 4490 9480 11200
2026-05-03 06:30 11.26 3940 13700 (2011) 24 (1992) 3030 46 58 227 477 2000 3710 4490 9480 11200
2026-05-03 05:30 11.27 3950 13700 (2011) 24 (1992) 3030 46 58 227 477 2000 3710 4490 9480 11200
2026-05-03 04:30 11.29 3970 13700 (2011) 24 (1992) 3030 46 58 227 477 2000 3710 4490 9480 11200
2026-05-03 03:30 11.29 3970 13700 (2011) 24 (1992) 3030 46 58 227 477 2000 3710 4490 9480 11200
2026-05-03 02:30 11.29 3970 13700 (2011) 24 (1992) 3030 46 58 227 477 2000 3710 4490 9480 11200
2026-05-03 01:30 11.28 3960 13700 (2011) 24 (1992) 3030 46 58 227 477 2000 3710 4490 9480 11200
2026-05-03 00:30 11.29 3970 13700 (2011) 24 (1992) 3030 46 58 227 477 2000 3710 4490 9480 11200
2026-05-02 23:30 11.29 3970 13700 (2011) 24 (1992) 3030 46 58 227 477 2000 3710 4490 9480 11200
2026-05-02 22:30 11.28 3960 14500 (2021) 25 (2014) 3070 46 55 456 677 2150 4090 4210 6980 11300
2026-05-02 21:30 11.28 3960 14500 (2021) 25 (2014) 3070 46 55 456 677 2150 4090 4210 6980 11300
2026-05-02 20:30 11.29 3970 14500 (2021) 25 (2014) 3070 46 55 456 677 2150 4090 4210 6980 11300
2026-05-02 19:30 11.29 3970 14500 (2021) 25 (2014) 3070 46 55 456 677 2150 4090 4210 6980 11300
2026-05-02 18:30 11.28 3960 14500 (2021) 25 (2014) 3070 46 55 456 677 2150 4090 4210 6980 11300
2026-05-02 17:30 11.28 3960 14500 (2021) 25 (2014) 3070 46 55 456 677 2150 4090 4210 6980 11300
2026-05-02 16:30 11.28 3960 14500 (2021) 25 (2014) 3070 46 55 456 677 2150 4090 4210 6980 11300
2026-05-02 15:30 11.29 3970 14500 (2021) 25 (2014) 3070 46 55 456 677 2150 4090 4210 6980 11300
2026-05-02 14:30 11.28 3960 14500 (2021) 25 (2014) 3070 46 55 456 677 2150 4090 4210 6980 11300
2026-05-02 13:30 11.27 3950 14500 (2021) 25 (2014) 3070 46 55 456 677 2150 4090 4210 6980 11300
2026-05-02 12:30 11.28 3960 14500 (2021) 25 (2014) 3070 46 55 456 677 2150 4090 4210 6980 11300
2026-05-02 11:30 11.27 3950 14500 (2021) 25 (2014) 3070 46 55 456 677 2150 4090 4210 6980 11300
2026-05-02 10:30 11.26 3940 14500 (2021) 25 (2014) 3070 46 55 456 677 2150 4090 4210 6980 11300
2026-05-02 09:30 11.26 3940 14500 (2021) 25 (2014) 3070 46 55 456 677 2150 4090 4210 6980 11300
2026-05-02 08:30 11.27 3950 14500 (2021) 25 (2014) 3070 46 55 456 677 2150 4090 4210 6980 11300
2026-05-02 07:30 11.26 3940 14500 (2021) 25 (2014) 3070 46 55 456 677 2150 4090 4210 6980 11300
2026-05-02 06:30 11.26 3940 14500 (2021) 25 (2014) 3070 46 55 456 677 2150 4090 4210 6980 11300
2026-05-02 04:30 11.26 3940 14500 (2021) 25 (2014) 3070 46 55 456 677 2150 4090 4210 6980 11300
2026-05-02 03:30 11.26 3940 14500 (2021) 25 (2014) 3070 46 55 456 677 2150 4090 4210 6980 11300
2026-05-02 02:30 11.25 3920 14500 (2021) 25 (2014) 3070 46 55 456 677 2150 4090 4210 6980 11300
2026-05-02 01:30 11.26 3940 14500 (2021) 25 (2014) 3070 46 55 456 677 2150 4090 4210 6980 11300
2026-05-02 00:30 11.27 3950 14500 (2021) 25 (2014) 3070 46 55 456 677 2150 4090 4210 6980 11300
2026-05-01 23:30 11.26 3940 14500 (2021) 25 (2014) 3070 46 55 456 677 2150 4090 4210 6980 11300
2026-05-01 22:30 11.26 3940 14600 (2021) 12 (2014) 2920 48 61 165 265 2140 3760 4410 7690 11600
2026-05-01 21:30 11.27 3950 14600 (2021) 12 (2014) 2920 48 61 165 265 2140 3760 4410 7690 11600
2026-05-01 20:30 11.27 3950 14600 (2021) 12 (2014) 2920 48 61 165 265 2140 3760 4410 7690 11600
2026-05-01 19:30 11.26 3940 14600 (2021) 12 (2014) 2920 48 61 165 265 2140 3760 4410 7690 11600
2026-05-01 18:30 11.26 3940 14600 (2021) 12 (2014) 2920 48 61 165 265 2140 3760 4410 7690 11600
2026-05-01 17:30 11.25 3920 14600 (2021) 12 (2014) 2920 48 61 165 265 2140 3760 4410 7690 11600
2026-05-01 16:30 11.25 3920 14600 (2021) 12 (2014) 2920 48 61 165 265 2140 3760 4410 7690 11600
2026-05-01 15:30 11.26 3940 14600 (2021) 12 (2014) 2920 48 61 165 265 2140 3760 4410 7690 11600
2026-05-01 14:30 11.25 3920 14600 (2021) 12 (2014) 2920 48 61 165 265 2140 3760 4410 7690 11600
2026-05-01 13:30 11.26 3940 14600 (2021) 12 (2014) 2920 48 61 165 265 2140 3760 4410 7690 11600
2026-05-01 12:30 11.25 3920 14600 (2021) 12 (2014) 2920 48 61 165 265 2140 3760 4410 7690 11600
2026-05-01 11:30 11.26 3940 14600 (2021) 12 (2014) 2920 48 61 165 265 2140 3760 4410 7690 11600
2026-05-01 10:30 11.26 3940 14600 (2021) 12 (2014) 2920 48 61 165 265 2140 3760 4410 7690 11600
2026-05-01 09:30 11.26 3940 14600 (2021) 12 (2014) 2920 48 61 165 265 2140 3760 4410 7690 11600
2026-05-01 08:30 11.26 3940 14600 (2021) 12 (2014) 2920 48 61 165 265 2140 3760 4410 7690 11600
2026-05-01 07:30 11.27 3950 14600 (2021) 12 (2014) 2920 48 61 165 265 2140 3760 4410 7690 11600
2026-05-01 06:30 11.26 3940 14600 (2021) 12 (2014) 2920 48 61 165 265 2140 3760 4410 7690 11600
2026-05-01 05:30 11.27 3950 14600 (2021) 12 (2014) 2920 48 61 165 265 2140 3760 4410 7690 11600
2026-05-01 04:30 11.25 3920 14600 (2021) 12 (2014) 2920 48 61 165 265 2140 3760 4410 7690 11600
2026-05-01 03:30 11.26 3940 14600 (2021) 12 (2014) 2920 48 61 165 265 2140 3760 4410 7690 11600
2026-05-01 02:30 11.26 3940 14600 (2021) 12 (2014) 2920 48 61 165 265 2140 3760 4410 7690 11600
2026-05-01 01:30 11.26 3940 14600 (2021) 12 (2014) 2920 48 61 165 265 2140 3760 4410 7690 11600
2026-05-01 00:30 11.27 3950 14600 (2021) 12 (2014) 2920 48 61 165 265 2140 3760 4410 7690 11600
2026-04-30 23:30 11.26 3940 14600 (2021) 12 (2014) 2920 48 61 165 265 2140 3760 4410 7690 11600
2026-04-30 22:30 11.26 3940 13800 (2011) 30 (2000) 3030 52 69 344 601 2240 3910 4490 7690 11200
2026-04-30 21:30 11.26 3940 13800 (2011) 30 (2000) 3030 52 69 344 601 2240 3910 4490 7690 11200
2026-04-30 20:30 11.26 3940 13800 (2011) 30 (2000) 3030 52 69 344 601 2240 3910 4490 7690 11200
2026-04-30 19:30 11.26 3940 13800 (2011) 30 (2000) 3030 52 69 344 601 2240 3910 4490 7690 11200
2026-04-30 18:30 11.26 3940 13800 (2011) 30 (2000) 3030 52 69 344 601 2240 3910 4490 7690 11200
2026-04-30 17:30 11.27 3950 13800 (2011) 30 (2000) 3030 52 69 344 601 2240 3910 4490 7690 11200
2026-04-30 16:30 11.27 3950 13800 (2011) 30 (2000) 3030 52 69 344 601 2240 3910 4490 7690 11200
2026-04-30 15:30 11.29 3970 13800 (2011) 30 (2000) 3030 52 69 344 601 2240 3910 4490 7690 11200
2026-04-30 14:30 11.28 3960 13800 (2011) 30 (2000) 3030 52 69 344 601 2240 3910 4490 7690 11200
2026-04-30 13:30 11.29 3970 13800 (2011) 30 (2000) 3030 52 69 344 601 2240 3910 4490 7690 11200
2026-04-30 12:30 11.29 3970 13800 (2011) 30 (2000) 3030 52 69 344 601 2240 3910 4490 7690 11200
2026-04-30 11:30 11.29 3970 13800 (2011) 30 (2000) 3030 52 69 344 601 2240 3910 4490 7690 11200
2026-04-30 10:30 11.28 3960 13800 (2011) 30 (2000) 3030 52 69 344 601 2240 3910 4490 7690 11200
2026-04-30 09:30 11.28 3960 13800 (2011) 30 (2000) 3030 52 69 344 601 2240 3910 4490 7690 11200
2026-04-30 08:30 11.28 3960 13800 (2011) 30 (2000) 3030 52 69 344 601 2240 3910 4490 7690 11200
2026-04-30 07:30 11.30 3990 13800 (2011) 30 (2000) 3030 52 69 344 601 2240 3910 4490 7690 11200
2026-04-30 06:30 11.30 3990 13800 (2011) 30 (2000) 3030 52 69 344 601 2240 3910 4490 7690 11200
2026-04-30 05:30 11.31 4000 13800 (2011) 30 (2000) 3030 52 69 344 601 2240 3910 4490 7690 11200
2026-04-30 04:30 11.31 4000 13800 (2011) 30 (2000) 3030 52 69 344 601 2240 3910 4490 7690 11200
2026-04-30 03:30 11.31 4000 13800 (2011) 30 (2000) 3030 52 69 344 601 2240 3910 4490 7690 11200
2026-04-30 02:30 11.32 4010 13800 (2011) 30 (2000) 3030 52 69 344 601 2240 3910 4490 7690 11200
2026-04-30 01:30 11.32 4010 13800 (2011) 30 (2000) 3030 52 69 344 601 2240 3910 4490 7690 11200
2026-04-30 00:30 11.32 4010 13800 (2011) 30 (2000) 3030 52 69 344 601 2240 3910 4490 7690 11200
2026-04-29 23:30 11.32 4010 13800 (2011) 30 (2000) 3030 52 69 344 601 2240 3910 4490 7690 11200
2026-04-29 22:30 11.32 4010 14000 (2011) 11 (2001) 2840 52 84 337 477 2030 4300 4850 7110 10500
2026-04-29 21:30 11.31 4000 14000 (2011) 11 (2001) 2840 52 84 337 477 2030 4300 4850 7110 10500
2026-04-29 20:30 11.32 4010 14000 (2011) 11 (2001) 2840 52 84 337 477 2030 4300 4850 7110 10500
2026-04-29 19:30 11.32 4010 14000 (2011) 11 (2001) 2840 52 84 337 477 2030 4300 4850 7110 10500
2026-04-29 18:30 11.30 3990 14000 (2011) 11 (2001) 2840 52 84 337 477 2030 4300 4850 7110 10500
2026-04-29 17:30 11.30 3990 14000 (2011) 11 (2001) 2840 52 84 337 477 2030 4300 4850 7110 10500
2026-04-29 16:30 11.30 3990 14000 (2011) 11 (2001) 2840 52 84 337 477 2030 4300 4850 7110 10500
2026-04-29 15:30 11.31 4000 14000 (2011) 11 (2001) 2840 52 84 337 477 2030 4300 4850 7110 10500
2026-04-29 14:30 11.31 4000 14000 (2011) 11 (2001) 2840 52 84 337 477 2030 4300 4850 7110 10500
2026-04-29 13:30 11.33 4020 14000 (2011) 11 (2001) 2840 52 84 337 477 2030 4300 4850 7110 10500
2026-04-29 12:30 11.31 4000 14000 (2011) 11 (2001) 2840 52 84 337 477 2030 4300 4850 7110 10500
2026-04-29 11:30 11.29 3970 14000 (2011) 11 (2001) 2840 52 84 337 477 2030 4300 4850 7110 10500
2026-04-29 10:30 11.27 3950 14000 (2011) 11 (2001) 2840 52 84 337 477 2030 4300 4850 7110 10500
2026-04-29 09:30 11.29 3970 14000 (2011) 11 (2001) 2840 52 84 337 477 2030 4300 4850 7110 10500
2026-04-29 08:30 11.27 3950 14000 (2011) 11 (2001) 2840 52 84 337 477 2030 4300 4850 7110 10500
2026-04-29 07:30 11.28 3960 14000 (2011) 11 (2001) 2840 52 84 337 477 2030 4300 4850 7110 10500
2026-04-29 06:30 11.29 3970 14000 (2011) 11 (2001) 2840 52 84 337 477 2030 4300 4850 7110 10500
2026-04-29 05:30 11.28 3960 14000 (2011) 11 (2001) 2840 52 84 337 477 2030 4300 4850 7110 10500
2026-04-29 04:30 11.28 3960 14000 (2011) 11 (2001) 2840 52 84 337 477 2030 4300 4850 7110 10500
2026-04-29 03:30 11.24 3910 14000 (2011) 11 (2001) 2840 52 84 337 477 2030 4300 4850 7110 10500
2026-04-29 02:30 11.13 3770 14000 (2011) 11 (2001) 2840 52 84 337 477 2030 4300 4850 7110 10500
2026-04-29 01:30 10.23 2720 14000 (2011) 11 (2001) 2840 52 84 337 477 2030 4300 4850 7110 10500
2026-04-29 00:30 10.02 2480 14000 (2011) 11 (2001) 2840 52 84 337 477 2030 4300 4850 7110 10500
2026-04-28 23:30 10.02 2480 14000 (2011) 11 (2001) 2840 52 84 337 477 2030 4300 4850 7110 10500
2026-04-28 22:30 10.02 2480 13700 (2011) 19 (2001) 2880 49 85 296 533 2090 4100 4820 7200 10500
2026-04-28 21:30 10.05 2520 13700 (2011) 19 (2001) 2880 49 85 296 533 2090 4100 4820 7200 10500
2026-04-28 20:30 10.24 2730 13700 (2011) 19 (2001) 2880 49 85 296 533 2090 4100 4820 7200 10500
2026-04-28 19:30 11.15 3800 13700 (2011) 19 (2001) 2880 49 85 296 533 2090 4100 4820 7200 10500
2026-04-28 18:30 11.29 3970 13700 (2011) 19 (2001) 2880 49 85 296 533 2090 4100 4820 7200 10500
2026-04-28 17:30 11.29 3970 13700 (2011) 19 (2001) 2880 49 85 296 533 2090 4100 4820 7200 10500
2026-04-28 16:30 11.29 3970 13700 (2011) 19 (2001) 2880 49 85 296 533 2090 4100 4820 7200 10500
2026-04-28 15:30 11.29 3970 13700 (2011) 19 (2001) 2880 49 85 296 533 2090 4100 4820 7200 10500
2026-04-28 14:30 11.29 3970 13700 (2011) 19 (2001) 2880 49 85 296 533 2090 4100 4820 7200 10500
2026-04-28 13:30 11.28 3960 13700 (2011) 19 (2001) 2880 49 85 296 533 2090 4100 4820 7200 10500
2026-04-28 12:30 11.28 3960 13700 (2011) 19 (2001) 2880 49 85 296 533 2090 4100 4820 7200 10500
2026-04-28 11:30 11.26 3940 13700 (2011) 19 (2001) 2880 49 85 296 533 2090 4100 4820 7200 10500
2026-04-28 10:30 11.27 3950 13700 (2011) 19 (2001) 2880 49 85 296 533 2090 4100 4820 7200 10500
2026-04-28 09:30 11.26 3940 13700 (2011) 19 (2001) 2880 49 85 296 533 2090 4100 4820 7200 10500
2026-04-28 08:30 11.20 3860 13700 (2011) 19 (2001) 2880 49 85 296 533 2090 4100 4820 7200 10500
2026-04-28 07:30 10.90 3490 13700 (2011) 19 (2001) 2880 49 85 296 533 2090 4100 4820 7200 10500
2026-04-28 06:30 6.98 177 13700 (2011) 19 (2001) 2880 49 85 296 533 2090 4100 4820 7200 10500
2026-04-28 05:30 6.84 137 13700 (2011) 19 (2001) 2880 49 85 296 533 2090 4100 4820 7200 10500
2026-04-28 04:30 6.93 162 13700 (2011) 19 (2001) 2880 49 85 296 533 2090 4100 4820 7200 10500
2026-04-28 02:30 7.43 352 13700 (2011) 19 (2001) 2880 49 85 296 533 2090 4100 4820 7200 10500
2026-04-28 01:30 8.51 1050 13700 (2011) 19 (2001) 2880 49 85 296 533 2090 4100 4820 7200 10500
2026-04-28 00:30 10.75 3310 13700 (2011) 19 (2001) 2880 49 85 296 533 2090 4100 4820 7200 10500
2026-04-27 23:30 11.30 3990 13700 (2011) 19 (2001) 2880 49 85 296 533 2090 4100 4820 7200 10500
2026-04-27 22:30 11.28 3960 13900 (2011) 34 (2006) 2810 48 78 251 469 2050 4060 4510 7300 10600
2026-04-27 21:30 11.27 3950 13900 (2011) 34 (2006) 2810 48 78 251 469 2050 4060 4510 7300 10600
2026-04-27 20:30 11.28 3960 13900 (2011) 34 (2006) 2810 48 78 251 469 2050 4060 4510 7300 10600
2026-04-27 19:30 11.28 3960 13900 (2011) 34 (2006) 2810 48 78 251 469 2050 4060 4510 7300 10600
2026-04-27 18:30 11.27 3950 13900 (2011) 34 (2006) 2810 48 78 251 469 2050 4060 4510 7300 10600
2026-04-27 17:30 11.23 3900 13900 (2011) 34 (2006) 2810 48 78 251 469 2050 4060 4510 7300 10600
2026-04-27 16:30 11.09 3720 13900 (2011) 34 (2006) 2810 48 78 251 469 2050 4060 4510 7300 10600
2026-04-27 15:30 9.83 2280 13900 (2011) 34 (2006) 2810 48 78 251 469 2050 4060 4510 7300 10600
2026-04-27 14:30 6.86 142 13900 (2011) 34 (2006) 2810 48 78 251 469 2050 4060 4510 7300 10600
2026-04-27 13:30 6.91 156 13900 (2011) 34 (2006) 2810 48 78 251 469 2050 4060 4510 7300 10600
2026-04-27 12:30 7.06 202 13900 (2011) 34 (2006) 2810 48 78 251 469 2050 4060 4510 7300 10600
2026-04-27 11:30 7.41 342 13900 (2011) 34 (2006) 2810 48 78 251 469 2050 4060 4510 7300 10600
2026-04-27 10:30 8.47 1020 13900 (2011) 34 (2006) 2810 48 78 251 469 2050 4060 4510 7300 10600
2026-04-27 09:30 10.71 3270 13900 (2011) 34 (2006) 2810 48 78 251 469 2050 4060 4510 7300 10600
2026-04-27 08:30 11.19 3850 13900 (2011) 34 (2006) 2810 48 78 251 469 2050 4060 4510 7300 10600
2026-04-27 07:30 10.88 3470 13900 (2011) 34 (2006) 2810 48 78 251 469 2050 4060 4510 7300 10600
2026-04-27 06:30 6.74 113 13900 (2011) 34 (2006) 2810 48 78 251 469 2050 4060 4510 7300 10600
2026-04-27 05:30 6.68 100 13900 (2011) 34 (2006) 2810 48 78 251 469 2050 4060 4510 7300 10600
2026-04-27 04:30 6.72 108 13900 (2011) 34 (2006) 2810 48 78 251 469 2050 4060 4510 7300 10600
2026-04-27 03:30 6.79 125 13900 (2011) 34 (2006) 2810 48 78 251 469 2050 4060 4510 7300 10600
2026-04-27 02:30 6.90 153 13900 (2011) 34 (2006) 2810 48 78 251 469 2050 4060 4510 7300 10600
2026-04-27 01:30 7.08 209 13900 (2011) 34 (2006) 2810 48 78 251 469 2050 4060 4510 7300 10600
2026-04-27 00:30 7.50 386 13900 (2011) 34 (2006) 2810 48 78 251 469 2050 4060 4510 7300 10600
2026-04-26 23:30 8.76 1260 13900 (2011) 34 (2006) 2810 48 78 251 469 2050 4060 4510 7300 10600
2026-04-26 22:30 11.08 3710 11900 (2025) 29 (2012) 2680 53 81 354 551 1720 3930 4200 7290 10100
2026-04-26 21:30 11.31 4000 11900 (2025) 29 (2012) 2680 53 81 354 551 1720 3930 4200 7290 10100
2026-04-26 20:30 11.32 4010 11900 (2025) 29 (2012) 2680 53 81 354 551 1720 3930 4200 7290 10100
2026-04-26 19:30 11.33 4020 11900 (2025) 29 (2012) 2680 53 81 354 551 1720 3930 4200 7290 10100
2026-04-26 18:30 11.33 4020 11900 (2025) 29 (2012) 2680 53 81 354 551 1720 3930 4200 7290 10100
2026-04-26 17:30 11.31 4000 11900 (2025) 29 (2012) 2680 53 81 354 551 1720 3930 4200 7290 10100
2026-04-26 16:30 11.32 4010 11900 (2025) 29 (2012) 2680 53 81 354 551 1720 3930 4200 7290 10100
2026-04-26 15:30 11.32 4010 11900 (2025) 29 (2012) 2680 53 81 354 551 1720 3930 4200 7290 10100
2026-04-26 14:30 11.32 4010 11900 (2025) 29 (2012) 2680 53 81 354 551 1720 3930 4200 7290 10100
2026-04-26 13:30 11.31 4000 11900 (2025) 29 (2012) 2680 53 81 354 551 1720 3930 4200 7290 10100
2026-04-26 12:30 11.31 4000 11900 (2025) 29 (2012) 2680 53 81 354 551 1720 3930 4200 7290 10100
2026-04-26 11:30 11.30 3990 11900 (2025) 29 (2012) 2680 53 81 354 551 1720 3930 4200 7290 10100
2026-04-26 10:30 11.30 3990 11900 (2025) 29 (2012) 2680 53 81 354 551 1720 3930 4200 7290 10100
2026-04-26 09:30 11.28 3960 11900 (2025) 29 (2012) 2680 53 81 354 551 1720 3930 4200 7290 10100
2026-04-26 08:30 11.22 3890 11900 (2025) 29 (2012) 2680 53 81 354 551 1720 3930 4200 7290 10100
2026-04-26 07:30 10.84 3420 11900 (2025) 29 (2012) 2680 53 81 354 551 1720 3930 4200 7290 10100
2026-04-26 06:30 6.76 117 11900 (2025) 29 (2012) 2680 53 81 354 551 1720 3930 4200 7290 10100
2026-04-26 05:30 6.78 122 11900 (2025) 29 (2012) 2680 53 81 354 551 1720 3930 4200 7290 10100
2026-04-26 04:30 6.83 135 11900 (2025) 29 (2012) 2680 53 81 354 551 1720 3930 4200 7290 10100
2026-04-26 03:30 6.91 156 11900 (2025) 29 (2012) 2680 53 81 354 551 1720 3930 4200 7290 10100
2026-04-26 02:30 7.00 183 11900 (2025) 29 (2012) 2680 53 81 354 551 1720 3930 4200 7290 10100
2026-04-26 01:30 7.14 230 11900 (2025) 29 (2012) 2680 53 81 354 551 1720 3930 4200 7290 10100
2026-04-26 00:30 7.44 356 11900 (2025) 29 (2012) 2680 53 81 354 551 1720 3930 4200 7290 10100
2026-04-25 23:30 8.52 1060 11900 (2025) 29 (2012) 2680 53 81 354 551 1720 3930 4200 7290 10100
2026-04-25 22:30 10.80 3370 11900 (2025) 30 (2017) 2750 48 62 476 630 1990 3900 4230 6530 10300
2026-04-25 21:30 11.34 4040 11900 (2025) 30 (2017) 2750 48 62 476 630 1990 3900 4230 6530 10300
2026-04-25 20:30 11.34 4040 11900 (2025) 30 (2017) 2750 48 62 476 630 1990 3900 4230 6530 10300
2026-04-25 19:30 11.36 4060 11900 (2025) 30 (2017) 2750 48 62 476 630 1990 3900 4230 6530 10300
2026-04-25 18:30 11.33 4020 11900 (2025) 30 (2017) 2750 48 62 476 630 1990 3900 4230 6530 10300
2026-04-25 17:30 11.33 4020 11900 (2025) 30 (2017) 2750 48 62 476 630 1990 3900 4230 6530 10300
2026-04-25 16:30 11.32 4010 11900 (2025) 30 (2017) 2750 48 62 476 630 1990 3900 4230 6530 10300
2026-04-25 15:30 11.33 4020 11900 (2025) 30 (2017) 2750 48 62 476 630 1990 3900 4230 6530 10300
2026-04-25 14:30 11.33 4020 11900 (2025) 30 (2017) 2750 48 62 476 630 1990 3900 4230 6530 10300
2026-04-25 13:30 11.33 4020 11900 (2025) 30 (2017) 2750 48 62 476 630 1990 3900 4230 6530 10300
2026-04-25 12:30 11.32 4010 11900 (2025) 30 (2017) 2750 48 62 476 630 1990 3900 4230 6530 10300
2026-04-25 11:30 11.31 4000 11900 (2025) 30 (2017) 2750 48 62 476 630 1990 3900 4230 6530 10300
2026-04-25 10:30 11.30 3990 11900 (2025) 30 (2017) 2750 48 62 476 630 1990 3900 4230 6530 10300
2026-04-25 09:30 11.29 3970 11900 (2025) 30 (2017) 2750 48 62 476 630 1990 3900 4230 6530 10300
2026-04-25 08:30 11.24 3910 11900 (2025) 30 (2017) 2750 48 62 476 630 1990 3900 4230 6530 10300
2026-04-25 07:30 10.96 3560 11900 (2025) 30 (2017) 2750 48 62 476 630 1990 3900 4230 6530 10300
2026-04-25 06:30 6.93 162 11900 (2025) 30 (2017) 2750 48 62 476 630 1990 3900 4230 6530 10300
2026-04-25 05:30 6.78 122 11900 (2025) 30 (2017) 2750 48 62 476 630 1990 3900 4230 6530 10300
2026-04-25 04:30 6.83 135 11900 (2025) 30 (2017) 2750 48 62 476 630 1990 3900 4230 6530 10300
2026-04-25 03:30 6.90 153 11900 (2025) 30 (2017) 2750 48 62 476 630 1990 3900 4230 6530 10300
2026-04-25 01:30 7.14 230 11900 (2025) 30 (2017) 2750 48 62 476 630 1990 3900 4230 6530 10300
2026-04-25 00:30 7.47 371 11900 (2025) 30 (2017) 2750 48 62 476 630 1990 3900 4230 6530 10300
2026-04-24 23:30 8.53 1070 11900 (2025) 30 (2017) 2750 48 62 476 630 1990 3900 4230 6530 10300
2026-04-24 22:30 10.80 3370 13400 (2025) 22 (2001) 2720 41 62 134 324 1910 3960 4420 6350 9260
2026-04-24 21:30 11.37 4080 13400 (2025) 22 (2001) 2720 41 62 134 324 1910 3960 4420 6350 9260
2026-04-24 20:30 11.38 4090 13400 (2025) 22 (2001) 2720 41 62 134 324 1910 3960 4420 6350 9260
2026-04-24 19:30 11.40 4110 13400 (2025) 22 (2001) 2720 41 62 134 324 1910 3960 4420 6350 9260
2026-04-24 18:30 11.40 4110 13400 (2025) 22 (2001) 2720 41 62 134 324 1910 3960 4420 6350 9260
2026-04-24 17:30 11.40 4110 13400 (2025) 22 (2001) 2720 41 62 134 324 1910 3960 4420 6350 9260
2026-04-24 16:30 11.41 4130 13400 (2025) 22 (2001) 2720 41 62 134 324 1910 3960 4420 6350 9260
2026-04-24 15:30 11.43 4150 13400 (2025) 22 (2001) 2720 41 62 134 324 1910 3960 4420 6350 9260
2026-04-24 14:30 11.45 4180 13400 (2025) 22 (2001) 2720 41 62 134 324 1910 3960 4420 6350 9260
2026-04-24 13:30 11.46 4190 13400 (2025) 22 (2001) 2720 41 62 134 324 1910 3960 4420 6350 9260
2026-04-24 12:30 11.45 4180 13400 (2025) 22 (2001) 2720 41 62 134 324 1910 3960 4420 6350 9260
2026-04-24 11:30 11.43 4150 13400 (2025) 22 (2001) 2720 41 62 134 324 1910 3960 4420 6350 9260
2026-04-24 10:30 11.38 4090 13400 (2025) 22 (2001) 2720 41 62 134 324 1910 3960 4420 6350 9260
2026-04-24 09:30 11.34 4040 13400 (2025) 22 (2001) 2720 41 62 134 324 1910 3960 4420 6350 9260
2026-04-24 08:30 11.29 3970 13400 (2025) 22 (2001) 2720 41 62 134 324 1910 3960 4420 6350 9260
2026-04-24 07:30 11.01 3630 13400 (2025) 22 (2001) 2720 41 62 134 324 1910 3960 4420 6350 9260
2026-04-24 06:30 6.83 135 13400 (2025) 22 (2001) 2720 41 62 134 324 1910 3960 4420 6350 9260
2026-04-24 05:30 6.65 94 13400 (2025) 22 (2001) 2720 41 62 134 324 1910 3960 4420 6350 9260
2026-04-24 04:30 6.60 84 13400 (2025) 22 (2001) 2720 41 62 134 324 1910 3960 4420 6350 9260
2026-04-24 03:30 6.59 82 13400 (2025) 22 (2001) 2720 41 62 134 324 1910 3960 4420 6350 9260
2026-04-24 02:30 6.67 98 13400 (2025) 22 (2001) 2720 41 62 134 324 1910 3960 4420 6350 9260
2026-04-24 01:30 6.79 125 13400 (2025) 22 (2001) 2720 41 62 134 324 1910 3960 4420 6350 9260
2026-04-24 00:30 6.97 174 13400 (2025) 22 (2001) 2720 41 62 134 324 1910 3960 4420 6350 9260
2026-04-23 23:30 7.37 324 13400 (2025) 22 (2001) 2720 41 62 134 324 1910 3960 4420 6350 9260
2026-04-23 22:30 8.48 1030 14200 (2025) 31 (2006) 2610 59 72 446 607 1930 4060 4290 5220 8220
2026-04-23 21:30 10.78 3350 14200 (2025) 31 (2006) 2610 59 72 446 607 1930 4060 4290 5220 8220
2026-04-23 20:30 11.36 4060 14200 (2025) 31 (2006) 2610 59 72 446 607 1930 4060 4290 5220 8220
2026-04-23 19:30 11.36 4060 14200 (2025) 31 (2006) 2610 59 72 446 607 1930 4060 4290 5220 8220
2026-04-23 18:30 11.36 4060 14200 (2025) 31 (2006) 2610 59 72 446 607 1930 4060 4290 5220 8220
2026-04-23 17:30 11.35 4050 14200 (2025) 31 (2006) 2610 59 72 446 607 1930 4060 4290 5220 8220
2026-04-23 16:30 11.34 4040 14200 (2025) 31 (2006) 2610 59 72 446 607 1930 4060 4290 5220 8220
2026-04-23 15:30 11.34 4040 14200 (2025) 31 (2006) 2610 59 72 446 607 1930 4060 4290 5220 8220
2026-04-23 14:30 11.34 4040 14200 (2025) 31 (2006) 2610 59 72 446 607 1930 4060 4290 5220 8220
2026-04-23 13:30 11.37 4080 14200 (2025) 31 (2006) 2610 59 72 446 607 1930 4060 4290 5220 8220
2026-04-23 12:30 11.41 4130 14200 (2025) 31 (2006) 2610 59 72 446 607 1930 4060 4290 5220 8220
2026-04-23 11:30 11.39 4100 14200 (2025) 31 (2006) 2610 59 72 446 607 1930 4060 4290 5220 8220
2026-04-23 10:30 11.37 4080 14200 (2025) 31 (2006) 2610 59 72 446 607 1930 4060 4290 5220 8220
2026-04-23 09:30 11.37 4080 14200 (2025) 31 (2006) 2610 59 72 446 607 1930 4060 4290 5220 8220
2026-04-23 08:30 11.34 4040 14200 (2025) 31 (2006) 2610 59 72 446 607 1930 4060 4290 5220 8220
2026-04-23 07:30 11.27 3950 14200 (2025) 31 (2006) 2610 59 72 446 607 1930 4060 4290 5220 8220
2026-04-23 06:30 10.93 3530 14200 (2025) 31 (2006) 2610 59 72 446 607 1930 4060 4290 5220 8220
2026-04-23 05:30 6.82 132 14200 (2025) 31 (2006) 2610 59 72 446 607 1930 4060 4290 5220 8220
2026-04-23 04:30 6.71 106 14200 (2025) 31 (2006) 2610 59 72 446 607 1930 4060 4290 5220 8220
2026-04-23 03:30 6.77 120 14200 (2025) 31 (2006) 2610 59 72 446 607 1930 4060 4290 5220 8220
2026-04-23 02:30 6.87 145 14200 (2025) 31 (2006) 2610 59 72 446 607 1930 4060 4290 5220 8220
2026-04-23 01:30 7.03 192 14200 (2025) 31 (2006) 2610 59 72 446 607 1930 4060 4290 5220 8220
2026-04-23 00:30 7.40 337 14200 (2025) 31 (2006) 2610 59 72 446 607 1930 4060 4290 5220 8220
2026-04-22 23:30 8.50 1050 14200 (2025) 31 (2006) 2610 59 72 446 607 1930 4060 4290 5220 8220
2026-04-22 22:30 10.79 3360 14300 (2025) 31 (2006) 2720 55 89 478 778 2090 3880 4150 5710 8660
2026-04-22 21:30 11.36 4060 14300 (2025) 31 (2006) 2720 55 89 478 778 2090 3880 4150 5710 8660
2026-04-22 20:30 11.37 4080 14300 (2025) 31 (2006) 2720 55 89 478 778 2090 3880 4150 5710 8660
2026-04-22 19:30 11.37 4080 14300 (2025) 31 (2006) 2720 55 89 478 778 2090 3880 4150 5710 8660
2026-04-22 18:30 11.37 4080 14300 (2025) 31 (2006) 2720 55 89 478 778 2090 3880 4150 5710 8660
2026-04-22 17:30 11.37 4080 14300 (2025) 31 (2006) 2720 55 89 478 778 2090 3880 4150 5710 8660
2026-04-22 16:30 11.36 4060 14300 (2025) 31 (2006) 2720 55 89 478 778 2090 3880 4150 5710 8660
2026-04-22 15:30 11.36 4060 14300 (2025) 31 (2006) 2720 55 89 478 778 2090 3880 4150 5710 8660
2026-04-22 14:30 11.37 4080 14300 (2025) 31 (2006) 2720 55 89 478 778 2090 3880 4150 5710 8660
2026-04-22 12:30 11.36 4060 14300 (2025) 31 (2006) 2720 55 89 478 778 2090 3880 4150 5710 8660
2026-04-22 11:30 11.34 4040 14300 (2025) 31 (2006) 2720 55 89 478 778 2090 3880 4150 5710 8660
2026-04-22 10:30 11.29 3970 14300 (2025) 31 (2006) 2720 55 89 478 778 2090 3880 4150 5710 8660
2026-04-22 09:30 11.29 3970 14300 (2025) 31 (2006) 2720 55 89 478 778 2090 3880 4150 5710 8660
2026-04-22 08:30 11.23 3900 14300 (2025) 31 (2006) 2720 55 89 478 778 2090 3880 4150 5710 8660
2026-04-22 07:30 10.92 3520 14300 (2025) 31 (2006) 2720 55 89 478 778 2090 3880 4150 5710 8660
2026-04-22 06:30 6.86 142 14300 (2025) 31 (2006) 2720 55 89 478 778 2090 3880 4150 5710 8660
2026-04-22 05:30 6.71 106 14300 (2025) 31 (2006) 2720 55 89 478 778 2090 3880 4150 5710 8660
2026-04-22 04:30 6.75 115 14300 (2025) 31 (2006) 2720 55 89 478 778 2090 3880 4150 5710 8660
2026-04-22 03:30 6.81 130 14300 (2025) 31 (2006) 2720 55 89 478 778 2090 3880 4150 5710 8660
2026-04-22 02:30 6.90 153 14300 (2025) 31 (2006) 2720 55 89 478 778 2090 3880 4150 5710 8660
2026-04-22 01:30 7.06 202 14300 (2025) 31 (2006) 2720 55 89 478 778 2090 3880 4150 5710 8660
2026-04-22 00:30 7.42 347 14300 (2025) 31 (2006) 2720 55 89 478 778 2090 3880 4150 5710 8660
2026-04-21 23:30 8.51 1050 14300 (2025) 31 (2006) 2720 55 89 478 778 2090 3880 4150 5710 8660
2026-04-21 22:30 10.79 3360 13400 (2013) 27 (2011) 2700 37 61 448 594 2020 3850 4190 5990 6560
2026-04-21 21:30 11.34 4040 13400 (2013) 27 (2011) 2700 37 61 448 594 2020 3850 4190 5990 6560
2026-04-21 20:30 11.35 4050 13400 (2013) 27 (2011) 2700 37 61 448 594 2020 3850 4190 5990 6560
2026-04-21 19:30 11.36 4060 13400 (2013) 27 (2011) 2700 37 61 448 594 2020 3850 4190 5990 6560
2026-04-21 18:30 11.36 4060 13400 (2013) 27 (2011) 2700 37 61 448 594 2020 3850 4190 5990 6560
2026-04-21 17:30 11.34 4040 13400 (2013) 27 (2011) 2700 37 61 448 594 2020 3850 4190 5990 6560
2026-04-21 16:30 11.35 4050 13400 (2013) 27 (2011) 2700 37 61 448 594 2020 3850 4190 5990 6560
2026-04-21 15:30 11.35 4050 13400 (2013) 27 (2011) 2700 37 61 448 594 2020 3850 4190 5990 6560
2026-04-21 14:30 11.34 4040 13400 (2013) 27 (2011) 2700 37 61 448 594 2020 3850 4190 5990 6560
2026-04-21 13:30 11.34 4040 13400 (2013) 27 (2011) 2700 37 61 448 594 2020 3850 4190 5990 6560
2026-04-21 12:30 11.34 4040 13400 (2013) 27 (2011) 2700 37 61 448 594 2020 3850 4190 5990 6560
2026-04-21 11:30 11.33 4020 13400 (2013) 27 (2011) 2700 37 61 448 594 2020 3850 4190 5990 6560
2026-04-21 10:30 11.31 4000 13400 (2013) 27 (2011) 2700 37 61 448 594 2020 3850 4190 5990 6560
2026-04-21 09:30 11.30 3990 13400 (2013) 27 (2011) 2700 37 61 448 594 2020 3850 4190 5990 6560
2026-04-21 08:30 11.25 3920 13400 (2013) 27 (2011) 2700 37 61 448 594 2020 3850 4190 5990 6560
2026-04-21 07:30 10.94 3540 13400 (2013) 27 (2011) 2700 37 61 448 594 2020 3850 4190 5990 6560
2026-04-21 06:30 6.86 142 13400 (2013) 27 (2011) 2700 37 61 448 594 2020 3850 4190 5990 6560
2026-04-21 05:30 6.71 106 13400 (2013) 27 (2011) 2700 37 61 448 594 2020 3850 4190 5990 6560
2026-04-21 04:30 6.75 115 13400 (2013) 27 (2011) 2700 37 61 448 594 2020 3850 4190 5990 6560
2026-04-21 03:30 6.81 130 13400 (2013) 27 (2011) 2700 37 61 448 594 2020 3850 4190 5990 6560
2026-04-21 02:30 6.90 153 13400 (2013) 27 (2011) 2700 37 61 448 594 2020 3850 4190 5990 6560
2026-04-21 01:30 7.06 202 13400 (2013) 27 (2011) 2700 37 61 448 594 2020 3850 4190 5990 6560
2026-04-21 00:30 7.42 347 13400 (2013) 27 (2011) 2700 37 61 448 594 2020 3850 4190 5990 6560
2026-04-20 23:30 8.51 1050 13400 (2013) 27 (2011) 2700 37 61 448 594 2020 3850 4190 5990 6560
2026-04-20 22:30 10.78 3350 13500 (2013) 31 (2006) 2660 45 67 410 822 2020 3750 3930 6040 7590
2026-04-20 21:30 11.33 4020 13500 (2013) 31 (2006) 2660 45 67 410 822 2020 3750 3930 6040 7590
2026-04-20 20:30 11.33 4020 13500 (2013) 31 (2006) 2660 45 67 410 822 2020 3750 3930 6040 7590
2026-04-20 19:30 11.33 4020 13500 (2013) 31 (2006) 2660 45 67 410 822 2020 3750 3930 6040 7590
2026-04-20 18:30 11.33 4020 13500 (2013) 31 (2006) 2660 45 67 410 822 2020 3750 3930 6040 7590
2026-04-20 17:30 11.32 4010 13500 (2013) 31 (2006) 2660 45 67 410 822 2020 3750 3930 6040 7590
2026-04-20 16:30 11.32 4010 13500 (2013) 31 (2006) 2660 45 67 410 822 2020 3750 3930 6040 7590
2026-04-20 15:30 11.32 4010 13500 (2013) 31 (2006) 2660 45 67 410 822 2020 3750 3930 6040 7590
2026-04-20 14:30 11.32 4010 13500 (2013) 31 (2006) 2660 45 67 410 822 2020 3750 3930 6040 7590
2026-04-20 13:30 11.32 4010 13500 (2013) 31 (2006) 2660 45 67 410 822 2020 3750 3930 6040 7590
2026-04-20 12:30 11.32 4010 13500 (2013) 31 (2006) 2660 45 67 410 822 2020 3750 3930 6040 7590
2026-04-20 11:30 11.30 3990 13500 (2013) 31 (2006) 2660 45 67 410 822 2020 3750 3930 6040 7590
2026-04-20 10:30 11.30 3990 13500 (2013) 31 (2006) 2660 45 67 410 822 2020 3750 3930 6040 7590
2026-04-20 09:30 11.28 3960 13500 (2013) 31 (2006) 2660 45 67 410 822 2020 3750 3930 6040 7590
2026-04-20 08:30 11.21 3870 13500 (2013) 31 (2006) 2660 45 67 410 822 2020 3750 3930 6040 7590
2026-04-20 07:30 10.88 3470 13500 (2013) 31 (2006) 2660 45 67 410 822 2020 3750 3930 6040 7590
2026-04-20 06:30 6.56 77 13500 (2013) 31 (2006) 2660 45 67 410 822 2020 3750 3930 6040 7590
2026-04-20 05:30 6.55 75 13500 (2013) 31 (2006) 2660 45 67 410 822 2020 3750 3930 6040 7590
2026-04-20 04:30 6.60 84 13500 (2013) 31 (2006) 2660 45 67 410 822 2020 3750 3930 6040 7590
2026-04-20 03:30 6.68 100 13500 (2013) 31 (2006) 2660 45 67 410 822 2020 3750 3930 6040 7590
2026-04-20 02:30 6.79 125 13500 (2013) 31 (2006) 2660 45 67 410 822 2020 3750 3930 6040 7590
2026-04-20 01:30 6.98 177 13500 (2013) 31 (2006) 2660 45 67 410 822 2020 3750 3930 6040 7590
2026-04-20 00:30 7.37 324 13500 (2013) 31 (2006) 2660 45 67 410 822 2020 3750 3930 6040 7590
2026-04-19 23:30 8.48 1030 13500 (2013) 31 (2006) 2660 45 67 410 822 2020 3750 3930 6040 7590
2026-04-19 22:30 10.78 3350 9350 (1990) 32 (1992) 2640 50 86 612 733 2090 3680 3890 6180 7770
2026-04-19 21:30 11.34 4040 9350 (1990) 32 (1992) 2640 50 86 612 733 2090 3680 3890 6180 7770
2026-04-19 20:30 11.36 4060 9350 (1990) 32 (1992) 2640 50 86 612 733 2090 3680 3890 6180 7770
2026-04-19 19:30 11.37 4080 9350 (1990) 32 (1992) 2640 50 86 612 733 2090 3680 3890 6180 7770
2026-04-19 18:30 11.34 4040 9350 (1990) 32 (1992) 2640 50 86 612 733 2090 3680 3890 6180 7770
2026-04-19 17:30 11.33 4020 9350 (1990) 32 (1992) 2640 50 86 612 733 2090 3680 3890 6180 7770
2026-04-19 16:30 11.32 4010 9350 (1990) 32 (1992) 2640 50 86 612 733 2090 3680 3890 6180 7770
2026-04-19 15:30 11.31 4000 9350 (1990) 32 (1992) 2640 50 86 612 733 2090 3680 3890 6180 7770
2026-04-19 14:30 11.31 4000 9350 (1990) 32 (1992) 2640 50 86 612 733 2090 3680 3890 6180 7770
2026-04-19 13:30 11.31 4000 9350 (1990) 32 (1992) 2640 50 86 612 733 2090 3680 3890 6180 7770
2026-04-19 12:30 11.31 4000 9350 (1990) 32 (1992) 2640 50 86 612 733 2090 3680 3890 6180 7770
2026-04-19 11:30 11.30 3990 9350 (1990) 32 (1992) 2640 50 86 612 733 2090 3680 3890 6180 7770
2026-04-19 10:30 11.30 3990 9350 (1990) 32 (1992) 2640 50 86 612 733 2090 3680 3890 6180 7770
2026-04-19 09:30 11.28 3960 9350 (1990) 32 (1992) 2640 50 86 612 733 2090 3680 3890 6180 7770
2026-04-19 08:30 11.22 3890 9350 (1990) 32 (1992) 2640 50 86 612 733 2090 3680 3890 6180 7770
2026-04-19 07:30 10.90 3490 9350 (1990) 32 (1992) 2640 50 86 612 733 2090 3680 3890 6180 7770
2026-04-19 06:30 6.52 70 9350 (1990) 32 (1992) 2640 50 86 612 733 2090 3680 3890 6180 7770
2026-04-19 05:30 6.55 75 9350 (1990) 32 (1992) 2640 50 86 612 733 2090 3680 3890 6180 7770
2026-04-19 04:30 6.60 84 9350 (1990) 32 (1992) 2640 50 86 612 733 2090 3680 3890 6180 7770
2026-04-19 03:30 6.68 100 9350 (1990) 32 (1992) 2640 50 86 612 733 2090 3680 3890 6180 7770
2026-04-19 02:30 6.79 125 9350 (1990) 32 (1992) 2640 50 86 612 733 2090 3680 3890 6180 7770
2026-04-19 01:30 6.98 177 9350 (1990) 32 (1992) 2640 50 86 612 733 2090 3680 3890 6180 7770
2026-04-19 00:30 7.37 324 9350 (1990) 32 (1992) 2640 50 86 612 733 2090 3680 3890 6180 7770
2026-04-18 23:30 8.48 1030 9350 (1990) 32 (1992) 2640 50 86 612 733 2090 3680 3890 6180 7770
2026-04-18 22:30 10.78 3350 9350 (1965) 21 (2011) 2450 43 63 249 625 2010 3670 3820 5780 6830
2026-04-18 21:30 11.34 4040 9350 (1965) 21 (2011) 2450 43 63 249 625 2010 3670 3820 5780 6830
2026-04-18 20:30 11.34 4040 9350 (1965) 21 (2011) 2450 43 63 249 625 2010 3670 3820 5780 6830
2026-04-18 19:30 11.33 4020 9350 (1965) 21 (2011) 2450 43 63 249 625 2010 3670 3820 5780 6830
2026-04-18 18:30 11.33 4020 9350 (1965) 21 (2011) 2450 43 63 249 625 2010 3670 3820 5780 6830
2026-04-18 17:30 11.32 4010 9350 (1965) 21 (2011) 2450 43 63 249 625 2010 3670 3820 5780 6830
2026-04-18 16:30 11.32 4010 9350 (1965) 21 (2011) 2450 43 63 249 625 2010 3670 3820 5780 6830
2026-04-18 15:30 11.32 4010 9350 (1965) 21 (2011) 2450 43 63 249 625 2010 3670 3820 5780 6830
2026-04-18 14:30 11.32 4010 9350 (1965) 21 (2011) 2450 43 63 249 625 2010 3670 3820 5780 6830
2026-04-18 13:30 11.32 4010 9350 (1965) 21 (2011) 2450 43 63 249 625 2010 3670 3820 5780 6830
2026-04-18 12:30 11.32 4010 9350 (1965) 21 (2011) 2450 43 63 249 625 2010 3670 3820 5780 6830
2026-04-18 11:30 11.31 4000 9350 (1965) 21 (2011) 2450 43 63 249 625 2010 3670 3820 5780 6830
2026-04-18 10:30 11.30 3990 9350 (1965) 21 (2011) 2450 43 63 249 625 2010 3670 3820 5780 6830
2026-04-18 09:30 11.28 3960 9350 (1965) 21 (2011) 2450 43 63 249 625 2010 3670 3820 5780 6830
2026-04-18 08:30 11.23 3900 9350 (1965) 21 (2011) 2450 43 63 249 625 2010 3670 3820 5780 6830
2026-04-18 07:30 10.93 3530 9350 (1965) 21 (2011) 2450 43 63 249 625 2010 3670 3820 5780 6830
2026-04-18 06:30 6.56 77 9350 (1965) 21 (2011) 2450 43 63 249 625 2010 3670 3820 5780 6830
2026-04-18 05:30 6.55 75 9350 (1965) 21 (2011) 2450 43 63 249 625 2010 3670 3820 5780 6830
2026-04-18 04:30 6.61 86 9350 (1965) 21 (2011) 2450 43 63 249 625 2010 3670 3820 5780 6830
2026-04-18 03:30 6.69 102 9350 (1965) 21 (2011) 2450 43 63 249 625 2010 3670 3820 5780 6830
2026-04-18 02:30 6.81 130 9350 (1965) 21 (2011) 2450 43 63 249 625 2010 3670 3820 5780 6830
2026-04-18 01:30 6.99 180 9350 (1965) 21 (2011) 2450 43 63 249 625 2010 3670 3820 5780 6830
2026-04-18 00:30 7.36 319 9350 (1965) 21 (2011) 2450 43 63 249 625 2010 3670 3820 5780 6830
2026-04-17 23:30 8.47 1020 9350 (1965) 21 (2011) 2450 43 63 249 625 2010 3670 3820 5780 6830
2026-04-17 22:30 10.75 3310 9800 (1993) 24 (2011) 2340 46 61 250 389 1860 3760 4120 5710 6910
2026-04-17 21:30 11.30 3990 9800 (1993) 24 (2011) 2340 46 61 250 389 1860 3760 4120 5710 6910
2026-04-17 20:30 11.30 3990 9800 (1993) 24 (2011) 2340 46 61 250 389 1860 3760 4120 5710 6910
2026-04-17 19:30 11.30 3990 9800 (1993) 24 (2011) 2340 46 61 250 389 1860 3760 4120 5710 6910
2026-04-17 18:30 11.31 4000 9800 (1993) 24 (2011) 2340 46 61 250 389 1860 3760 4120 5710 6910
2026-04-17 17:30 11.30 3990 9800 (1993) 24 (2011) 2340 46 61 250 389 1860 3760 4120 5710 6910
2026-04-17 16:30 11.29 3970 9800 (1993) 24 (2011) 2340 46 61 250 389 1860 3760 4120 5710 6910
2026-04-17 15:30 11.30 3990 9800 (1993) 24 (2011) 2340 46 61 250 389 1860 3760 4120 5710 6910
2026-04-17 14:30 11.30 3990 9800 (1993) 24 (2011) 2340 46 61 250 389 1860 3760 4120 5710 6910
2026-04-17 13:30 11.28 3960 9800 (1993) 24 (2011) 2340 46 61 250 389 1860 3760 4120 5710 6910
2026-04-17 12:30 11.28 3960 9800 (1993) 24 (2011) 2340 46 61 250 389 1860 3760 4120 5710 6910
2026-04-17 11:30 11.27 3950 9800 (1993) 24 (2011) 2340 46 61 250 389 1860 3760 4120 5710 6910
2026-04-17 10:30 11.25 3920 9800 (1993) 24 (2011) 2340 46 61 250 389 1860 3760 4120 5710 6910
2026-04-17 09:30 11.22 3890 9800 (1993) 24 (2011) 2340 46 61 250 389 1860 3760 4120 5710 6910
2026-04-17 08:30 11.17 3820 9800 (1993) 24 (2011) 2340 46 61 250 389 1860 3760 4120 5710 6910
2026-04-17 07:30 10.87 3460 9800 (1993) 24 (2011) 2340 46 61 250 389 1860 3760 4120 5710 6910
2026-04-17 06:30 6.48 63 9800 (1993) 24 (2011) 2340 46 61 250 389 1860 3760 4120 5710 6910
2026-04-17 05:30 6.48 63 9800 (1993) 24 (2011) 2340 46 61 250 389 1860 3760 4120 5710 6910
2026-04-17 04:30 6.52 70 9800 (1993) 24 (2011) 2340 46 61 250 389 1860 3760 4120 5710 6910
2026-04-17 03:30 6.57 78 9800 (1993) 24 (2011) 2340 46 61 250 389 1860 3760 4120 5710 6910
2026-04-17 02:30 6.65 94 9800 (1993) 24 (2011) 2340 46 61 250 389 1860 3760 4120 5710 6910
2026-04-17 01:30 6.77 120 9800 (1993) 24 (2011) 2340 46 61 250 389 1860 3760 4120 5710 6910
2026-04-17 00:30 6.95 168 9800 (1993) 24 (2011) 2340 46 61 250 389 1860 3760 4120 5710 6910
2026-04-16 23:30 7.34 310 9800 (1993) 24 (2011) 2340 46 61 250 389 1860 3760 4120 5710 6910
2026-04-16 22:30 8.46 1010 9750 (1965) 21 (2017) 2500 35 62 303 632 2040 3770 4210 5780 7370
2026-04-16 21:30 10.76 3330 9750 (1965) 21 (2017) 2500 35 62 303 632 2040 3770 4210 5780 7370
2026-04-16 20:30 11.31 4000 9750 (1965) 21 (2017) 2500 35 62 303 632 2040 3770 4210 5780 7370
2026-04-16 19:30 11.32 4010 9750 (1965) 21 (2017) 2500 35 62 303 632 2040 3770 4210 5780 7370
2026-04-16 18:30 11.30 3990 9750 (1965) 21 (2017) 2500 35 62 303 632 2040 3770 4210 5780 7370
2026-04-16 17:30 11.30 3990 9750 (1965) 21 (2017) 2500 35 62 303 632 2040 3770 4210 5780 7370
2026-04-16 16:30 11.28 3960 9750 (1965) 21 (2017) 2500 35 62 303 632 2040 3770 4210 5780 7370
2026-04-16 15:30 11.25 3920 9750 (1965) 21 (2017) 2500 35 62 303 632 2040 3770 4210 5780 7370
2026-04-16 14:30 10.95 3550 9750 (1965) 21 (2017) 2500 35 62 303 632 2040 3770 4210 5780 7370
2026-04-16 13:30 6.66 96 9750 (1965) 21 (2017) 2500 35 62 303 632 2040 3770 4210 5780 7370
2026-04-16 12:30 6.54 73 9750 (1965) 21 (2017) 2500 35 62 303 632 2040 3770 4210 5780 7370
2026-04-16 11:30 6.55 75 9750 (1965) 21 (2017) 2500 35 62 303 632 2040 3770 4210 5780 7370
2026-04-16 10:30 6.56 77 9750 (1965) 21 (2017) 2500 35 62 303 632 2040 3770 4210 5780 7370
2026-04-16 09:30 6.57 78 9750 (1965) 21 (2017) 2500 35 62 303 632 2040 3770 4210 5780 7370
2026-04-16 08:30 6.58 80 9750 (1965) 21 (2017) 2500 35 62 303 632 2040 3770 4210 5780 7370
2026-04-16 07:30 6.59 82 9750 (1965) 21 (2017) 2500 35 62 303 632 2040 3770 4210 5780 7370
2026-04-16 06:30 6.60 84 9750 (1965) 21 (2017) 2500 35 62 303 632 2040 3770 4210 5780 7370
2026-04-16 05:30 6.62 88 9750 (1965) 21 (2017) 2500 35 62 303 632 2040 3770 4210 5780 7370
2026-04-16 04:30 6.64 92 9750 (1965) 21 (2017) 2500 35 62 303 632 2040 3770 4210 5780 7370
2026-04-16 03:30 6.67 98 9750 (1965) 21 (2017) 2500 35 62 303 632 2040 3770 4210 5780 7370
2026-04-16 02:30 6.71 106 9750 (1965) 21 (2017) 2500 35 62 303 632 2040 3770 4210 5780 7370
2026-04-16 01:30 6.78 122 9750 (1965) 21 (2017) 2500 35 62 303 632 2040 3770 4210 5780 7370
2026-04-16 00:30 6.87 145 9750 (1965) 21 (2017) 2500 35 62 303 632 2040 3770 4210 5780 7370
2026-04-15 23:30 7.04 196 9750 (1965) 21 (2017) 2500 35 62 303 632 2040 3770 4210 5780 7370
2026-04-15 22:30 7.41 342 7710 (1998) 17 (2001) 2570 33 91 673 806 2040 3870 4610 5790 7340
2026-04-15 21:30 8.49 1040 7710 (1998) 17 (2001) 2570 33 91 673 806 2040 3870 4610 5790 7340
2026-04-15 20:30 10.77 3340 7710 (1998) 17 (2001) 2570 33 91 673 806 2040 3870 4610 5790 7340
2026-04-15 19:30 11.33 4020 7710 (1998) 17 (2001) 2570 33 91 673 806 2040 3870 4610 5790 7340
2026-04-15 18:30 11.32 4010 7710 (1998) 17 (2001) 2570 33 91 673 806 2040 3870 4610 5790 7340
2026-04-15 17:30 11.32 4010 7710 (1998) 17 (2001) 2570 33 91 673 806 2040 3870 4610 5790 7340
2026-04-15 16:30 11.30 3990 7710 (1998) 17 (2001) 2570 33 91 673 806 2040 3870 4610 5790 7340
2026-04-15 15:30 11.29 3970 7710 (1998) 17 (2001) 2570 33 91 673 806 2040 3870 4610 5790 7340
2026-04-15 14:30 11.25 3920 7710 (1998) 17 (2001) 2570 33 91 673 806 2040 3870 4610 5790 7340
2026-04-15 13:30 10.94 3540 7710 (1998) 17 (2001) 2570 33 91 673 806 2040 3870 4610 5790 7340
2026-04-15 12:30 6.70 104 7710 (1998) 17 (2001) 2570 33 91 673 806 2040 3870 4610 5790 7340
2026-04-15 11:30 6.56 77 7710 (1998) 17 (2001) 2570 33 91 673 806 2040 3870 4610 5790 7340
2026-04-15 10:30 6.57 78 7710 (1998) 17 (2001) 2570 33 91 673 806 2040 3870 4610 5790 7340
2026-04-15 09:30 6.57 78 7710 (1998) 17 (2001) 2570 33 91 673 806 2040 3870 4610 5790 7340
2026-04-15 08:30 6.58 80 7710 (1998) 17 (2001) 2570 33 91 673 806 2040 3870 4610 5790 7340
2026-04-15 07:30 6.60 84 7710 (1998) 17 (2001) 2570 33 91 673 806 2040 3870 4610 5790 7340
2026-04-15 06:30 6.61 86 7710 (1998) 17 (2001) 2570 33 91 673 806 2040 3870 4610 5790 7340
2026-04-15 05:30 6.64 92 7710 (1998) 17 (2001) 2570 33 91 673 806 2040 3870 4610 5790 7340
2026-04-15 04:30 6.67 98 7710 (1998) 17 (2001) 2570 33 91 673 806 2040 3870 4610 5790 7340
2026-04-15 03:30 6.72 108 7710 (1998) 17 (2001) 2570 33 91 673 806 2040 3870 4610 5790 7340
2026-04-15 02:30 6.81 130 7710 (1998) 17 (2001) 2570 33 91 673 806 2040 3870 4610 5790 7340
2026-04-15 01:30 6.92 159 7710 (1998) 17 (2001) 2570 33 91 673 806 2040 3870 4610 5790 7340
2026-04-15 00:30 7.10 216 7710 (1998) 17 (2001) 2570 33 91 673 806 2040 3870 4610 5790 7340
2026-04-14 23:30 7.48 376 7710 (1998) 17 (2001) 2570 33 91 673 806 2040 3870 4610 5790 7340
2026-04-14 22:30 8.49 1040 9830 (1957) 18 (2001) 2630 44 88 453 880 2110 3790 4000 5800 7550
2026-04-14 21:30 10.78 3350 9830 (1957) 18 (2001) 2630 44 88 453 880 2110 3790 4000 5800 7550
2026-04-14 20:30 11.35 4050 9830 (1957) 18 (2001) 2630 44 88 453 880 2110 3790 4000 5800 7550
2026-04-14 19:30 11.35 4050 9830 (1957) 18 (2001) 2630 44 88 453 880 2110 3790 4000 5800 7550
2026-04-14 18:30 11.34 4040 9830 (1957) 18 (2001) 2630 44 88 453 880 2110 3790 4000 5800 7550
2026-04-14 17:30 11.32 4010 9830 (1957) 18 (2001) 2630 44 88 453 880 2110 3790 4000 5800 7550
2026-04-14 16:30 11.30 3990 9830 (1957) 18 (2001) 2630 44 88 453 880 2110 3790 4000 5800 7550
2026-04-14 15:30 11.26 3940 9830 (1957) 18 (2001) 2630 44 88 453 880 2110 3790 4000 5800 7550
2026-04-14 14:30 10.95 3550 9830 (1957) 18 (2001) 2630 44 88 453 880 2110 3790 4000 5800 7550
2026-04-14 13:30 6.60 84 9830 (1957) 18 (2001) 2630 44 88 453 880 2110 3790 4000 5800 7550
2026-04-14 12:30 6.51 68 9830 (1957) 18 (2001) 2630 44 88 453 880 2110 3790 4000 5800 7550
2026-04-14 11:30 6.52 70 9830 (1957) 18 (2001) 2630 44 88 453 880 2110 3790 4000 5800 7550
2026-04-14 09:30 6.53 71 9830 (1957) 18 (2001) 2630 44 88 453 880 2110 3790 4000 5800 7550
2026-04-14 08:30 6.54 73 9830 (1957) 18 (2001) 2630 44 88 453 880 2110 3790 4000 5800 7550
2026-04-14 07:30 6.56 77 9830 (1957) 18 (2001) 2630 44 88 453 880 2110 3790 4000 5800 7550
2026-04-14 06:30 6.58 80 9830 (1957) 18 (2001) 2630 44 88 453 880 2110 3790 4000 5800 7550
2026-04-14 05:30 6.59 82 9830 (1957) 18 (2001) 2630 44 88 453 880 2110 3790 4000 5800 7550
2026-04-14 04:30 6.62 88 9830 (1957) 18 (2001) 2630 44 88 453 880 2110 3790 4000 5800 7550
2026-04-14 03:30 6.65 94 9830 (1957) 18 (2001) 2630 44 88 453 880 2110 3790 4000 5800 7550
2026-04-14 02:30 6.69 102 9830 (1957) 18 (2001) 2630 44 88 453 880 2110 3790 4000 5800 7550
2026-04-14 01:30 6.76 117 9830 (1957) 18 (2001) 2630 44 88 453 880 2110 3790 4000 5800 7550
2026-04-14 00:30 6.85 140 9830 (1957) 18 (2001) 2630 44 88 453 880 2110 3790 4000 5800 7550
2026-04-13 23:30 7.02 189 9830 (1957) 18 (2001) 2630 44 88 453 880 2110 3790 4000 5800 7550
2026-04-13 22:30 7.39 333 12200 (1957) 25 (2017) 2710 52 166 609 865 2090 3790 3930 6680 8880
2026-04-13 21:30 8.49 1040 12200 (1957) 25 (2017) 2710 52 166 609 865 2090 3790 3930 6680 8880
2026-04-13 20:30 10.80 3370 12200 (1957) 25 (2017) 2710 52 166 609 865 2090 3790 3930 6680 8880
2026-04-13 19:30 11.37 4080 12200 (1957) 25 (2017) 2710 52 166 609 865 2090 3790 3930 6680 8880
2026-04-13 18:30 11.36 4060 12200 (1957) 25 (2017) 2710 52 166 609 865 2090 3790 3930 6680 8880
2026-04-13 17:30 11.36 4060 12200 (1957) 25 (2017) 2710 52 166 609 865 2090 3790 3930 6680 8880
2026-04-13 16:30 11.35 4050 12200 (1957) 25 (2017) 2710 52 166 609 865 2090 3790 3930 6680 8880
2026-04-13 15:30 11.32 4010 12200 (1957) 25 (2017) 2710 52 166 609 865 2090 3790 3930 6680 8880
2026-04-13 14:30 11.28 3960 12200 (1957) 25 (2017) 2710 52 166 609 865 2090 3790 3930 6680 8880
2026-04-13 13:30 10.94 3540 12200 (1957) 25 (2017) 2710 52 166 609 865 2090 3790 3930 6680 8880
2026-04-13 12:30 6.62 88 12200 (1957) 25 (2017) 2710 52 166 609 865 2090 3790 3930 6680 8880
2026-04-13 11:30 6.51 68 12200 (1957) 25 (2017) 2710 52 166 609 865 2090 3790 3930 6680 8880
2026-04-13 10:30 6.49 65 12200 (1957) 25 (2017) 2710 52 166 609 865 2090 3790 3930 6680 8880
2026-04-13 09:30 6.43 56 12200 (1957) 25 (2017) 2710 52 166 609 865 2090 3790 3930 6680 8880
2026-04-13 08:30 6.40 51 12200 (1957) 25 (2017) 2710 52 166 609 865 2090 3790 3930 6680 8880
2026-04-13 07:30 6.42 54 12200 (1957) 25 (2017) 2710 52 166 609 865 2090 3790 3930 6680 8880
2026-04-13 06:30 6.45 59 12200 (1957) 25 (2017) 2710 52 166 609 865 2090 3790 3930 6680 8880
2026-04-13 05:30 6.48 63 12200 (1957) 25 (2017) 2710 52 166 609 865 2090 3790 3930 6680 8880
2026-04-13 04:30 6.53 71 12200 (1957) 25 (2017) 2710 52 166 609 865 2090 3790 3930 6680 8880
2026-04-13 03:30 6.58 80 12200 (1957) 25 (2017) 2710 52 166 609 865 2090 3790 3930 6680 8880
2026-04-13 02:30 6.66 96 12200 (1957) 25 (2017) 2710 52 166 609 865 2090 3790 3930 6680 8880
2026-04-13 01:30 6.78 122 12200 (1957) 25 (2017) 2710 52 166 609 865 2090 3790 3930 6680 8880
2026-04-13 00:30 6.97 174 12200 (1957) 25 (2017) 2710 52 166 609 865 2090 3790 3930 6680 8880
2026-04-12 23:30 7.36 319 12200 (1957) 25 (2017) 2710 52 166 609 865 2090 3790 3930 6680 8880
2026-04-12 22:30 8.47 1020 14000 (1957) 34 (2006) 2870 55 95 514 855 2160 3740 3830 6900 9380
2026-04-12 21:30 10.78 3350 14000 (1957) 34 (2006) 2870 55 95 514 855 2160 3740 3830 6900 9380
2026-04-12 20:30 11.36 4060 14000 (1957) 34 (2006) 2870 55 95 514 855 2160 3740 3830 6900 9380
2026-04-12 19:30 11.37 4080 14000 (1957) 34 (2006) 2870 55 95 514 855 2160 3740 3830 6900 9380
2026-04-12 18:30 11.36 4060 14000 (1957) 34 (2006) 2870 55 95 514 855 2160 3740 3830 6900 9380
2026-04-12 17:30 11.34 4040 14000 (1957) 34 (2006) 2870 55 95 514 855 2160 3740 3830 6900 9380
2026-04-12 16:30 11.33 4020 14000 (1957) 34 (2006) 2870 55 95 514 855 2160 3740 3830 6900 9380
2026-04-12 15:30 11.31 4000 14000 (1957) 34 (2006) 2870 55 95 514 855 2160 3740 3830 6900 9380
2026-04-12 14:30 11.30 3990 14000 (1957) 34 (2006) 2870 55 95 514 855 2160 3740 3830 6900 9380
2026-04-12 13:30 11.30 3990 14000 (1957) 34 (2006) 2870 55 95 514 855 2160 3740 3830 6900 9380
2026-04-12 12:30 11.29 3970 14000 (1957) 34 (2006) 2870 55 95 514 855 2160 3740 3830 6900 9380
2026-04-12 11:30 11.29 3970 14000 (1957) 34 (2006) 2870 55 95 514 855 2160 3740 3830 6900 9380
2026-04-12 10:30 11.28 3960 14000 (1957) 34 (2006) 2870 55 95 514 855 2160 3740 3830 6900 9380
2026-04-12 09:30 11.27 3950 14000 (1957) 34 (2006) 2870 55 95 514 855 2160 3740 3830 6900 9380
2026-04-12 08:30 11.25 3920 14000 (1957) 34 (2006) 2870 55 95 514 855 2160 3740 3830 6900 9380
2026-04-12 07:30 11.20 3860 14000 (1957) 34 (2006) 2870 55 95 514 855 2160 3740 3830 6900 9380
2026-04-12 06:30 10.90 3490 14000 (1957) 34 (2006) 2870 55 95 514 855 2160 3740 3830 6900 9380
2026-04-12 05:30 6.51 68 14000 (1957) 34 (2006) 2870 55 95 514 855 2160 3740 3830 6900 9380
2026-04-12 04:30 6.52 70 14000 (1957) 34 (2006) 2870 55 95 514 855 2160 3740 3830 6900 9380
2026-04-12 03:30 6.58 80 14000 (1957) 34 (2006) 2870 55 95 514 855 2160 3740 3830 6900 9380
2026-04-12 02:30 6.66 96 14000 (1957) 34 (2006) 2870 55 95 514 855 2160 3740 3830 6900 9380
2026-04-12 01:30 6.77 120 14000 (1957) 34 (2006) 2870 55 95 514 855 2160 3740 3830 6900 9380
2026-04-12 00:30 6.96 171 14000 (1957) 34 (2006) 2870 55 95 514 855 2160 3740 3830 6900 9380
2026-04-11 23:30 7.36 319 14000 (1957) 34 (2006) 2870 55 95 514 855 2160 3740 3830 6900 9380
2026-04-11 22:30 8.46 1010 14900 (1957) 34 (2006) 2780 65 92 299 643 2080 3720 3890 7220 9630
2026-04-11 21:30 10.75 3310 14900 (1957) 34 (2006) 2780 65 92 299 643 2080 3720 3890 7220 9630
2026-04-11 20:30 11.30 3990 14900 (1957) 34 (2006) 2780 65 92 299 643 2080 3720 3890 7220 9630
2026-04-11 19:30 11.30 3990 14900 (1957) 34 (2006) 2780 65 92 299 643 2080 3720 3890 7220 9630
2026-04-11 18:30 11.31 4000 14900 (1957) 34 (2006) 2780 65 92 299 643 2080 3720 3890 7220 9630
2026-04-11 17:30 11.31 4000 14900 (1957) 34 (2006) 2780 65 92 299 643 2080 3720 3890 7220 9630
2026-04-11 16:30 11.30 3990 14900 (1957) 34 (2006) 2780 65 92 299 643 2080 3720 3890 7220 9630
2026-04-11 15:30 11.30 3990 14900 (1957) 34 (2006) 2780 65 92 299 643 2080 3720 3890 7220 9630
2026-04-11 14:30 11.30 3990 14900 (1957) 34 (2006) 2780 65 92 299 643 2080 3720 3890 7220 9630
2026-04-11 13:30 11.29 3970 14900 (1957) 34 (2006) 2780 65 92 299 643 2080 3720 3890 7220 9630
2026-04-11 12:30 11.30 3990 14900 (1957) 34 (2006) 2780 65 92 299 643 2080 3720 3890 7220 9630
2026-04-11 11:30 11.28 3960 14900 (1957) 34 (2006) 2780 65 92 299 643 2080 3720 3890 7220 9630
2026-04-11 10:30 11.28 3960 14900 (1957) 34 (2006) 2780 65 92 299 643 2080 3720 3890 7220 9630
2026-04-11 09:30 11.26 3940 14900 (1957) 34 (2006) 2780 65 92 299 643 2080 3720 3890 7220 9630
2026-04-11 08:30 11.24 3910 14900 (1957) 34 (2006) 2780 65 92 299 643 2080 3720 3890 7220 9630
2026-04-11 07:30 11.19 3850 14900 (1957) 34 (2006) 2780 65 92 299 643 2080 3720 3890 7220 9630
2026-04-11 06:30 10.90 3490 14900 (1957) 34 (2006) 2780 65 92 299 643 2080 3720 3890 7220 9630
2026-04-11 05:30 6.53 71 14900 (1957) 34 (2006) 2780 65 92 299 643 2080 3720 3890 7220 9630
2026-04-11 04:30 6.53 71 14900 (1957) 34 (2006) 2780 65 92 299 643 2080 3720 3890 7220 9630
2026-04-11 03:30 6.59 82 14900 (1957) 34 (2006) 2780 65 92 299 643 2080 3720 3890 7220 9630
2026-04-11 02:30 6.67 98 14900 (1957) 34 (2006) 2780 65 92 299 643 2080 3720 3890 7220 9630
2026-04-11 01:30 6.79 125 14900 (1957) 34 (2006) 2780 65 92 299 643 2080 3720 3890 7220 9630
2026-04-11 00:30 6.97 174 14900 (1957) 34 (2006) 2780 65 92 299 643 2080 3720 3890 7220 9630
2026-04-10 23:30 7.36 319 14900 (1957) 34 (2006) 2780 65 92 299 643 2080 3720 3890 7220 9630
2026-04-10 22:30 8.46 1010 15100 (1957) 34 (2006) 2700 45 86 205 413 2040 3650 3810 7110 9990
2026-04-10 21:30 10.75 3310 15100 (1957) 34 (2006) 2700 45 86 205 413 2040 3650 3810 7110 9990
2026-04-10 20:30 11.29 3970 15100 (1957) 34 (2006) 2700 45 86 205 413 2040 3650 3810 7110 9990
2026-04-10 19:30 11.30 3990 15100 (1957) 34 (2006) 2700 45 86 205 413 2040 3650 3810 7110 9990
2026-04-10 18:30 11.30 3990 15100 (1957) 34 (2006) 2700 45 86 205 413 2040 3650 3810 7110 9990
2026-04-10 17:30 11.30 3990 15100 (1957) 34 (2006) 2700 45 86 205 413 2040 3650 3810 7110 9990
2026-04-10 16:30 11.29 3970 15100 (1957) 34 (2006) 2700 45 86 205 413 2040 3650 3810 7110 9990
2026-04-10 15:30 11.29 3970 15100 (1957) 34 (2006) 2700 45 86 205 413 2040 3650 3810 7110 9990
2026-04-10 14:30 11.28 3960 15100 (1957) 34 (2006) 2700 45 86 205 413 2040 3650 3810 7110 9990
2026-04-10 13:30 11.27 3950 15100 (1957) 34 (2006) 2700 45 86 205 413 2040 3650 3810 7110 9990
2026-04-10 12:30 11.28 3960 15100 (1957) 34 (2006) 2700 45 86 205 413 2040 3650 3810 7110 9990
2026-04-10 11:30 11.28 3960 15100 (1957) 34 (2006) 2700 45 86 205 413 2040 3650 3810 7110 9990
2026-04-10 10:30 11.26 3940 15100 (1957) 34 (2006) 2700 45 86 205 413 2040 3650 3810 7110 9990
2026-04-10 09:30 11.25 3920 15100 (1957) 34 (2006) 2700 45 86 205 413 2040 3650 3810 7110 9990
2026-04-10 08:30 11.22 3890 15100 (1957) 34 (2006) 2700 45 86 205 413 2040 3650 3810 7110 9990
2026-04-10 07:30 11.19 3850 15100 (1957) 34 (2006) 2700 45 86 205 413 2040 3650 3810 7110 9990
2026-04-10 06:30 10.87 3460 15100 (1957) 34 (2006) 2700 45 86 205 413 2040 3650 3810 7110 9990
2026-04-10 05:30 6.57 78 15100 (1957) 34 (2006) 2700 45 86 205 413 2040 3650 3810 7110 9990
2026-04-10 04:30 6.58 80 15100 (1957) 34 (2006) 2700 45 86 205 413 2040 3650 3810 7110 9990
2026-04-10 03:30 6.67 98 15100 (1957) 34 (2006) 2700 45 86 205 413 2040 3650 3810 7110 9990
2026-04-10 02:30 6.79 125 15100 (1957) 34 (2006) 2700 45 86 205 413 2040 3650 3810 7110 9990
2026-04-10 01:30 7.01 186 15100 (1957) 34 (2006) 2700 45 86 205 413 2040 3650 3810 7110 9990
2026-04-10 00:30 7.46 366 15100 (1957) 34 (2006) 2700 45 86 205 413 2040 3650 3810 7110 9990
2026-04-09 23:30 8.77 1270 15100 (1957) 34 (2006) 2700 45 86 205 413 2040 3650 3810 7110 9990
2026-04-09 22:30 11.12 3760 15100 (1957) 21 (2017) 2920 51 84 365 748 2120 3770 3910 7590 10500
2026-04-09 21:30 11.29 3970 15100 (1957) 21 (2017) 2920 51 84 365 748 2120 3770 3910 7590 10500
2026-04-09 20:30 11.30 3990 15100 (1957) 21 (2017) 2920 51 84 365 748 2120 3770 3910 7590 10500
2026-04-09 19:30 11.31 4000 15100 (1957) 21 (2017) 2920 51 84 365 748 2120 3770 3910 7590 10500
2026-04-09 18:30 11.31 4000 15100 (1957) 21 (2017) 2920 51 84 365 748 2120 3770 3910 7590 10500
2026-04-09 17:30 11.30 3990 15100 (1957) 21 (2017) 2920 51 84 365 748 2120 3770 3910 7590 10500
2026-04-09 16:30 11.32 4010 15100 (1957) 21 (2017) 2920 51 84 365 748 2120 3770 3910 7590 10500
2026-04-09 15:30 11.31 4000 15100 (1957) 21 (2017) 2920 51 84 365 748 2120 3770 3910 7590 10500
2026-04-09 14:30 11.31 4000 15100 (1957) 21 (2017) 2920 51 84 365 748 2120 3770 3910 7590 10500
2026-04-09 13:30 11.31 4000 15100 (1957) 21 (2017) 2920 51 84 365 748 2120 3770 3910 7590 10500
2026-04-09 12:30 11.30 3990 15100 (1957) 21 (2017) 2920 51 84 365 748 2120 3770 3910 7590 10500
2026-04-09 11:30 11.28 3960 15100 (1957) 21 (2017) 2920 51 84 365 748 2120 3770 3910 7590 10500
2026-04-09 10:30 11.27 3950 15100 (1957) 21 (2017) 2920 51 84 365 748 2120 3770 3910 7590 10500
2026-04-09 09:30 11.25 3920 15100 (1957) 21 (2017) 2920 51 84 365 748 2120 3770 3910 7590 10500
2026-04-09 08:30 11.20 3860 15100 (1957) 21 (2017) 2920 51 84 365 748 2120 3770 3910 7590 10500
2026-04-09 07:30 10.90 3490 15100 (1957) 21 (2017) 2920 51 84 365 748 2120 3770 3910 7590 10500
2026-04-09 06:30 6.76 117 15100 (1957) 21 (2017) 2920 51 84 365 748 2120 3770 3910 7590 10500
2026-04-09 05:30 6.64 92 15100 (1957) 21 (2017) 2920 51 84 365 748 2120 3770 3910 7590 10500
2026-04-09 04:30 6.66 96 15100 (1957) 21 (2017) 2920 51 84 365 748 2120 3770 3910 7590 10500
2026-04-09 03:30 6.69 102 15100 (1957) 21 (2017) 2920 51 84 365 748 2120 3770 3910 7590 10500
2026-04-09 02:30 6.74 113 15100 (1957) 21 (2017) 2920 51 84 365 748 2120 3770 3910 7590 10500
2026-04-09 01:30 6.79 125 15100 (1957) 21 (2017) 2920 51 84 365 748 2120 3770 3910 7590 10500
2026-04-09 00:30 6.89 151 15100 (1957) 21 (2017) 2920 51 84 365 748 2120 3770 3910 7590 10500
2026-04-08 23:30 7.05 199 15100 (1957) 21 (2017) 2920 51 84 365 748 2120 3770 3910 7590 10500
2026-04-08 22:30 7.41 342 15700 (1957) 13 (2001) 3020 44 83 460 708 2140 3810 4070 8390 10700
2026-04-08 21:30 8.49 1040 15700 (1957) 13 (2001) 3020 44 83 460 708 2140 3810 4070 8390 10700
2026-04-08 20:30 10.78 3350 15700 (1957) 13 (2001) 3020 44 83 460 708 2140 3810 4070 8390 10700
2026-04-08 19:30 11.35 4050 15700 (1957) 13 (2001) 3020 44 83 460 708 2140 3810 4070 8390 10700
2026-04-08 18:30 11.35 4050 15700 (1957) 13 (2001) 3020 44 83 460 708 2140 3810 4070 8390 10700
2026-04-08 17:30 11.34 4040 15700 (1957) 13 (2001) 3020 44 83 460 708 2140 3810 4070 8390 10700
2026-04-08 16:30 11.35 4050 15700 (1957) 13 (2001) 3020 44 83 460 708 2140 3810 4070 8390 10700
2026-04-08 15:30 11.34 4040 15700 (1957) 13 (2001) 3020 44 83 460 708 2140 3810 4070 8390 10700
2026-04-08 14:30 11.33 4020 15700 (1957) 13 (2001) 3020 44 83 460 708 2140 3810 4070 8390 10700
2026-04-08 13:30 11.33 4020 15700 (1957) 13 (2001) 3020 44 83 460 708 2140 3810 4070 8390 10700
2026-04-08 12:30 11.32 4010 15700 (1957) 13 (2001) 3020 44 83 460 708 2140 3810 4070 8390 10700
2026-04-08 11:30 11.32 4010 15700 (1957) 13 (2001) 3020 44 83 460 708 2140 3810 4070 8390 10700
2026-04-08 10:30 11.32 4010 15700 (1957) 13 (2001) 3020 44 83 460 708 2140 3810 4070 8390 10700
2026-04-08 09:30 11.31 4000 15700 (1957) 13 (2001) 3020 44 83 460 708 2140 3810 4070 8390 10700
2026-04-08 08:30 11.29 3970 15700 (1957) 13 (2001) 3020 44 83 460 708 2140 3810 4070 8390 10700
2026-04-08 07:30 11.29 3970 15700 (1957) 13 (2001) 3020 44 83 460 708 2140 3810 4070 8390 10700
2026-04-08 06:30 11.25 3920 15700 (1957) 13 (2001) 3020 44 83 460 708 2140 3810 4070 8390 10700
2026-04-08 05:30 10.96 3560 15700 (1957) 13 (2001) 3020 44 83 460 708 2140 3810 4070 8390 10700
2026-04-08 04:30 6.86 142 15700 (1957) 13 (2001) 3020 44 83 460 708 2140 3810 4070 8390 10700
2026-04-08 03:30 6.74 113 15700 (1957) 13 (2001) 3020 44 83 460 708 2140 3810 4070 8390 10700
2026-04-08 02:30 6.80 127 15700 (1957) 13 (2001) 3020 44 83 460 708 2140 3810 4070 8390 10700
2026-04-08 01:30 6.89 151 15700 (1957) 13 (2001) 3020 44 83 460 708 2140 3810 4070 8390 10700
2026-04-08 00:30 7.05 199 15700 (1957) 13 (2001) 3020 44 83 460 708 2140 3810 4070 8390 10700
2026-04-07 23:30 7.41 342 15700 (1957) 13 (2001) 3020 44 83 460 708 2140 3810 4070 8390 10700
2026-04-07 22:30 8.51 1050 14900 (1957) 20 (2001) 3060 34 72 201 450 2220 3900 4190 8620 10900
2026-04-07 21:30 10.81 3390 14900 (1957) 20 (2001) 3060 34 72 201 450 2220 3900 4190 8620 10900
2026-04-07 20:30 11.39 4100 14900 (1957) 20 (2001) 3060 34 72 201 450 2220 3900 4190 8620 10900
2026-04-07 19:30 11.40 4110 14900 (1957) 20 (2001) 3060 34 72 201 450 2220 3900 4190 8620 10900
2026-04-07 18:30 11.38 4090 14900 (1957) 20 (2001) 3060 34 72 201 450 2220 3900 4190 8620 10900
2026-04-07 17:30 11.37 4080 14900 (1957) 20 (2001) 3060 34 72 201 450 2220 3900 4190 8620 10900
2026-04-07 16:30 11.37 4080 14900 (1957) 20 (2001) 3060 34 72 201 450 2220 3900 4190 8620 10900
2026-04-07 15:30 11.36 4060 14900 (1957) 20 (2001) 3060 34 72 201 450 2220 3900 4190 8620 10900
2026-04-07 14:30 11.34 4040 14900 (1957) 20 (2001) 3060 34 72 201 450 2220 3900 4190 8620 10900
2026-04-07 13:30 11.30 3990 14900 (1957) 20 (2001) 3060 34 72 201 450 2220 3900 4190 8620 10900
2026-04-07 12:30 11.30 3990 14900 (1957) 20 (2001) 3060 34 72 201 450 2220 3900 4190 8620 10900
2026-04-07 11:30 11.29 3970 14900 (1957) 20 (2001) 3060 34 72 201 450 2220 3900 4190 8620 10900
2026-04-07 10:30 11.29 3970 14900 (1957) 20 (2001) 3060 34 72 201 450 2220 3900 4190 8620 10900
2026-04-07 09:30 11.30 3990 14900 (1957) 20 (2001) 3060 34 72 201 450 2220 3900 4190 8620 10900
2026-04-07 08:30 11.26 3940 14900 (1957) 20 (2001) 3060 34 72 201 450 2220 3900 4190 8620 10900
2026-04-07 07:30 11.23 3900 14900 (1957) 20 (2001) 3060 34 72 201 450 2220 3900 4190 8620 10900
2026-04-07 06:30 10.92 3520 14900 (1957) 20 (2001) 3060 34 72 201 450 2220 3900 4190 8620 10900
2026-04-07 05:30 6.67 98 14900 (1957) 20 (2001) 3060 34 72 201 450 2220 3900 4190 8620 10900
2026-04-07 04:30 6.58 80 14900 (1957) 20 (2001) 3060 34 72 201 450 2220 3900 4190 8620 10900
2026-04-07 03:30 6.59 82 14900 (1957) 20 (2001) 3060 34 72 201 450 2220 3900 4190 8620 10900
2026-04-07 02:30 6.61 86 14900 (1957) 20 (2001) 3060 34 72 201 450 2220 3900 4190 8620 10900
2026-04-07 01:30 6.64 92 14900 (1957) 20 (2001) 3060 34 72 201 450 2220 3900 4190 8620 10900
2026-04-07 00:30 6.69 102 14900 (1957) 20 (2001) 3060 34 72 201 450 2220 3900 4190 8620 10900
2026-04-06 23:30 6.77 120 14900 (1957) 20 (2001) 3060 34 72 201 450 2220 3900 4190 8620 10900
2026-04-06 22:30 6.93 162 14900 (1957) 26 (1996) 3010 65 91 462 906 2180 3790 3960 7870 10300
2026-04-06 21:30 7.28 285 14900 (1957) 26 (1996) 3010 65 91 462 906 2180 3790 3960 7870 10300
2026-04-06 20:30 8.32 905 14900 (1957) 26 (1996) 3010 65 91 462 906 2180 3790 3960 7870 10300
2026-04-06 19:30 10.40 2910 14900 (1957) 26 (1996) 3010 65 91 462 906 2180 3790 3960 7870 10300
2026-04-06 18:30 6.78 122 14900 (1957) 26 (1996) 3010 65 91 462 906 2180 3790 3960 7870 10300
2026-04-06 17:30 6.67 98 14900 (1957) 26 (1996) 3010 65 91 462 906 2180 3790 3960 7870 10300
2026-04-06 16:30 6.70 104 14900 (1957) 26 (1996) 3010 65 91 462 906 2180 3790 3960 7870 10300
2026-04-06 15:30 6.75 115 14900 (1957) 26 (1996) 3010 65 91 462 906 2180 3790 3960 7870 10300
2026-04-06 14:30 6.84 137 14900 (1957) 26 (1996) 3010 65 91 462 906 2180 3790 3960 7870 10300
2026-04-06 13:30 7.01 186 14900 (1957) 26 (1996) 3010 65 91 462 906 2180 3790 3960 7870 10300
2026-04-06 12:30 7.37 324 14900 (1957) 26 (1996) 3010 65 91 462 906 2180 3790 3960 7870 10300
2026-04-06 11:30 8.45 1010 14900 (1957) 26 (1996) 3010 65 91 462 906 2180 3790 3960 7870 10300
2026-04-06 10:30 10.74 3300 14900 (1957) 26 (1996) 3010 65 91 462 906 2180 3790 3960 7870 10300
2026-04-06 09:30 11.28 3960 14900 (1957) 26 (1996) 3010 65 91 462 906 2180 3790 3960 7870 10300
2026-04-06 08:30 11.21 3870 14900 (1957) 26 (1996) 3010 65 91 462 906 2180 3790 3960 7870 10300
2026-04-06 07:30 10.91 3500 14900 (1957) 26 (1996) 3010 65 91 462 906 2180 3790 3960 7870 10300
2026-04-06 06:30 6.46 60 14900 (1957) 26 (1996) 3010 65 91 462 906 2180 3790 3960 7870 10300
2026-04-06 05:30 6.46 60 14900 (1957) 26 (1996) 3010 65 91 462 906 2180 3790 3960 7870 10300
2026-04-06 03:30 6.55 75 14900 (1957) 26 (1996) 3010 65 91 462 906 2180 3790 3960 7870 10300
2026-04-06 02:30 6.62 88 14900 (1957) 26 (1996) 3010 65 91 462 906 2180 3790 3960 7870 10300
2026-04-06 01:30 6.73 111 14900 (1957) 26 (1996) 3010 65 91 462 906 2180 3790 3960 7870 10300
2026-04-06 00:30 6.92 159 14900 (1957) 26 (1996) 3010 65 91 462 906 2180 3790 3960 7870 10300
2026-04-05 23:30 7.30 293 14900 (1957) 26 (1996) 3010 65 91 462 906 2180 3790 3960 7870 10300
2026-04-05 22:30 8.40 967 12100 (2020) 28 (2006) 2900 57 95 390 835 2430 3820 3880 7300 10400
2026-04-05 21:30 10.70 3250 12100 (2020) 28 (2006) 2900 57 95 390 835 2430 3820 3880 7300 10400
2026-04-05 20:30 11.20 3860 12100 (2020) 28 (2006) 2900 57 95 390 835 2430 3820 3880 7300 10400
2026-04-05 19:30 10.90 3490 12100 (2020) 28 (2006) 2900 57 95 390 835 2430 3820 3880 7300 10400
2026-04-05 18:30 6.50 66 12100 (2020) 28 (2006) 2900 57 95 390 835 2430 3820 3880 7300 10400
2026-04-05 17:30 6.50 66 12100 (2020) 28 (2006) 2900 57 95 390 835 2430 3820 3880 7300 10400
2026-04-05 16:30 6.55 75 12100 (2020) 28 (2006) 2900 57 95 390 835 2430 3820 3880 7300 10400
2026-04-05 15:30 6.62 88 12100 (2020) 28 (2006) 2900 57 95 390 835 2430 3820 3880 7300 10400
2026-04-05 14:30 6.73 111 12100 (2020) 28 (2006) 2900 57 95 390 835 2430 3820 3880 7300 10400
2026-04-05 13:30 6.92 159 12100 (2020) 28 (2006) 2900 57 95 390 835 2430 3820 3880 7300 10400
2026-04-05 12:30 7.31 297 12100 (2020) 28 (2006) 2900 57 95 390 835 2430 3820 3880 7300 10400
2026-04-05 11:30 8.40 967 12100 (2020) 28 (2006) 2900 57 95 390 835 2430 3820 3880 7300 10400
2026-04-05 10:30 10.71 3270 12100 (2020) 28 (2006) 2900 57 95 390 835 2430 3820 3880 7300 10400
2026-04-05 09:30 11.22 3890 12100 (2020) 28 (2006) 2900 57 95 390 835 2430 3820 3880 7300 10400
2026-04-05 08:30 10.92 3520 12100 (2020) 28 (2006) 2900 57 95 390 835 2430 3820 3880 7300 10400
2026-04-05 07:30 6.48 63 12100 (2020) 28 (2006) 2900 57 95 390 835 2430 3820 3880 7300 10400
2026-04-05 06:30 6.47 62 12100 (2020) 28 (2006) 2900 57 95 390 835 2430 3820 3880 7300 10400
2026-04-05 05:30 6.49 65 12100 (2020) 28 (2006) 2900 57 95 390 835 2430 3820 3880 7300 10400
2026-04-05 04:30 6.52 70 12100 (2020) 28 (2006) 2900 57 95 390 835 2430 3820 3880 7300 10400
2026-04-05 03:30 6.57 78 12100 (2020) 28 (2006) 2900 57 95 390 835 2430 3820 3880 7300 10400
2026-04-05 02:30 6.63 90 12100 (2020) 28 (2006) 2900 57 95 390 835 2430 3820 3880 7300 10400
2026-04-05 01:30 6.74 113 12100 (2020) 28 (2006) 2900 57 95 390 835 2430 3820 3880 7300 10400
2026-04-05 00:30 6.92 159 12100 (2020) 28 (2006) 2900 57 95 390 835 2430 3820 3880 7300 10400
2026-04-04 23:30 7.30 293 12100 (2020) 28 (2006) 2900 57 95 390 835 2430 3820 3880 7300 10400
2026-04-04 22:30 8.39 959 12100 (2020) 19 (2001) 2750 33 66 284 368 2180 3850 3960 6450 10500
2026-04-04 21:30 10.67 3220 12100 (2020) 19 (2001) 2750 33 66 284 368 2180 3850 3960 6450 10500
2026-04-04 20:30 11.07 3700 12100 (2020) 19 (2001) 2750 33 66 284 368 2180 3850 3960 6450 10500
2026-04-04 19:30 9.74 2180 12100 (2020) 19 (2001) 2750 33 66 284 368 2180 3850 3960 6450 10500
2026-04-04 18:30 6.43 56 12100 (2020) 19 (2001) 2750 33 66 284 368 2180 3850 3960 6450 10500
2026-04-04 17:30 6.44 57 12100 (2020) 19 (2001) 2750 33 66 284 368 2180 3850 3960 6450 10500
2026-04-04 16:30 6.47 62 12100 (2020) 19 (2001) 2750 33 66 284 368 2180 3850 3960 6450 10500
2026-04-04 15:30 6.49 65 12100 (2020) 19 (2001) 2750 33 66 284 368 2180 3850 3960 6450 10500
2026-04-04 14:30 6.53 71 12100 (2020) 19 (2001) 2750 33 66 284 368 2180 3850 3960 6450 10500
2026-04-04 13:30 6.55 75 12100 (2020) 19 (2001) 2750 33 66 284 368 2180 3850 3960 6450 10500
2026-04-04 12:30 6.59 82 12100 (2020) 19 (2001) 2750 33 66 284 368 2180 3850 3960 6450 10500
2026-04-04 11:30 6.60 84 12100 (2020) 19 (2001) 2750 33 66 284 368 2180 3850 3960 6450 10500
2026-04-04 10:30 6.58 80 12100 (2020) 19 (2001) 2750 33 66 284 368 2180 3850 3960 6450 10500
2026-04-04 09:30 6.50 66 12100 (2020) 19 (2001) 2750 33 66 284 368 2180 3850 3960 6450 10500
2026-04-04 08:30 6.45 59 12100 (2020) 19 (2001) 2750 33 66 284 368 2180 3850 3960 6450 10500
2026-04-04 07:30 6.44 57 12100 (2020) 19 (2001) 2750 33 66 284 368 2180 3850 3960 6450 10500
2026-04-04 06:30 6.43 56 12100 (2020) 19 (2001) 2750 33 66 284 368 2180 3850 3960 6450 10500
2026-04-04 05:30 6.43 56 12100 (2020) 19 (2001) 2750 33 66 284 368 2180 3850 3960 6450 10500
2026-04-04 04:30 6.45 59 12100 (2020) 19 (2001) 2750 33 66 284 368 2180 3850 3960 6450 10500
2026-04-04 03:30 6.49 65 12100 (2020) 19 (2001) 2750 33 66 284 368 2180 3850 3960 6450 10500
2026-04-04 02:30 6.53 71 12100 (2020) 19 (2001) 2750 33 66 284 368 2180 3850 3960 6450 10500
2026-04-04 01:30 6.59 82 12100 (2020) 19 (2001) 2750 33 66 284 368 2180 3850 3960 6450 10500
2026-04-04 00:30 6.55 75 12100 (2020) 19 (2001) 2750 33 66 284 368 2180 3850 3960 6450 10500
2026-04-03 23:30 6.67 98 12100 (2020) 19 (2001) 2750 33 66 284 368 2180 3850 3960 6450 10500
2026-04-03 22:30 6.87 145 12300 (2020) 22 (2011) 2920 45 101 245 501 2090 3790 3900 8180 10500
2026-04-03 21:30 7.27 280 12300 (2020) 22 (2011) 2920 45 101 245 501 2090 3790 3900 8180 10500
2026-04-03 20:30 8.38 951 12300 (2020) 22 (2011) 2920 45 101 245 501 2090 3790 3900 8180 10500
2026-04-03 19:30 10.70 3250 12300 (2020) 22 (2011) 2920 45 101 245 501 2090 3790 3900 8180 10500
2026-04-03 18:30 11.22 3890 12300 (2020) 22 (2011) 2920 45 101 245 501 2090 3790 3900 8180 10500
2026-04-03 17:30 10.88 3470 12300 (2020) 22 (2011) 2920 45 101 245 501 2090 3790 3900 8180 10500
2026-04-03 16:30 6.22 31 12300 (2020) 22 (2011) 2920 45 101 245 501 2090 3790 3900 8180 10500
2026-04-03 15:30 6.22 31 12300 (2020) 22 (2011) 2920 45 101 245 501 2090 3790 3900 8180 10500
2026-04-03 14:30 6.23 32 12300 (2020) 22 (2011) 2920 45 101 245 501 2090 3790 3900 8180 10500
2026-04-03 13:30 6.24 33 12300 (2020) 22 (2011) 2920 45 101 245 501 2090 3790 3900 8180 10500
2026-04-03 12:30 6.24 33 12300 (2020) 22 (2011) 2920 45 101 245 501 2090 3790 3900 8180 10500
2026-04-03 11:30 6.25 34 12300 (2020) 22 (2011) 2920 45 101 245 501 2090 3790 3900 8180 10500
2026-04-03 10:30 6.26 35 12300 (2020) 22 (2011) 2920 45 101 245 501 2090 3790 3900 8180 10500
2026-04-03 09:30 6.27 36 12300 (2020) 22 (2011) 2920 45 101 245 501 2090 3790 3900 8180 10500
2026-04-03 08:30 6.28 37 12300 (2020) 22 (2011) 2920 45 101 245 501 2090 3790 3900 8180 10500
2026-04-03 07:30 6.29 38 12300 (2020) 22 (2011) 2920 45 101 245 501 2090 3790 3900 8180 10500
2026-04-03 06:30 6.31 40 12300 (2020) 22 (2011) 2920 45 101 245 501 2090 3790 3900 8180 10500
2026-04-03 05:30 6.33 42 12300 (2020) 22 (2011) 2920 45 101 245 501 2090 3790 3900 8180 10500
2026-04-03 04:30 6.35 45 12300 (2020) 22 (2011) 2920 45 101 245 501 2090 3790 3900 8180 10500
2026-04-03 03:30 6.39 50 12300 (2020) 22 (2011) 2920 45 101 245 501 2090 3790 3900 8180 10500
2026-04-03 02:30 6.43 56 12300 (2020) 22 (2011) 2920 45 101 245 501 2090 3790 3900 8180 10500
2026-04-03 01:30 6.49 65 12300 (2020) 22 (2011) 2920 45 101 245 501 2090 3790 3900 8180 10500
2026-04-03 00:30 6.57 78 12300 (2020) 22 (2011) 2920 45 101 245 501 2090 3790 3900 8180 10500
2026-04-02 23:30 6.69 102 12300 (2020) 22 (2011) 2920 45 101 245 501 2090 3790 3900 8180 10500
2026-04-02 22:30 6.89 151 12000 (2020) 21 (2017) 2950 30 83 253 529 2380 3830 3960 6860 10400
2026-04-02 21:30 7.28 285 12000 (2020) 21 (2017) 2950 30 83 253 529 2380 3830 3960 6860 10400
2026-04-02 20:30 8.39 959 12000 (2020) 21 (2017) 2950 30 83 253 529 2380 3830 3960 6860 10400
2026-04-02 19:30 10.72 3280 12000 (2020) 21 (2017) 2950 30 83 253 529 2380 3830 3960 6860 10400
2026-04-02 18:30 11.25 3920 12000 (2020) 21 (2017) 2950 30 83 253 529 2380 3830 3960 6860 10400
2026-04-02 17:30 11.20 3860 12000 (2020) 21 (2017) 2950 30 83 253 529 2380 3830 3960 6860 10400
2026-04-02 16:30 10.90 3490 12000 (2020) 21 (2017) 2950 30 83 253 529 2380 3830 3960 6860 10400
2026-04-02 15:30 6.52 70 12000 (2020) 21 (2017) 2950 30 83 253 529 2380 3830 3960 6860 10400
2026-04-02 14:30 6.44 57 12000 (2020) 21 (2017) 2950 30 83 253 529 2380 3830 3960 6860 10400
2026-04-02 13:30 6.45 59 12000 (2020) 21 (2017) 2950 30 83 253 529 2380 3830 3960 6860 10400
2026-04-02 12:30 6.44 57 12000 (2020) 21 (2017) 2950 30 83 253 529 2380 3830 3960 6860 10400
2026-04-02 11:30 6.41 53 12000 (2020) 21 (2017) 2950 30 83 253 529 2380 3830 3960 6860 10400
2026-04-02 09:30 6.29 38 12000 (2020) 21 (2017) 2950 30 83 253 529 2380 3830 3960 6860 10400
2026-04-02 08:30 6.28 37 12000 (2020) 21 (2017) 2950 30 83 253 529 2380 3830 3960 6860 10400
2026-04-02 07:30 6.30 39 12000 (2020) 21 (2017) 2950 30 83 253 529 2380 3830 3960 6860 10400
2026-04-02 06:30 6.31 40 12000 (2020) 21 (2017) 2950 30 83 253 529 2380 3830 3960 6860 10400
2026-04-02 05:30 6.34 44 12000 (2020) 21 (2017) 2950 30 83 253 529 2380 3830 3960 6860 10400
2026-04-02 04:30 6.38 49 12000 (2020) 21 (2017) 2950 30 83 253 529 2380 3830 3960 6860 10400
2026-04-02 03:30 6.41 53 12000 (2020) 21 (2017) 2950 30 83 253 529 2380 3830 3960 6860 10400
2026-04-02 02:30 6.46 60 12000 (2020) 21 (2017) 2950 30 83 253 529 2380 3830 3960 6860 10400
2026-04-02 01:30 6.54 73 12000 (2020) 21 (2017) 2950 30 83 253 529 2380 3830 3960 6860 10400
2026-04-02 00:30 6.67 98 12000 (2020) 21 (2017) 2950 30 83 253 529 2380 3830 3960 6860 10400
2026-04-01 23:30 6.87 145 12000 (2020) 21 (2017) 2950 30 83 253 529 2380 3830 3960 6860 10400
2026-04-01 22:30 7.27 280 11700 (1975) 14 (2001) 2840 34 75 174 621 2210 3840 3920 6830 10200
2026-04-01 21:30 8.37 943 11700 (1975) 14 (2001) 2840 34 75 174 621 2210 3840 3920 6830 10200
2026-04-01 20:30 10.69 3240 11700 (1975) 14 (2001) 2840 34 75 174 621 2210 3840 3920 6830 10200
2026-04-01 19:30 11.22 3890 11700 (1975) 14 (2001) 2840 34 75 174 621 2210 3840 3920 6830 10200
2026-04-01 18:30 10.93 3530 11700 (1975) 14 (2001) 2840 34 75 174 621 2210 3840 3920 6830 10200
2026-04-01 17:30 6.50 66 11700 (1975) 14 (2001) 2840 34 75 174 621 2210 3840 3920 6830 10200
2026-04-01 16:30 6.45 59 11700 (1975) 14 (2001) 2840 34 75 174 621 2210 3840 3920 6830 10200
2026-04-01 15:30 6.44 57 11700 (1975) 14 (2001) 2840 34 75 174 621 2210 3840 3920 6830 10200
2026-04-01 14:30 6.45 59 11700 (1975) 14 (2001) 2840 34 75 174 621 2210 3840 3920 6830 10200
2026-04-01 13:30 6.45 59 11700 (1975) 14 (2001) 2840 34 75 174 621 2210 3840 3920 6830 10200
2026-04-01 12:30 6.45 59 11700 (1975) 14 (2001) 2840 34 75 174 621 2210 3840 3920 6830 10200
2026-04-01 11:30 6.41 53 11700 (1975) 14 (2001) 2840 34 75 174 621 2210 3840 3920 6830 10200
2026-04-01 10:30 6.37 47 11700 (1975) 14 (2001) 2840 34 75 174 621 2210 3840 3920 6830 10200
2026-04-01 09:30 6.30 39 11700 (1975) 14 (2001) 2840 34 75 174 621 2210 3840 3920 6830 10200
2026-04-01 08:30 6.28 37 11700 (1975) 14 (2001) 2840 34 75 174 621 2210 3840 3920 6830 10200
2026-04-01 07:30 6.30 39 11700 (1975) 14 (2001) 2840 34 75 174 621 2210 3840 3920 6830 10200
2026-04-01 06:30 6.32 41 11700 (1975) 14 (2001) 2840 34 75 174 621 2210 3840 3920 6830 10200
2026-04-01 05:30 6.34 44 11700 (1975) 14 (2001) 2840 34 75 174 621 2210 3840 3920 6830 10200
2026-04-01 04:30 6.38 49 11700 (1975) 14 (2001) 2840 34 75 174 621 2210 3840 3920 6830 10200
2026-04-01 03:30 6.42 54 11700 (1975) 14 (2001) 2840 34 75 174 621 2210 3840 3920 6830 10200
2026-04-01 02:30 6.48 63 11700 (1975) 14 (2001) 2840 34 75 174 621 2210 3840 3920 6830 10200
2026-04-01 01:30 6.56 77 11700 (1975) 14 (2001) 2840 34 75 174 621 2210 3840 3920 6830 10200
2026-04-01 00:30 6.68 100 11700 (1975) 14 (2001) 2840 34 75 174 621 2210 3840 3920 6830 10200
2026-03-31 23:30 6.88 148 11700 (1975) 14 (2001) 2840 34 75 174 621 2210 3840 3920 6830 10200
2026-03-31 22:30 7.28 285 11800 (1975) 34 (2006) 2830 74 126 412 815 2520 3730 3920 5560 9960
2026-03-31 21:30 8.38 951 11800 (1975) 34 (2006) 2830 74 126 412 815 2520 3730 3920 5560 9960
2026-03-31 20:30 10.70 3250 11800 (1975) 34 (2006) 2830 74 126 412 815 2520 3730 3920 5560 9960
2026-03-31 19:30 11.24 3910 11800 (1975) 34 (2006) 2830 74 126 412 815 2520 3730 3920 5560 9960
2026-03-31 18:30 11.20 3860 11800 (1975) 34 (2006) 2830 74 126 412 815 2520 3730 3920 5560 9960
2026-03-31 17:30 10.88 3470 11800 (1975) 34 (2006) 2830 74 126 412 815 2520 3730 3920 5560 9960
2026-03-31 16:30 6.51 68 11800 (1975) 34 (2006) 2830 74 126 412 815 2520 3730 3920 5560 9960
2026-03-31 15:30 6.44 57 11800 (1975) 34 (2006) 2830 74 126 412 815 2520 3730 3920 5560 9960
2026-03-31 14:30 6.46 60 11800 (1975) 34 (2006) 2830 74 126 412 815 2520 3730 3920 5560 9960
2026-03-31 13:30 6.45 59 11800 (1975) 34 (2006) 2830 74 126 412 815 2520 3730 3920 5560 9960
2026-03-31 12:30 6.45 59 11800 (1975) 34 (2006) 2830 74 126 412 815 2520 3730 3920 5560 9960
2026-03-31 11:30 6.43 56 11800 (1975) 34 (2006) 2830 74 126 412 815 2520 3730 3920 5560 9960
2026-03-31 10:30 6.39 50 11800 (1975) 34 (2006) 2830 74 126 412 815 2520 3730 3920 5560 9960
2026-03-31 09:30 6.31 40 11800 (1975) 34 (2006) 2830 74 126 412 815 2520 3730 3920 5560 9960
2026-03-31 08:30 6.28 37 11800 (1975) 34 (2006) 2830 74 126 412 815 2520 3730 3920 5560 9960
2026-03-31 07:30 6.29 38 11800 (1975) 34 (2006) 2830 74 126 412 815 2520 3730 3920 5560 9960
2026-03-31 06:30 6.32 41 11800 (1975) 34 (2006) 2830 74 126 412 815 2520 3730 3920 5560 9960
2026-03-31 05:30 6.34 44 11800 (1975) 34 (2006) 2830 74 126 412 815 2520 3730 3920 5560 9960
2026-03-31 04:30 6.38 49 11800 (1975) 34 (2006) 2830 74 126 412 815 2520 3730 3920 5560 9960
2026-03-31 03:30 6.42 54 11800 (1975) 34 (2006) 2830 74 126 412 815 2520 3730 3920 5560 9960
2026-03-31 02:30 6.48 63 11800 (1975) 34 (2006) 2830 74 126 412 815 2520 3730 3920 5560 9960
2026-03-31 01:30 6.56 77 11800 (1975) 34 (2006) 2830 74 126 412 815 2520 3730 3920 5560 9960
2026-03-31 00:30 6.69 102 11800 (1975) 34 (2006) 2830 74 126 412 815 2520 3730 3920 5560 9960
2026-03-30 23:30 6.89 151 11800 (1975) 34 (2006) 2830 74 126 412 815 2520 3730 3920 5560 9960
2026-03-30 22:30 7.29 289 11100 (1978) 37 (2003) 2730 65 112 551 707 2300 3810 4010 6220 7960
2026-03-30 21:30 8.40 967 11100 (1978) 37 (2003) 2730 65 112 551 707 2300 3810 4010 6220 7960
2026-03-30 20:30 10.74 3300 11100 (1978) 37 (2003) 2730 65 112 551 707 2300 3810 4010 6220 7960
2026-03-30 19:30 11.30 3990 11100 (1978) 37 (2003) 2730 65 112 551 707 2300 3810 4010 6220 7960
2026-03-30 18:30 11.25 3920 11100 (1978) 37 (2003) 2730 65 112 551 707 2300 3810 4010 6220 7960
2026-03-30 17:30 10.94 3540 11100 (1978) 37 (2003) 2730 65 112 551 707 2300 3810 4010 6220 7960
2026-03-30 16:30 6.51 68 11100 (1978) 37 (2003) 2730 65 112 551 707 2300 3810 4010 6220 7960
2026-03-30 15:30 6.45 59 11100 (1978) 37 (2003) 2730 65 112 551 707 2300 3810 4010 6220 7960
2026-03-30 14:30 6.47 62 11100 (1978) 37 (2003) 2730 65 112 551 707 2300 3810 4010 6220 7960
2026-03-30 13:30 6.45 59 11100 (1978) 37 (2003) 2730 65 112 551 707 2300 3810 4010 6220 7960
2026-03-30 12:30 6.45 59 11100 (1978) 37 (2003) 2730 65 112 551 707 2300 3810 4010 6220 7960
2026-03-30 11:30 6.43 56 11100 (1978) 37 (2003) 2730 65 112 551 707 2300 3810 4010 6220 7960
2026-03-30 10:30 6.37 47 11100 (1978) 37 (2003) 2730 65 112 551 707 2300 3810 4010 6220 7960
2026-03-30 09:30 6.30 39 11100 (1978) 37 (2003) 2730 65 112 551 707 2300 3810 4010 6220 7960
2026-03-30 08:30 6.27 36 11100 (1978) 37 (2003) 2730 65 112 551 707 2300 3810 4010 6220 7960
2026-03-30 07:30 6.28 37 11100 (1978) 37 (2003) 2730 65 112 551 707 2300 3810 4010 6220 7960
2026-03-30 06:30 6.30 39 11100 (1978) 37 (2003) 2730 65 112 551 707 2300 3810 4010 6220 7960
2026-03-30 05:30 6.32 41 11100 (1978) 37 (2003) 2730 65 112 551 707 2300 3810 4010 6220 7960
2026-03-30 04:30 6.36 46 11100 (1978) 37 (2003) 2730 65 112 551 707 2300 3810 4010 6220 7960
2026-03-30 03:30 6.40 51 11100 (1978) 37 (2003) 2730 65 112 551 707 2300 3810 4010 6220 7960
2026-03-30 02:30 6.46 60 11100 (1978) 37 (2003) 2730 65 112 551 707 2300 3810 4010 6220 7960
2026-03-30 01:30 6.54 73 11100 (1978) 37 (2003) 2730 65 112 551 707 2300 3810 4010 6220 7960
2026-03-30 00:30 6.66 96 11100 (1978) 37 (2003) 2730 65 112 551 707 2300 3810 4010 6220 7960
2026-03-29 23:30 6.86 142 11100 (1978) 37 (2003) 2730 65 112 551 707 2300 3810 4010 6220 7960
2026-03-29 22:30 7.26 276 11700 (2020) 28 (2006) 2670 44 84 187 599 2150 3580 4030 5570 10300
2026-03-29 21:30 8.37 943 11700 (2020) 28 (2006) 2670 44 84 187 599 2150 3580 4030 5570 10300
2026-03-29 20:30 10.69 3240 11700 (2020) 28 (2006) 2670 44 84 187 599 2150 3580 4030 5570 10300
2026-03-29 19:30 11.21 3870 11700 (2020) 28 (2006) 2670 44 84 187 599 2150 3580 4030 5570 10300
2026-03-29 18:30 10.87 3460 11700 (2020) 28 (2006) 2670 44 84 187 599 2150 3580 4030 5570 10300
2026-03-29 17:30 6.20 29 11700 (2020) 28 (2006) 2670 44 84 187 599 2150 3580 4030 5570 10300
2026-03-29 16:30 6.21 30 11700 (2020) 28 (2006) 2670 44 84 187 599 2150 3580 4030 5570 10300
2026-03-29 15:30 6.21 30 11700 (2020) 28 (2006) 2670 44 84 187 599 2150 3580 4030 5570 10300
2026-03-29 14:30 6.20 29 11700 (2020) 28 (2006) 2670 44 84 187 599 2150 3580 4030 5570 10300
2026-03-29 13:30 6.22 31 11700 (2020) 28 (2006) 2670 44 84 187 599 2150 3580 4030 5570 10300
2026-03-29 12:30 6.21 30 11700 (2020) 28 (2006) 2670 44 84 187 599 2150 3580 4030 5570 10300
2026-03-29 11:30 6.21 30 11700 (2020) 28 (2006) 2670 44 84 187 599 2150 3580 4030 5570 10300
2026-03-29 10:30 6.23 32 11700 (2020) 28 (2006) 2670 44 84 187 599 2150 3580 4030 5570 10300
2026-03-29 09:30 6.24 33 11700 (2020) 28 (2006) 2670 44 84 187 599 2150 3580 4030 5570 10300
2026-03-29 08:30 6.25 34 11700 (2020) 28 (2006) 2670 44 84 187 599 2150 3580 4030 5570 10300
2026-03-29 07:30 6.27 36 11700 (2020) 28 (2006) 2670 44 84 187 599 2150 3580 4030 5570 10300
2026-03-29 06:30 6.29 38 11700 (2020) 28 (2006) 2670 44 84 187 599 2150 3580 4030 5570 10300
2026-03-29 05:30 6.31 40 11700 (2020) 28 (2006) 2670 44 84 187 599 2150 3580 4030 5570 10300
2026-03-29 04:30 6.34 44 11700 (2020) 28 (2006) 2670 44 84 187 599 2150 3580 4030 5570 10300
2026-03-29 03:30 6.38 49 11700 (2020) 28 (2006) 2670 44 84 187 599 2150 3580 4030 5570 10300
2026-03-29 02:30 6.44 57 11700 (2020) 28 (2006) 2670 44 84 187 599 2150 3580 4030 5570 10300
2026-03-29 01:30 6.52 70 11700 (2020) 28 (2006) 2670 44 84 187 599 2150 3580 4030 5570 10300
2026-03-29 00:30 6.64 92 11700 (2020) 28 (2006) 2670 44 84 187 599 2150 3580 4030 5570 10300
2026-03-28 23:30 6.84 137 11700 (2020) 28 (2006) 2670 44 84 187 599 2150 3580 4030 5570 10300
2026-03-28 22:30 7.24 268 12200 (2023) 27 (2006) 2820 54 100 397 647 2150 3570 4060 6020 10900
2026-03-28 21:30 8.35 928 12200 (2023) 27 (2006) 2820 54 100 397 647 2150 3570 4060 6020 10900
2026-03-28 20:30 10.67 3220 12200 (2023) 27 (2006) 2820 54 100 397 647 2150 3570 4060 6020 10900
2026-03-28 19:30 10.90 3490 12200 (2023) 27 (2006) 2820 54 100 397 647 2150 3570 4060 6020 10900
2026-03-28 18:30 6.20 29 12200 (2023) 27 (2006) 2820 54 100 397 647 2150 3570 4060 6020 10900
2026-03-28 17:30 6.21 30 12200 (2023) 27 (2006) 2820 54 100 397 647 2150 3570 4060 6020 10900
2026-03-28 16:30 6.21 30 12200 (2023) 27 (2006) 2820 54 100 397 647 2150 3570 4060 6020 10900
2026-03-28 15:30 6.22 31 12200 (2023) 27 (2006) 2820 54 100 397 647 2150 3570 4060 6020 10900
2026-03-28 14:30 6.21 30 12200 (2023) 27 (2006) 2820 54 100 397 647 2150 3570 4060 6020 10900
2026-03-28 13:30 6.23 32 12200 (2023) 27 (2006) 2820 54 100 397 647 2150 3570 4060 6020 10900
2026-03-28 12:30 6.21 30 12200 (2023) 27 (2006) 2820 54 100 397 647 2150 3570 4060 6020 10900
2026-03-28 11:30 6.25 34 12200 (2023) 27 (2006) 2820 54 100 397 647 2150 3570 4060 6020 10900
2026-03-28 10:30 6.25 34 12200 (2023) 27 (2006) 2820 54 100 397 647 2150 3570 4060 6020 10900
2026-03-28 09:30 6.26 35 12200 (2023) 27 (2006) 2820 54 100 397 647 2150 3570 4060 6020 10900
2026-03-28 08:30 6.29 38 12200 (2023) 27 (2006) 2820 54 100 397 647 2150 3570 4060 6020 10900
2026-03-28 07:30 6.31 40 12200 (2023) 27 (2006) 2820 54 100 397 647 2150 3570 4060 6020 10900
2026-03-28 06:30 6.34 44 12200 (2023) 27 (2006) 2820 54 100 397 647 2150 3570 4060 6020 10900
2026-03-28 05:30 6.38 49 12200 (2023) 27 (2006) 2820 54 100 397 647 2150 3570 4060 6020 10900
2026-03-28 04:30 6.42 54 12200 (2023) 27 (2006) 2820 54 100 397 647 2150 3570 4060 6020 10900
2026-03-28 03:30 6.49 65 12200 (2023) 27 (2006) 2820 54 100 397 647 2150 3570 4060 6020 10900
2026-03-28 02:30 6.59 82 12200 (2023) 27 (2006) 2820 54 100 397 647 2150 3570 4060 6020 10900
2026-03-28 01:30 6.75 115 12200 (2023) 27 (2006) 2820 54 100 397 647 2150 3570 4060 6020 10900
2026-03-28 00:30 7.04 196 12200 (2023) 27 (2006) 2820 54 100 397 647 2150 3570 4060 6020 10900
2026-03-27 23:30 7.71 503 12200 (2023) 27 (2006) 2820 54 100 397 647 2150 3570 4060 6020 10900
2026-03-27 22:30 9.22 1670 11800 (2020) 21 (2011) 2670 36 112 314 666 1850 3630 4160 6210 10300
2026-03-27 21:30 10.76 3330 11800 (2020) 21 (2011) 2670 36 112 314 666 1850 3630 4160 6210 10300
2026-03-27 20:30 11.02 3640 11800 (2020) 21 (2011) 2670 36 112 314 666 1850 3630 4160 6210 10300
2026-03-27 19:30 10.88 3470 11800 (2020) 21 (2011) 2670 36 112 314 666 1850 3630 4160 6210 10300
2026-03-27 18:30 6.20 29 11800 (2020) 21 (2011) 2670 36 112 314 666 1850 3630 4160 6210 10300
2026-03-27 17:30 6.20 29 11800 (2020) 21 (2011) 2670 36 112 314 666 1850 3630 4160 6210 10300
2026-03-27 16:30 6.21 30 11800 (2020) 21 (2011) 2670 36 112 314 666 1850 3630 4160 6210 10300
2026-03-27 15:30 6.21 30 11800 (2020) 21 (2011) 2670 36 112 314 666 1850 3630 4160 6210 10300
2026-03-27 14:30 6.21 30 11800 (2020) 21 (2011) 2670 36 112 314 666 1850 3630 4160 6210 10300
2026-03-27 13:30 6.23 32 11800 (2020) 21 (2011) 2670 36 112 314 666 1850 3630 4160 6210 10300
2026-03-27 12:30 6.23 32 11800 (2020) 21 (2011) 2670 36 112 314 666 1850 3630 4160 6210 10300
2026-03-27 11:30 6.24 33 11800 (2020) 21 (2011) 2670 36 112 314 666 1850 3630 4160 6210 10300
2026-03-27 10:30 6.26 35 11800 (2020) 21 (2011) 2670 36 112 314 666 1850 3630 4160 6210 10300
2026-03-27 09:30 6.28 37 11800 (2020) 21 (2011) 2670 36 112 314 666 1850 3630 4160 6210 10300
2026-03-27 08:30 6.30 39 11800 (2020) 21 (2011) 2670 36 112 314 666 1850 3630 4160 6210 10300
2026-03-27 07:30 6.31 40 11800 (2020) 21 (2011) 2670 36 112 314 666 1850 3630 4160 6210 10300
2026-03-27 06:30 6.34 44 11800 (2020) 21 (2011) 2670 36 112 314 666 1850 3630 4160 6210 10300
2026-03-27 05:30 6.36 46 11800 (2020) 21 (2011) 2670 36 112 314 666 1850 3630 4160 6210 10300
2026-03-27 04:30 6.39 50 11800 (2020) 21 (2011) 2670 36 112 314 666 1850 3630 4160 6210 10300
2026-03-27 03:30 6.44 57 11800 (2020) 21 (2011) 2670 36 112 314 666 1850 3630 4160 6210 10300
2026-03-27 02:30 6.50 66 11800 (2020) 21 (2011) 2670 36 112 314 666 1850 3630 4160 6210 10300
2026-03-27 01:30 6.58 80 11800 (2020) 21 (2011) 2670 36 112 314 666 1850 3630 4160 6210 10300
2026-03-27 00:30 6.70 104 11800 (2020) 21 (2011) 2670 36 112 314 666 1850 3630 4160 6210 10300
2026-03-26 23:30 6.90 153 11800 (2020) 21 (2011) 2670 36 112 314 666 1850 3630 4160 6210 10300
2026-03-26 22:30 7.30 293 10600 (2008) 10 (2013) 2570 29 48 190 367 1930 3620 3940 7700 9080
2026-03-26 21:30 8.40 967 10600 (2008) 10 (2013) 2570 29 48 190 367 1930 3620 3940 7700 9080
2026-03-26 20:30 10.73 3290 10600 (2008) 10 (2013) 2570 29 48 190 367 1930 3620 3940 7700 9080
2026-03-26 19:30 11.29 3970 10600 (2008) 10 (2013) 2570 29 48 190 367 1930 3620 3940 7700 9080
2026-03-26 18:30 11.28 3960 10600 (2008) 10 (2013) 2570 29 48 190 367 1930 3620 3940 7700 9080
2026-03-26 17:30 11.21 3870 10600 (2008) 10 (2013) 2570 29 48 190 367 1930 3620 3940 7700 9080
2026-03-26 16:30 10.93 3530 10600 (2008) 10 (2013) 2570 29 48 190 367 1930 3620 3940 7700 9080
2026-03-26 15:30 6.51 68 10600 (2008) 10 (2013) 2570 29 48 190 367 1930 3620 3940 7700 9080
2026-03-26 14:30 6.45 59 10600 (2008) 10 (2013) 2570 29 48 190 367 1930 3620 3940 7700 9080
2026-03-26 13:30 6.44 57 10600 (2008) 10 (2013) 2570 29 48 190 367 1930 3620 3940 7700 9080
2026-03-26 12:30 6.45 59 10600 (2008) 10 (2013) 2570 29 48 190 367 1930 3620 3940 7700 9080
2026-03-26 11:30 6.41 53 10600 (2008) 10 (2013) 2570 29 48 190 367 1930 3620 3940 7700 9080
2026-03-26 10:30 6.35 45 10600 (2008) 10 (2013) 2570 29 48 190 367 1930 3620 3940 7700 9080
2026-03-26 09:30 6.31 40 10600 (2008) 10 (2013) 2570 29 48 190 367 1930 3620 3940 7700 9080
2026-03-26 08:30 6.29 38 10600 (2008) 10 (2013) 2570 29 48 190 367 1930 3620 3940 7700 9080
2026-03-26 07:30 6.31 40 10600 (2008) 10 (2013) 2570 29 48 190 367 1930 3620 3940 7700 9080
2026-03-26 06:30 6.34 44 10600 (2008) 10 (2013) 2570 29 48 190 367 1930 3620 3940 7700 9080
2026-03-26 05:30 6.36 46 10600 (2008) 10 (2013) 2570 29 48 190 367 1930 3620 3940 7700 9080
2026-03-26 04:30 6.39 50 10600 (2008) 10 (2013) 2570 29 48 190 367 1930 3620 3940 7700 9080
2026-03-26 03:30 6.44 57 10600 (2008) 10 (2013) 2570 29 48 190 367 1930 3620 3940 7700 9080
2026-03-26 02:30 6.50 66 10600 (2008) 10 (2013) 2570 29 48 190 367 1930 3620 3940 7700 9080
2026-03-26 01:30 6.58 80 10600 (2008) 10 (2013) 2570 29 48 190 367 1930 3620 3940 7700 9080
2026-03-26 00:30 6.70 104 10600 (2008) 10 (2013) 2570 29 48 190 367 1930 3620 3940 7700 9080
2026-03-25 23:30 6.90 153 10600 (2008) 10 (2013) 2570 29 48 190 367 1930 3620 3940 7700 9080
2026-03-25 22:30 7.29 289 10800 (1968) 5 (2013) 2580 31 45 221 666 1940 3730 3920 7730 8250
2026-03-25 21:30 8.40 967 10800 (1968) 5 (2013) 2580 31 45 221 666 1940 3730 3920 7730 8250
2026-03-25 20:30 10.72 3280 10800 (1968) 5 (2013) 2580 31 45 221 666 1940 3730 3920 7730 8250
2026-03-25 19:30 11.28 3960 10800 (1968) 5 (2013) 2580 31 45 221 666 1940 3730 3920 7730 8250
2026-03-25 18:30 11.28 3960 10800 (1968) 5 (2013) 2580 31 45 221 666 1940 3730 3920 7730 8250
2026-03-25 17:30 11.22 3890 10800 (1968) 5 (2013) 2580 31 45 221 666 1940 3730 3920 7730 8250
2026-03-25 16:30 10.94 3540 10800 (1968) 5 (2013) 2580 31 45 221 666 1940 3730 3920 7730 8250
2026-03-25 15:30 6.52 70 10800 (1968) 5 (2013) 2580 31 45 221 666 1940 3730 3920 7730 8250
2026-03-25 14:30 6.45 59 10800 (1968) 5 (2013) 2580 31 45 221 666 1940 3730 3920 7730 8250
2026-03-25 13:30 6.45 59 10800 (1968) 5 (2013) 2580 31 45 221 666 1940 3730 3920 7730 8250
2026-03-25 12:30 6.45 59 10800 (1968) 5 (2013) 2580 31 45 221 666 1940 3730 3920 7730 8250
2026-03-25 11:30 6.44 57 10800 (1968) 5 (2013) 2580 31 45 221 666 1940 3730 3920 7730 8250
2026-03-25 10:30 6.39 50 10800 (1968) 5 (2013) 2580 31 45 221 666 1940 3730 3920 7730 8250
2026-03-25 09:30 6.33 42 10800 (1968) 5 (2013) 2580 31 45 221 666 1940 3730 3920 7730 8250
2026-03-25 08:30 6.30 39 10800 (1968) 5 (2013) 2580 31 45 221 666 1940 3730 3920 7730 8250
2026-03-25 07:30 6.30 39 10800 (1968) 5 (2013) 2580 31 45 221 666 1940 3730 3920 7730 8250
2026-03-25 06:30 6.32 41 10800 (1968) 5 (2013) 2580 31 45 221 666 1940 3730 3920 7730 8250
2026-03-25 05:30 6.35 45 10800 (1968) 5 (2013) 2580 31 45 221 666 1940 3730 3920 7730 8250
2026-03-25 04:30 6.38 49 10800 (1968) 5 (2013) 2580 31 45 221 666 1940 3730 3920 7730 8250
2026-03-25 03:30 6.42 54 10800 (1968) 5 (2013) 2580 31 45 221 666 1940 3730 3920 7730 8250
2026-03-25 02:30 6.48 63 10800 (1968) 5 (2013) 2580 31 45 221 666 1940 3730 3920 7730 8250
2026-03-25 01:30 6.56 77 10800 (1968) 5 (2013) 2580 31 45 221 666 1940 3730 3920 7730 8250
2026-03-25 00:30 6.68 100 10800 (1968) 5 (2013) 2580 31 45 221 666 1940 3730 3920 7730 8250
2026-03-24 23:30 6.88 148 10800 (1968) 5 (2013) 2580 31 45 221 666 1940 3730 3920 7730 8250
2026-03-24 22:30 7.27 280 10900 (2008) 5 (2013) 2390 29 67 163 331 1860 3560 3800 5340 8320
2026-03-24 21:30 8.37 943 10900 (2008) 5 (2013) 2390 29 67 163 331 1860 3560 3800 5340 8320
2026-03-24 20:30 10.68 3230 10900 (2008) 5 (2013) 2390 29 67 163 331 1860 3560 3800 5340 8320
2026-03-24 19:30 11.20 3860 10900 (2008) 5 (2013) 2390 29 67 163 331 1860 3560 3800 5340 8320
2026-03-24 18:30 10.90 3490 10900 (2008) 5 (2013) 2390 29 67 163 331 1860 3560 3800 5340 8320
2026-03-24 17:30 6.56 77 10900 (2008) 5 (2013) 2390 29 67 163 331 1860 3560 3800 5340 8320
2026-03-24 16:30 6.54 73 10900 (2008) 5 (2013) 2390 29 67 163 331 1860 3560 3800 5340 8320
2026-03-24 15:30 6.58 80 10900 (2008) 5 (2013) 2390 29 67 163 331 1860 3560 3800 5340 8320
2026-03-24 14:30 6.63 90 10900 (2008) 5 (2013) 2390 29 67 163 331 1860 3560 3800 5340 8320
2026-03-24 13:30 6.72 108 10900 (2008) 5 (2013) 2390 29 67 163 331 1860 3560 3800 5340 8320
2026-03-24 12:30 6.87 145 10900 (2008) 5 (2013) 2390 29 67 163 331 1860 3560 3800 5340 8320
2026-03-24 11:30 7.17 241 10900 (2008) 5 (2013) 2390 29 67 163 331 1860 3560 3800 5340 8320
2026-03-24 10:30 8.00 686 10900 (2008) 5 (2013) 2390 29 67 163 331 1860 3560 3800 5340 8320
2026-03-24 09:30 9.78 2220 10900 (2008) 5 (2013) 2390 29 67 163 331 1860 3560 3800 5340 8320
2026-03-24 08:30 10.91 3500 10900 (2008) 5 (2013) 2390 29 67 163 331 1860 3560 3800 5340 8320
2026-03-24 07:30 10.87 3460 10900 (2008) 5 (2013) 2390 29 67 163 331 1860 3560 3800 5340 8320
2026-03-24 06:30 6.31 40 10900 (2008) 5 (2013) 2390 29 67 163 331 1860 3560 3800 5340 8320
2026-03-24 05:30 6.33 42 10900 (2008) 5 (2013) 2390 29 67 163 331 1860 3560 3800 5340 8320
2026-03-24 04:30 6.36 46 10900 (2008) 5 (2013) 2390 29 67 163 331 1860 3560 3800 5340 8320
2026-03-24 03:30 6.41 53 10900 (2008) 5 (2013) 2390 29 67 163 331 1860 3560 3800 5340 8320
2026-03-24 02:30 6.46 60 10900 (2008) 5 (2013) 2390 29 67 163 331 1860 3560 3800 5340 8320
2026-03-24 01:30 6.54 73 10900 (2008) 5 (2013) 2390 29 67 163 331 1860 3560 3800 5340 8320
2026-03-24 00:30 6.66 96 10900 (2008) 5 (2013) 2390 29 67 163 331 1860 3560 3800 5340 8320
2026-03-23 23:30 6.86 142 10900 (2008) 5 (2013) 2390 29 67 163 331 1860 3560 3800 5340 8320
2026-03-23 22:30 7.26 276 11000 (2008) 5 (2013) 2130 32 60 159 363 1430 3150 3530 4070 8180
2026-03-23 21:30 8.37 943 11000 (2008) 5 (2013) 2130 32 60 159 363 1430 3150 3530 4070 8180
2026-03-23 20:30 10.70 3250 11000 (2008) 5 (2013) 2130 32 60 159 363 1430 3150 3530 4070 8180
2026-03-23 19:30 11.21 3870 11000 (2008) 5 (2013) 2130 32 60 159 363 1430 3150 3530 4070 8180
2026-03-23 18:30 10.90 3490 11000 (2008) 5 (2013) 2130 32 60 159 363 1430 3150 3530 4070 8180
2026-03-23 17:30 6.46 60 11000 (2008) 5 (2013) 2130 32 60 159 363 1430 3150 3530 4070 8180
2026-03-23 16:30 6.44 57 11000 (2008) 5 (2013) 2130 32 60 159 363 1430 3150 3530 4070 8180
2026-03-23 15:30 6.44 57 11000 (2008) 5 (2013) 2130 32 60 159 363 1430 3150 3530 4070 8180
2026-03-23 14:30 6.44 57 11000 (2008) 5 (2013) 2130 32 60 159 363 1430 3150 3530 4070 8180
2026-03-23 13:30 6.43 56 11000 (2008) 5 (2013) 2130 32 60 159 363 1430 3150 3530 4070 8180
2026-03-23 12:30 6.43 56 11000 (2008) 5 (2013) 2130 32 60 159 363 1430 3150 3530 4070 8180
2026-03-23 11:30 6.41 53 11000 (2008) 5 (2013) 2130 32 60 159 363 1430 3150 3530 4070 8180
2026-03-23 10:30 6.36 46 11000 (2008) 5 (2013) 2130 32 60 159 363 1430 3150 3530 4070 8180
2026-03-23 09:30 6.29 38 11000 (2008) 5 (2013) 2130 32 60 159 363 1430 3150 3530 4070 8180
2026-03-23 08:30 6.25 34 11000 (2008) 5 (2013) 2130 32 60 159 363 1430 3150 3530 4070 8180
2026-03-23 07:30 6.25 34 11000 (2008) 5 (2013) 2130 32 60 159 363 1430 3150 3530 4070 8180
2026-03-23 06:30 6.26 35 11000 (2008) 5 (2013) 2130 32 60 159 363 1430 3150 3530 4070 8180
2026-03-23 05:30 6.28 37 11000 (2008) 5 (2013) 2130 32 60 159 363 1430 3150 3530 4070 8180
2026-03-23 04:30 6.30 39 11000 (2008) 5 (2013) 2130 32 60 159 363 1430 3150 3530 4070 8180
2026-03-23 03:30 6.33 42 11000 (2008) 5 (2013) 2130 32 60 159 363 1430 3150 3530 4070 8180
2026-03-23 02:30 6.36 46 11000 (2008) 5 (2013) 2130 32 60 159 363 1430 3150 3530 4070 8180
2026-03-23 01:30 6.40 51 11000 (2008) 5 (2013) 2130 32 60 159 363 1430 3150 3530 4070 8180
2026-03-23 00:30 6.46 60 11000 (2008) 5 (2013) 2130 32 60 159 363 1430 3150 3530 4070 8180
2026-03-22 23:30 6.54 73 11000 (2008) 5 (2013) 2130 32 60 159 363 1430 3150 3530 4070 8180
2026-03-22 22:30 6.66 96 11100 (2008) 6 (2013) 2070 30 93 219 469 1580 3040 3140 4040 8230
2026-03-22 21:30 6.86 142 11100 (2008) 6 (2013) 2070 30 93 219 469 1580 3040 3140 4040 8230
2026-03-22 20:30 7.25 272 11100 (2008) 6 (2013) 2070 30 93 219 469 1580 3040 3140 4040 8230
2026-03-22 19:30 8.33 913 11100 (2008) 6 (2013) 2070 30 93 219 469 1580 3040 3140 4040 8230
2026-03-22 18:30 10.56 3090 11100 (2008) 6 (2013) 2070 30 93 219 469 1580 3040 3140 4040 8230
2026-03-22 17:30 10.08 2550 11100 (2008) 6 (2013) 2070 30 93 219 469 1580 3040 3140 4040 8230
2026-03-22 16:30 9.76 2200 11100 (2008) 6 (2013) 2070 30 93 219 469 1580 3040 3140 4040 8230
2026-03-22 15:30 9.72 2160 11100 (2008) 6 (2013) 2070 30 93 219 469 1580 3040 3140 4040 8230
2026-03-22 14:30 9.35 1790 11100 (2008) 6 (2013) 2070 30 93 219 469 1580 3040 3140 4040 8230
2026-03-22 13:30 6.25 34 11100 (2008) 6 (2013) 2070 30 93 219 469 1580 3040 3140 4040 8230
2026-03-22 12:30 6.25 34 11100 (2008) 6 (2013) 2070 30 93 219 469 1580 3040 3140 4040 8230
2026-03-22 11:30 6.26 35 11100 (2008) 6 (2013) 2070 30 93 219 469 1580 3040 3140 4040 8230
2026-03-22 10:30 6.27 36 11100 (2008) 6 (2013) 2070 30 93 219 469 1580 3040 3140 4040 8230
2026-03-22 09:30 6.27 36 11100 (2008) 6 (2013) 2070 30 93 219 469 1580 3040 3140 4040 8230
2026-03-22 08:30 6.28 37 11100 (2008) 6 (2013) 2070 30 93 219 469 1580 3040 3140 4040 8230
2026-03-22 07:30 6.30 39 11100 (2008) 6 (2013) 2070 30 93 219 469 1580 3040 3140 4040 8230
2026-03-22 06:30 6.31 40 11100 (2008) 6 (2013) 2070 30 93 219 469 1580 3040 3140 4040 8230
2026-03-22 05:30 6.34 44 11100 (2008) 6 (2013) 2070 30 93 219 469 1580 3040 3140 4040 8230
2026-03-22 04:30 6.36 46 11100 (2008) 6 (2013) 2070 30 93 219 469 1580 3040 3140 4040 8230
2026-03-22 03:30 6.40 51 11100 (2008) 6 (2013) 2070 30 93 219 469 1580 3040 3140 4040 8230
2026-03-22 02:30 6.44 57 11100 (2008) 6 (2013) 2070 30 93 219 469 1580 3040 3140 4040 8230
2026-03-22 01:30 6.50 66 11100 (2008) 6 (2013) 2070 30 93 219 469 1580 3040 3140 4040 8230
2026-03-22 00:30 6.58 80 11100 (2008) 6 (2013) 2070 30 93 219 469 1580 3040 3140 4040 8230
2026-03-21 23:30 6.70 104 11100 (2008) 6 (2013) 2070 30 93 219 469 1580 3040 3140 4040 8230
2026-03-21 22:30 6.89 151 10300 (1975) 6 (2013) 1960 32 49 130 165 1550 2900 3180 3990 8340
2026-03-21 21:30 7.29 289 10300 (1975) 6 (2013) 1960 32 49 130 165 1550 2900 3180 3990 8340
2026-03-21 20:30 8.40 967 10300 (1975) 6 (2013) 1960 32 49 130 165 1550 2900 3180 3990 8340
2026-03-21 19:30 10.72 3280 10300 (1975) 6 (2013) 1960 32 49 130 165 1550 2900 3180 3990 8340
2026-03-21 18:30 11.28 3960 10300 (1975) 6 (2013) 1960 32 49 130 165 1550 2900 3180 3990 8340
2026-03-21 17:30 11.23 3900 10300 (1975) 6 (2013) 1960 32 49 130 165 1550 2900 3180 3990 8340
2026-03-21 16:30 11.06 3690 10300 (1975) 6 (2013) 1960 32 49 130 165 1550 2900 3180 3990 8340
2026-03-21 15:30 9.72 2160 10300 (1975) 6 (2013) 1960 32 49 130 165 1550 2900 3180 3990 8340
2026-03-21 14:30 6.24 33 10300 (1975) 6 (2013) 1960 32 49 130 165 1550 2900 3180 3990 8340
2026-03-21 13:30 6.25 34 10300 (1975) 6 (2013) 1960 32 49 130 165 1550 2900 3180 3990 8340
2026-03-21 12:30 6.25 34 10300 (1975) 6 (2013) 1960 32 49 130 165 1550 2900 3180 3990 8340
2026-03-21 11:30 6.26 35 10300 (1975) 6 (2013) 1960 32 49 130 165 1550 2900 3180 3990 8340
2026-03-21 10:30 6.28 37 10300 (1975) 6 (2013) 1960 32 49 130 165 1550 2900 3180 3990 8340
2026-03-21 09:30 6.29 38 10300 (1975) 6 (2013) 1960 32 49 130 165 1550 2900 3180 3990 8340
2026-03-21 08:30 6.30 39 10300 (1975) 6 (2013) 1960 32 49 130 165 1550 2900 3180 3990 8340
2026-03-21 07:30 6.32 41 10300 (1975) 6 (2013) 1960 32 49 130 165 1550 2900 3180 3990 8340
2026-03-21 06:30 6.34 44 10300 (1975) 6 (2013) 1960 32 49 130 165 1550 2900 3180 3990 8340
2026-03-21 05:30 6.36 46 10300 (1975) 6 (2013) 1960 32 49 130 165 1550 2900 3180 3990 8340
2026-03-21 04:30 6.40 51 10300 (1975) 6 (2013) 1960 32 49 130 165 1550 2900 3180 3990 8340
2026-03-21 03:30 6.44 57 10300 (1975) 6 (2013) 1960 32 49 130 165 1550 2900 3180 3990 8340
2026-03-21 02:30 6.50 66 10300 (1975) 6 (2013) 1960 32 49 130 165 1550 2900 3180 3990 8340
2026-03-21 01:30 6.58 80 10300 (1975) 6 (2013) 1960 32 49 130 165 1550 2900 3180 3990 8340
2026-03-21 00:30 6.70 104 10300 (1975) 6 (2013) 1960 32 49 130 165 1550 2900 3180 3990 8340
2026-03-20 23:30 6.90 153 10300 (1975) 6 (2013) 1960 32 49 130 165 1550 2900 3180 3990 8340
2026-03-20 22:30 7.29 289 10200 (1975) 6 (2013) 1810 34 50 145 305 1190 2550 3520 4170 5660
2026-03-20 21:30 8.40 967 10200 (1975) 6 (2013) 1810 34 50 145 305 1190 2550 3520 4170 5660
2026-03-20 20:30 10.72 3280 10200 (1975) 6 (2013) 1810 34 50 145 305 1190 2550 3520 4170 5660
2026-03-20 19:30 11.27 3950 10200 (1975) 6 (2013) 1810 34 50 145 305 1190 2550 3520 4170 5660
2026-03-20 18:30 11.27 3950 10200 (1975) 6 (2013) 1810 34 50 145 305 1190 2550 3520 4170 5660
2026-03-20 17:30 11.20 3860 10200 (1975) 6 (2013) 1810 34 50 145 305 1190 2550 3520 4170 5660
2026-03-20 16:30 10.82 3400 10200 (1975) 6 (2013) 1810 34 50 145 305 1190 2550 3520 4170 5660
2026-03-20 15:30 6.23 32 10200 (1975) 6 (2013) 1810 34 50 145 305 1190 2550 3520 4170 5660
2026-03-20 14:30 6.23 32 10200 (1975) 6 (2013) 1810 34 50 145 305 1190 2550 3520 4170 5660
2026-03-20 13:30 6.24 33 10200 (1975) 6 (2013) 1810 34 50 145 305 1190 2550 3520 4170 5660
2026-03-20 12:30 6.25 34 10200 (1975) 6 (2013) 1810 34 50 145 305 1190 2550 3520 4170 5660
2026-03-20 11:30 6.25 34 10200 (1975) 6 (2013) 1810 34 50 145 305 1190 2550 3520 4170 5660
2026-03-20 10:30 6.26 35 10200 (1975) 6 (2013) 1810 34 50 145 305 1190 2550 3520 4170 5660
2026-03-20 09:30 6.27 36 10200 (1975) 6 (2013) 1810 34 50 145 305 1190 2550 3520 4170 5660
2026-03-20 08:30 6.28 37 10200 (1975) 6 (2013) 1810 34 50 145 305 1190 2550 3520 4170 5660
2026-03-20 07:30 6.30 39 10200 (1975) 6 (2013) 1810 34 50 145 305 1190 2550 3520 4170 5660
2026-03-20 06:30 6.31 40 10200 (1975) 6 (2013) 1810 34 50 145 305 1190 2550 3520 4170 5660
2026-03-20 05:30 6.34 44 10200 (1975) 6 (2013) 1810 34 50 145 305 1190 2550 3520 4170 5660
2026-03-20 04:30 6.37 47 10200 (1975) 6 (2013) 1810 34 50 145 305 1190 2550 3520 4170 5660
2026-03-20 03:30 6.41 53 10200 (1975) 6 (2013) 1810 34 50 145 305 1190 2550 3520 4170 5660
2026-03-20 02:30 6.47 62 10200 (1975) 6 (2013) 1810 34 50 145 305 1190 2550 3520 4170 5660
2026-03-20 01:30 6.55 75 10200 (1975) 6 (2013) 1810 34 50 145 305 1190 2550 3520 4170 5660
2026-03-20 00:30 6.67 98 10200 (1975) 6 (2013) 1810 34 50 145 305 1190 2550 3520 4170 5660
2026-03-19 23:30 6.87 145 10200 (1975) 6 (2013) 1810 34 50 145 305 1190 2550 3520 4170 5660
2026-03-19 22:30 7.27 280 8130 (1975) 6 (2013) 1830 30 46 127 244 1280 2950 3240 4160 5420
2026-03-19 21:30 8.38 951 8130 (1975) 6 (2013) 1830 30 46 127 244 1280 2950 3240 4160 5420
2026-03-19 20:30 10.71 3270 8130 (1975) 6 (2013) 1830 30 46 127 244 1280 2950 3240 4160 5420
2026-03-19 19:30 11.24 3910 8130 (1975) 6 (2013) 1830 30 46 127 244 1280 2950 3240 4160 5420
2026-03-19 18:30 10.93 3530 8130 (1975) 6 (2013) 1830 30 46 127 244 1280 2950 3240 4160 5420
2026-03-19 17:30 6.51 68 8130 (1975) 6 (2013) 1830 30 46 127 244 1280 2950 3240 4160 5420
2026-03-19 16:30 6.48 63 8130 (1975) 6 (2013) 1830 30 46 127 244 1280 2950 3240 4160 5420
2026-03-19 15:30 6.48 63 8130 (1975) 6 (2013) 1830 30 46 127 244 1280 2950 3240 4160 5420
2026-03-19 14:30 6.48 63 8130 (1975) 6 (2013) 1830 30 46 127 244 1280 2950 3240 4160 5420
2026-03-19 13:30 6.48 63 8130 (1975) 6 (2013) 1830 30 46 127 244 1280 2950 3240 4160 5420
2026-03-19 12:30 6.48 63 8130 (1975) 6 (2013) 1830 30 46 127 244 1280 2950 3240 4160 5420
2026-03-19 11:30 6.45 59 8130 (1975) 6 (2013) 1830 30 46 127 244 1280 2950 3240 4160 5420
2026-03-19 10:30 6.40 51 8130 (1975) 6 (2013) 1830 30 46 127 244 1280 2950 3240 4160 5420
2026-03-19 09:30 6.32 41 8130 (1975) 6 (2013) 1830 30 46 127 244 1280 2950 3240 4160 5420
2026-03-19 08:30 6.29 38 8130 (1975) 6 (2013) 1830 30 46 127 244 1280 2950 3240 4160 5420
2026-03-19 07:30 6.30 39 8130 (1975) 6 (2013) 1830 30 46 127 244 1280 2950 3240 4160 5420
2026-03-19 06:30 6.31 40 8130 (1975) 6 (2013) 1830 30 46 127 244 1280 2950 3240 4160 5420
2026-03-19 05:30 6.34 44 8130 (1975) 6 (2013) 1830 30 46 127 244 1280 2950 3240 4160 5420
2026-03-19 04:30 6.37 47 8130 (1975) 6 (2013) 1830 30 46 127 244 1280 2950 3240 4160 5420
2026-03-19 03:30 6.41 53 8130 (1975) 6 (2013) 1830 30 46 127 244 1280 2950 3240 4160 5420
2026-03-19 02:30 6.46 60 8130 (1975) 6 (2013) 1830 30 46 127 244 1280 2950 3240 4160 5420
2026-03-19 01:30 6.54 73 8130 (1975) 6 (2013) 1830 30 46 127 244 1280 2950 3240 4160 5420
2026-03-19 00:30 6.67 98 8130 (1975) 6 (2013) 1830 30 46 127 244 1280 2950 3240 4160 5420
2026-03-18 23:30 6.86 142 8130 (1975) 6 (2013) 1830 30 46 127 244 1280 2950 3240 4160 5420
2026-03-18 22:30 7.26 276 7400 (1997) 7 (2013) 1670 30 71 167 402 1170 2360 3520 4010 4740
2026-03-18 21:30 8.37 943 7400 (1997) 7 (2013) 1670 30 71 167 402 1170 2360 3520 4010 4740
2026-03-18 20:30 10.69 3240 7400 (1997) 7 (2013) 1670 30 71 167 402 1170 2360 3520 4010 4740
2026-03-18 19:30 11.17 3820 7400 (1997) 7 (2013) 1670 30 71 167 402 1170 2360 3520 4010 4740
2026-03-18 18:30 10.35 2860 7400 (1997) 7 (2013) 1670 30 71 167 402 1170 2360 3520 4010 4740
2026-03-18 17:30 6.59 82 7400 (1997) 7 (2013) 1670 30 71 167 402 1170 2360 3520 4010 4740
2026-03-18 16:30 6.74 113 7400 (1997) 7 (2013) 1670 30 71 167 402 1170 2360 3520 4010 4740
2026-03-18 15:30 6.93 156 7400 (1997) 7 (2013) 1670 30 71 167 402 1170 2360 3520 4010 4740
2026-03-18 14:30 7.04 189 7400 (1997) 7 (2013) 1670 30 71 167 402 1170 2360 3520 4010 4740
2026-03-18 13:30 7.04 189 7400 (1997) 7 (2013) 1670 30 71 167 402 1170 2360 3520 4010 4740
2026-03-18 12:30 7.03 186 7400 (1997) 7 (2013) 1670 30 71 167 402 1170 2360 3520 4010 4740
2026-03-18 11:30 7.04 189 7400 (1997) 7 (2013) 1670 30 71 167 402 1170 2360 3520 4010 4740
2026-03-18 10:30 7.03 186 7400 (1997) 7 (2013) 1670 30 71 167 402 1170 2360 3520 4010 4740
2026-03-18 09:30 7.02 183 7400 (1997) 7 (2013) 1670 30 71 167 402 1170 2360 3520 4010 4740
2026-03-18 08:30 6.98 171 7400 (1997) 7 (2013) 1670 30 71 167 402 1170 2360 3520 4010 4740
2026-03-18 07:30 6.91 151 7400 (1997) 7 (2013) 1670 30 71 167 402 1170 2360 3520 4010 4740
2026-03-18 06:30 6.90 148 7400 (1997) 7 (2013) 1670 30 71 167 402 1170 2360 3520 4010 4740
2026-03-18 05:30 6.90 148 7400 (1997) 7 (2013) 1670 30 71 167 402 1170 2360 3520 4010 4740
2026-03-18 04:30 6.90 148 7400 (1997) 7 (2013) 1670 30 71 167 402 1170 2360 3520 4010 4740
2026-03-18 03:30 6.90 148 7400 (1997) 7 (2013) 1670 30 71 167 402 1170 2360 3520 4010 4740
2026-03-18 02:30 6.90 148 7400 (1997) 7 (2013) 1670 30 71 167 402 1170 2360 3520 4010 4740
2026-03-18 01:30 6.91 151 7400 (1997) 7 (2013) 1670 30 71 167 402 1170 2360 3520 4010 4740
2026-03-18 00:30 6.91 151 7400 (1997) 7 (2013) 1670 30 71 167 402 1170 2360 3520 4010 4740
2026-03-17 23:30 6.91 151 7400 (1997) 7 (2013) 1670 30 71 167 402 1170 2360 3520 4010 4740
2026-03-17 22:30 6.91 151 8770 (1994) 7 (2013) 1710 29 66 126 290 952 2590 3480 4010 5730
2026-03-17 21:30 6.91 151 8770 (1994) 7 (2013) 1710 29 66 126 290 952 2590 3480 4010 5730
2026-03-17 20:30 6.91 151 8770 (1994) 7 (2013) 1710 29 66 126 290 952 2590 3480 4010 5730
2026-03-17 19:30 6.92 153 8770 (1994) 7 (2013) 1710 29 66 126 290 952 2590 3480 4010 5730
2026-03-17 18:30 6.95 162 8770 (1994) 7 (2013) 1710 29 66 126 290 952 2590 3480 4010 5730
2026-03-17 17:30 7.01 180 8770 (1994) 7 (2013) 1710 29 66 126 290 952 2590 3480 4010 5730
2026-03-17 16:30 7.03 186 8770 (1994) 7 (2013) 1710 29 66 126 290 952 2590 3480 4010 5730
2026-03-17 15:30 7.03 186 8770 (1994) 7 (2013) 1710 29 66 126 290 952 2590 3480 4010 5730
2026-03-17 14:30 7.04 189 8770 (1994) 7 (2013) 1710 29 66 126 290 952 2590 3480 4010 5730
2026-03-17 13:30 7.04 189 8770 (1994) 7 (2013) 1710 29 66 126 290 952 2590 3480 4010 5730
2026-03-17 12:30 7.03 186 8770 (1994) 7 (2013) 1710 29 66 126 290 952 2590 3480 4010 5730
2026-03-17 11:30 7.03 186 8770 (1994) 7 (2013) 1710 29 66 126 290 952 2590 3480 4010 5730
2026-03-17 10:30 7.03 186 8770 (1994) 7 (2013) 1710 29 66 126 290 952 2590 3480 4010 5730
2026-03-17 09:30 7.02 183 8770 (1994) 7 (2013) 1710 29 66 126 290 952 2590 3480 4010 5730
2026-03-17 08:30 6.99 174 8770 (1994) 7 (2013) 1710 29 66 126 290 952 2590 3480 4010 5730
2026-03-17 07:30 6.92 153 8770 (1994) 7 (2013) 1710 29 66 126 290 952 2590 3480 4010 5730
2026-03-17 06:30 6.92 153 8770 (1994) 7 (2013) 1710 29 66 126 290 952 2590 3480 4010 5730
2026-03-17 05:30 6.91 151 8770 (1994) 7 (2013) 1710 29 66 126 290 952 2590 3480 4010 5730
2026-03-17 04:30 6.92 153 8770 (1994) 7 (2013) 1710 29 66 126 290 952 2590 3480 4010 5730
2026-03-17 03:30 6.92 153 8770 (1994) 7 (2013) 1710 29 66 126 290 952 2590 3480 4010 5730
2026-03-17 02:30 6.92 153 8770 (1994) 7 (2013) 1710 29 66 126 290 952 2590 3480 4010 5730
2026-03-17 01:30 6.92 153 8770 (1994) 7 (2013) 1710 29 66 126 290 952 2590 3480 4010 5730
2026-03-17 00:30 6.93 156 8770 (1994) 7 (2013) 1710 29 66 126 290 952 2590 3480 4010 5730
2026-03-16 23:30 6.93 156 8770 (1994) 7 (2013) 1710 29 66 126 290 952 2590 3480 4010 5730
2026-03-16 22:30 6.93 156 10200 (1989) 7 (2013) 1880 26 62 297 411 1200 2520 3520 4270 6370
2026-03-16 21:30 6.94 159 10200 (1989) 7 (2013) 1880 26 62 297 411 1200 2520 3520 4270 6370
2026-03-16 20:30 6.95 162 10200 (1989) 7 (2013) 1880 26 62 297 411 1200 2520 3520 4270 6370
2026-03-16 19:30 6.96 165 10200 (1989) 7 (2013) 1880 26 62 297 411 1200 2520 3520 4270 6370
2026-03-16 18:30 6.99 174 10200 (1989) 7 (2013) 1880 26 62 297 411 1200 2520 3520 4270 6370
2026-03-16 17:30 7.05 192 10200 (1989) 7 (2013) 1880 26 62 297 411 1200 2520 3520 4270 6370
2026-03-16 16:30 7.03 186 10200 (1989) 7 (2013) 1880 26 62 297 411 1200 2520 3520 4270 6370
2026-03-16 15:30 6.81 125 10200 (1989) 7 (2013) 1880 26 62 297 411 1200 2520 3520 4270 6370
2026-03-16 14:30 6.80 122 10200 (1989) 7 (2013) 1880 26 62 297 411 1200 2520 3520 4270 6370
2026-03-16 13:30 6.98 171 10200 (1989) 7 (2013) 1880 26 62 297 411 1200 2520 3520 4270 6370
2026-03-16 12:30 7.35 306 10200 (1989) 7 (2013) 1880 26 62 297 411 1200 2520 3520 4270 6370
2026-03-16 11:30 8.45 990 10200 (1989) 7 (2013) 1880 26 62 297 411 1200 2520 3520 4270 6370
2026-03-16 10:30 10.77 3330 10200 (1989) 7 (2013) 1880 26 62 297 411 1200 2520 3520 4270 6370
2026-03-16 09:30 11.31 4000 10200 (1989) 7 (2013) 1880 26 62 297 411 1200 2520 3520 4270 6370
2026-03-16 08:30 11.28 3960 10200 (1989) 7 (2013) 1880 26 62 297 411 1200 2520 3520 4270 6370
2026-03-16 07:30 11.10 3730 10200 (1989) 7 (2013) 1880 26 62 297 411 1200 2520 3520 4270 6370
2026-03-16 06:30 9.71 2130 10200 (1989) 7 (2013) 1880 26 62 297 411 1200 2520 3520 4270 6370
2026-03-16 05:30 6.22 29 10200 (1989) 7 (2013) 1880 26 62 297 411 1200 2520 3520 4270 6370
2026-03-16 04:30 6.23 30 10200 (1989) 7 (2013) 1880 26 62 297 411 1200 2520 3520 4270 6370
2026-03-16 03:30 6.23 30 10200 (1989) 7 (2013) 1880 26 62 297 411 1200 2520 3520 4270 6370
2026-03-16 02:30 6.23 30 10200 (1989) 7 (2013) 1880 26 62 297 411 1200 2520 3520 4270 6370
2026-03-16 01:30 6.22 29 10200 (1989) 7 (2013) 1880 26 62 297 411 1200 2520 3520 4270 6370
2026-03-16 00:30 6.23 30 10200 (1989) 7 (2013) 1880 26 62 297 411 1200 2520 3520 4270 6370
2026-03-15 23:30 6.23 30 10200 (1989) 7 (2013) 1880 26 62 297 411 1200 2520 3520 4270 6370
2026-03-15 22:30 6.23 30 10300 (1989) 10 (2013) 1920 27 71 244 416 1210 2870 3720 4240 6380
2026-03-15 21:30 6.24 31 10300 (1989) 10 (2013) 1920 27 71 244 416 1210 2870 3720 4240 6380
2026-03-15 20:30 6.23 30 10300 (1989) 10 (2013) 1920 27 71 244 416 1210 2870 3720 4240 6380
2026-03-15 19:30 6.24 31 10300 (1989) 10 (2013) 1920 27 71 244 416 1210 2870 3720 4240 6380
2026-03-15 18:30 6.23 30 10300 (1989) 10 (2013) 1920 27 71 244 416 1210 2870 3720 4240 6380
2026-03-15 17:30 6.24 31 10300 (1989) 10 (2013) 1920 27 71 244 416 1210 2870 3720 4240 6380
2026-03-15 16:30 6.25 32 10300 (1989) 10 (2013) 1920 27 71 244 416 1210 2870 3720 4240 6380
2026-03-15 15:30 6.25 32 10300 (1989) 10 (2013) 1920 27 71 244 416 1210 2870 3720 4240 6380
2026-03-15 14:30 6.25 32 10300 (1989) 10 (2013) 1920 27 71 244 416 1210 2870 3720 4240 6380
2026-03-15 13:30 6.25 32 10300 (1989) 10 (2013) 1920 27 71 244 416 1210 2870 3720 4240 6380
2026-03-15 12:30 6.26 33 10300 (1989) 10 (2013) 1920 27 71 244 416 1210 2870 3720 4240 6380
2026-03-15 11:30 6.25 32 10300 (1989) 10 (2013) 1920 27 71 244 416 1210 2870 3720 4240 6380
2026-03-15 10:30 6.26 33 10300 (1989) 10 (2013) 1920 27 71 244 416 1210 2870 3720 4240 6380
2026-03-15 09:30 6.26 33 10300 (1989) 10 (2013) 1920 27 71 244 416 1210 2870 3720 4240 6380
2026-03-15 08:30 6.27 34 10300 (1989) 10 (2013) 1920 27 71 244 416 1210 2870 3720 4240 6380
2026-03-15 07:30 6.26 33 10300 (1989) 10 (2013) 1920 27 71 244 416 1210 2870 3720 4240 6380
2026-03-15 06:30 6.27 34 10300 (1989) 10 (2013) 1920 27 71 244 416 1210 2870 3720 4240 6380
2026-03-15 05:30 6.26 33 10300 (1989) 10 (2013) 1920 27 71 244 416 1210 2870 3720 4240 6380
2026-03-15 04:30 6.26 33 10300 (1989) 10 (2013) 1920 27 71 244 416 1210 2870 3720 4240 6380
2026-03-15 03:30 6.27 34 10300 (1989) 10 (2013) 1920 27 71 244 416 1210 2870 3720 4240 6380
2026-03-15 02:30 6.27 34 10300 (1989) 10 (2013) 1920 27 71 244 416 1210 2870 3720 4240 6380
2026-03-15 01:30 6.27 34 10300 (1989) 10 (2013) 1920 27 71 244 416 1210 2870 3720 4240 6380
2026-03-15 00:30 6.28 35 10300 (1989) 10 (2013) 1920 27 71 244 416 1210 2870 3720 4240 6380
2026-03-14 23:30 6.28 35 10300 (1989) 10 (2013) 1920 27 71 244 416 1210 2870 3720 4240 6380
2026-03-14 22:30 6.28 35 9080 (1989) 13 (2013) 1860 44 56 216 343 1120 2790 3340 4310 6030
2026-03-14 21:30 6.29 36 9080 (1989) 13 (2013) 1860 44 56 216 343 1120 2790 3340 4310 6030
2026-03-14 20:30 6.29 36 9080 (1989) 13 (2013) 1860 44 56 216 343 1120 2790 3340 4310 6030
2026-03-14 19:30 6.29 36 9080 (1989) 13 (2013) 1860 44 56 216 343 1120 2790 3340 4310 6030
2026-03-14 18:30 6.29 36 9080 (1989) 13 (2013) 1860 44 56 216 343 1120 2790 3340 4310 6030
2026-03-14 17:30 6.30 37 9080 (1989) 13 (2013) 1860 44 56 216 343 1120 2790 3340 4310 6030
2026-03-14 16:30 6.30 37 9080 (1989) 13 (2013) 1860 44 56 216 343 1120 2790 3340 4310 6030
2026-03-14 15:30 6.30 37 9080 (1989) 13 (2013) 1860 44 56 216 343 1120 2790 3340 4310 6030
2026-03-14 14:30 6.31 38 9080 (1989) 13 (2013) 1860 44 56 216 343 1120 2790 3340 4310 6030
2026-03-14 13:30 6.31 38 9080 (1989) 13 (2013) 1860 44 56 216 343 1120 2790 3340 4310 6030
2026-03-14 12:30 6.32 39 9080 (1989) 13 (2013) 1860 44 56 216 343 1120 2790 3340 4310 6030
2026-03-14 11:30 6.32 39 9080 (1989) 13 (2013) 1860 44 56 216 343 1120 2790 3340 4310 6030
2026-03-14 10:30 6.33 40 9080 (1989) 13 (2013) 1860 44 56 216 343 1120 2790 3340 4310 6030
2026-03-14 09:30 6.34 41 9080 (1989) 13 (2013) 1860 44 56 216 343 1120 2790 3340 4310 6030
2026-03-14 08:30 6.35 42 9080 (1989) 13 (2013) 1860 44 56 216 343 1120 2790 3340 4310 6030
2026-03-14 07:30 6.36 44 9080 (1989) 13 (2013) 1860 44 56 216 343 1120 2790 3340 4310 6030
2026-03-14 06:30 6.38 46 9080 (1989) 13 (2013) 1860 44 56 216 343 1120 2790 3340 4310 6030
2026-03-14 05:30 6.40 49 9080 (1989) 13 (2013) 1860 44 56 216 343 1120 2790 3340 4310 6030
2026-03-14 04:30 6.42 51 9080 (1989) 13 (2013) 1860 44 56 216 343 1120 2790 3340 4310 6030
2026-03-14 03:30 6.46 57 9080 (1989) 13 (2013) 1860 44 56 216 343 1120 2790 3340 4310 6030
2026-03-14 02:30 6.51 65 9080 (1989) 13 (2013) 1860 44 56 216 343 1120 2790 3340 4310 6030
2026-03-14 01:30 6.58 77 9080 (1989) 13 (2013) 1860 44 56 216 343 1120 2790 3340 4310 6030
2026-03-14 00:30 6.69 98 9080 (1989) 13 (2013) 1860 44 56 216 343 1120 2790 3340 4310 6030
2026-03-13 23:30 6.88 142 9080 (1989) 13 (2013) 1860 44 56 216 343 1120 2790 3340 4310 6030
2026-03-13 22:30 7.27 272 6700 (1994) 17 (2013) 1860 27 67 239 601 1320 3070 3370 4100 5510
2026-03-13 21:30 8.38 936 6700 (1994) 17 (2013) 1860 27 67 239 601 1320 3070 3370 4100 5510
2026-03-13 20:30 10.71 3260 6700 (1994) 17 (2013) 1860 27 67 239 601 1320 3070 3370 4100 5510
2026-03-13 19:30 10.96 3560 6700 (1994) 17 (2013) 1860 27 67 239 601 1320 3070 3370 4100 5510
2026-03-13 18:30 6.34 41 6700 (1994) 17 (2013) 1860 27 67 239 601 1320 3070 3370 4100 5510
2026-03-13 17:30 6.33 40 6700 (1994) 17 (2013) 1860 27 67 239 601 1320 3070 3370 4100 5510
2026-03-13 16:30 6.33 40 6700 (1994) 17 (2013) 1860 27 67 239 601 1320 3070 3370 4100 5510
2026-03-13 15:30 6.34 41 6700 (1994) 17 (2013) 1860 27 67 239 601 1320 3070 3370 4100 5510
2026-03-13 14:30 6.34 41 6700 (1994) 17 (2013) 1860 27 67 239 601 1320 3070 3370 4100 5510
2026-03-13 13:30 6.35 42 6700 (1994) 17 (2013) 1860 27 67 239 601 1320 3070 3370 4100 5510
2026-03-13 12:30 6.35 42 6700 (1994) 17 (2013) 1860 27 67 239 601 1320 3070 3370 4100 5510
2026-03-13 11:30 6.35 42 6700 (1994) 17 (2013) 1860 27 67 239 601 1320 3070 3370 4100 5510
2026-03-13 10:30 6.36 44 6700 (1994) 17 (2013) 1860 27 67 239 601 1320 3070 3370 4100 5510
2026-03-13 09:30 6.36 44 6700 (1994) 17 (2013) 1860 27 67 239 601 1320 3070 3370 4100 5510
2026-03-13 08:30 6.36 44 6700 (1994) 17 (2013) 1860 27 67 239 601 1320 3070 3370 4100 5510
2026-03-13 07:30 6.37 45 6700 (1994) 17 (2013) 1860 27 67 239 601 1320 3070 3370 4100 5510
2026-03-13 06:30 6.38 46 6700 (1994) 17 (2013) 1860 27 67 239 601 1320 3070 3370 4100 5510
2026-03-13 05:30 6.38 46 6700 (1994) 17 (2013) 1860 27 67 239 601 1320 3070 3370 4100 5510
2026-03-13 04:30 6.39 47 6700 (1994) 17 (2013) 1860 27 67 239 601 1320 3070 3370 4100 5510
2026-03-13 03:30 6.39 47 6700 (1994) 17 (2013) 1860 27 67 239 601 1320 3070 3370 4100 5510
2026-03-13 02:30 6.40 49 6700 (1994) 17 (2013) 1860 27 67 239 601 1320 3070 3370 4100 5510
2026-03-13 01:30 6.41 50 6700 (1994) 17 (2013) 1860 27 67 239 601 1320 3070 3370 4100 5510
2026-03-13 00:30 6.42 51 6700 (1994) 17 (2013) 1860 27 67 239 601 1320 3070 3370 4100 5510
2026-03-12 23:30 6.43 53 6700 (1994) 17 (2013) 1860 27 67 239 601 1320 3070 3370 4100 5510
2026-03-12 22:30 6.45 56 6730 (1994) 25 (2011) 1790 47 79 359 470 1340 2750 3470 4030 4710
2026-03-12 21:30 6.46 57 6730 (1994) 25 (2011) 1790 47 79 359 470 1340 2750 3470 4030 4710
2026-03-12 20:30 6.50 63 6730 (1994) 25 (2011) 1790 47 79 359 470 1340 2750 3470 4030 4710
2026-03-12 19:30 6.54 70 6730 (1994) 25 (2011) 1790 47 79 359 470 1340 2750 3470 4030 4710
2026-03-12 18:30 6.60 80 6730 (1994) 25 (2011) 1790 47 79 359 470 1340 2750 3470 4030 4710
2026-03-12 17:30 6.68 96 6730 (1994) 25 (2011) 1790 47 79 359 470 1340 2750 3470 4030 4710
2026-03-12 16:30 6.71 102 6730 (1994) 25 (2011) 1790 47 79 359 470 1340 2750 3470 4030 4710
2026-03-12 15:30 6.75 111 6730 (1994) 25 (2011) 1790 47 79 359 470 1340 2750 3470 4030 4710
2026-03-12 14:30 6.79 120 6730 (1994) 25 (2011) 1790 47 79 359 470 1340 2750 3470 4030 4710
2026-03-12 13:30 6.88 142 6730 (1994) 25 (2011) 1790 47 79 359 470 1340 2750 3470 4030 4710
2026-03-12 12:30 7.03 186 6730 (1994) 25 (2011) 1790 47 79 359 470 1340 2750 3470 4030 4710
2026-03-12 11:30 7.38 319 6730 (1994) 25 (2011) 1790 47 79 359 470 1340 2750 3470 4030 4710
2026-03-12 10:30 8.47 1010 6730 (1994) 25 (2011) 1790 47 79 359 470 1340 2750 3470 4030 4710
2026-03-12 09:30 10.78 3340 6730 (1994) 25 (2011) 1790 47 79 359 470 1340 2750 3470 4030 4710
2026-03-12 08:30 11.30 3980 6730 (1994) 25 (2011) 1790 47 79 359 470 1340 2750 3470 4030 4710
2026-03-12 07:30 10.99 3600 6730 (1994) 25 (2011) 1790 47 79 359 470 1340 2750 3470 4030 4710
2026-03-12 06:30 6.55 71 6730 (1994) 25 (2011) 1790 47 79 359 470 1340 2750 3470 4030 4710
2026-03-12 05:30 6.51 65 6730 (1994) 25 (2011) 1790 47 79 359 470 1340 2750 3470 4030 4710
2026-03-12 04:30 6.52 66 6730 (1994) 25 (2011) 1790 47 79 359 470 1340 2750 3470 4030 4710
2026-03-12 03:30 6.53 68 6730 (1994) 25 (2011) 1790 47 79 359 470 1340 2750 3470 4030 4710
2026-03-12 02:30 6.55 71 6730 (1994) 25 (2011) 1790 47 79 359 470 1340 2750 3470 4030 4710
2026-03-12 01:30 6.56 73 6730 (1994) 25 (2011) 1790 47 79 359 470 1340 2750 3470 4030 4710
2026-03-12 00:30 6.58 77 6730 (1994) 25 (2011) 1790 47 79 359 470 1340 2750 3470 4030 4710
2026-03-11 23:30 6.60 80 6730 (1994) 25 (2011) 1790 47 79 359 470 1340 2750 3470 4030 4710
2026-03-11 22:30 6.62 84 7580 (2001) 11 (1986) 1840 50 75 389 544 1400 2700 3630 4060 4940
2026-03-11 21:30 6.64 88 7580 (2001) 11 (1986) 1840 50 75 389 544 1400 2700 3630 4060 4940
2026-03-11 20:30 6.67 94 7580 (2001) 11 (1986) 1840 50 75 389 544 1400 2700 3630 4060 4940
2026-03-11 19:30 6.70 100 7580 (2001) 11 (1986) 1840 50 75 389 544 1400 2700 3630 4060 4940
2026-03-11 18:30 6.76 113 7580 (2001) 11 (1986) 1840 50 75 389 544 1400 2700 3630 4060 4940
2026-03-11 17:30 6.85 135 7580 (2001) 11 (1986) 1840 50 75 389 544 1400 2700 3630 4060 4940
2026-03-11 16:30 6.91 151 7580 (2001) 11 (1986) 1840 50 75 389 544 1400 2700 3630 4060 4940
2026-03-11 15:30 6.94 159 7580 (2001) 11 (1986) 1840 50 75 389 544 1400 2700 3630 4060 4940
2026-03-11 14:30 6.98 171 7580 (2001) 11 (1986) 1840 50 75 389 544 1400 2700 3630 4060 4940
2026-03-11 13:30 7.01 180 7580 (2001) 11 (1986) 1840 50 75 389 544 1400 2700 3630 4060 4940
2026-03-11 12:30 7.06 196 7580 (2001) 11 (1986) 1840 50 75 389 544 1400 2700 3630 4060 4940
2026-03-11 11:30 7.10 209 7580 (2001) 11 (1986) 1840 50 75 389 544 1400 2700 3630 4060 4940
2026-03-11 10:30 7.13 219 7580 (2001) 11 (1986) 1840 50 75 389 544 1400 2700 3630 4060 4940
2026-03-11 09:30 7.12 216 7580 (2001) 11 (1986) 1840 50 75 389 544 1400 2700 3630 4060 4940
2026-03-11 08:30 7.03 186 7580 (2001) 11 (1986) 1840 50 75 389 544 1400 2700 3630 4060 4940
2026-03-11 07:30 6.88 142 7580 (2001) 11 (1986) 1840 50 75 389 544 1400 2700 3630 4060 4940
2026-03-11 06:30 6.86 137 7580 (2001) 11 (1986) 1840 50 75 389 544 1400 2700 3630 4060 4940
2026-03-11 05:30 6.92 153 7580 (2001) 11 (1986) 1840 50 75 389 544 1400 2700 3630 4060 4940
2026-03-11 04:30 7.01 180 7580 (2001) 11 (1986) 1840 50 75 389 544 1400 2700 3630 4060 4940
2026-03-11 02:30 6.88 142 7580 (2001) 11 (1986) 1840 50 75 389 544 1400 2700 3630 4060 4940
2026-03-11 01:30 6.69 98 7580 (2001) 11 (1986) 1840 50 75 389 544 1400 2700 3630 4060 4940
2026-03-11 00:30 6.60 80 7580 (2001) 11 (1986) 1840 50 75 389 544 1400 2700 3630 4060 4940
2026-03-10 23:30 6.67 94 7580 (2001) 11 (1986) 1840 50 75 389 544 1400 2700 3630 4060 4940
2026-03-10 22:30 6.86 137 8080 (2018) 27 (1986) 1870 57 74 397 482 1170 3010 3560 4080 5850
2026-03-10 21:30 7.26 268 8080 (2018) 27 (1986) 1870 57 74 397 482 1170 3010 3560 4080 5850
2026-03-10 20:30 8.37 928 8080 (2018) 27 (1986) 1870 57 74 397 482 1170 3010 3560 4080 5850
2026-03-10 19:30 10.72 3270 8080 (2018) 27 (1986) 1870 57 74 397 482 1170 3010 3560 4080 5850
2026-03-10 18:30 10.98 3580 8080 (2018) 27 (1986) 1870 57 74 397 482 1170 3010 3560 4080 5850
2026-03-10 17:30 6.54 70 8080 (2018) 27 (1986) 1870 57 74 397 482 1170 3010 3560 4080 5850
2026-03-10 16:30 6.51 65 8080 (2018) 27 (1986) 1870 57 74 397 482 1170 3010 3560 4080 5850
2026-03-10 15:30 6.51 65 8080 (2018) 27 (1986) 1870 57 74 397 482 1170 3010 3560 4080 5850
2026-03-10 14:30 6.51 65 8080 (2018) 27 (1986) 1870 57 74 397 482 1170 3010 3560 4080 5850
2026-03-10 13:30 6.51 65 8080 (2018) 27 (1986) 1870 57 74 397 482 1170 3010 3560 4080 5850
2026-03-10 12:30 6.50 63 8080 (2018) 27 (1986) 1870 57 74 397 482 1170 3010 3560 4080 5850
2026-03-10 11:30 6.49 62 8080 (2018) 27 (1986) 1870 57 74 397 482 1170 3010 3560 4080 5850
2026-03-10 10:30 6.45 56 8080 (2018) 27 (1986) 1870 57 74 397 482 1170 3010 3560 4080 5850
2026-03-10 09:30 6.39 47 8080 (2018) 27 (1986) 1870 57 74 397 482 1170 3010 3560 4080 5850
2026-03-10 08:30 6.34 41 8080 (2018) 27 (1986) 1870 57 74 397 482 1170 3010 3560 4080 5850
2026-03-10 07:30 6.34 41 8080 (2018) 27 (1986) 1870 57 74 397 482 1170 3010 3560 4080 5850
2026-03-10 06:30 6.35 42 8080 (2018) 27 (1986) 1870 57 74 397 482 1170 3010 3560 4080 5850
2026-03-10 05:30 6.38 46 8080 (2018) 27 (1986) 1870 57 74 397 482 1170 3010 3560 4080 5850
2026-03-10 04:30 6.40 49 8080 (2018) 27 (1986) 1870 57 74 397 482 1170 3010 3560 4080 5850
2026-03-10 03:30 6.44 54 8080 (2018) 27 (1986) 1870 57 74 397 482 1170 3010 3560 4080 5850
2026-03-10 02:30 6.50 63 8080 (2018) 27 (1986) 1870 57 74 397 482 1170 3010 3560 4080 5850
2026-03-10 01:30 6.57 75 8080 (2018) 27 (1986) 1870 57 74 397 482 1170 3010 3560 4080 5850
2026-03-10 00:30 6.69 98 8080 (2018) 27 (1986) 1870 57 74 397 482 1170 3010 3560 4080 5850
2026-03-09 23:30 6.89 145 8080 (2018) 27 (1986) 1870 57 74 397 482 1170 3010 3560 4080 5850
2026-03-09 22:30 7.28 276 10600 (2018) 21 (2013) 1980 57 86 283 539 1150 3190 3680 3970 6660
2026-03-09 21:30 8.39 943 10600 (2018) 21 (2013) 1980 57 86 283 539 1150 3190 3680 3970 6660
2026-03-09 20:30 10.74 3290 10600 (2018) 21 (2013) 1980 57 86 283 539 1150 3190 3680 3970 6660
2026-03-09 19:30 11.27 3950 10600 (2018) 21 (2013) 1980 57 86 283 539 1150 3190 3680 3970 6660
2026-03-09 18:30 10.97 3570 10600 (2018) 21 (2013) 1980 57 86 283 539 1150 3190 3680 3970 6660
2026-03-09 17:30 6.54 70 10600 (2018) 21 (2013) 1980 57 86 283 539 1150 3190 3680 3970 6660
2026-03-09 16:30 6.49 62 10600 (2018) 21 (2013) 1980 57 86 283 539 1150 3190 3680 3970 6660
2026-03-09 15:30 6.49 62 10600 (2018) 21 (2013) 1980 57 86 283 539 1150 3190 3680 3970 6660
2026-03-09 14:30 6.49 62 10600 (2018) 21 (2013) 1980 57 86 283 539 1150 3190 3680 3970 6660
2026-03-09 13:30 6.48 60 10600 (2018) 21 (2013) 1980 57 86 283 539 1150 3190 3680 3970 6660
2026-03-09 12:30 6.49 62 10600 (2018) 21 (2013) 1980 57 86 283 539 1150 3190 3680 3970 6660
2026-03-09 11:30 6.49 62 10600 (2018) 21 (2013) 1980 57 86 283 539 1150 3190 3680 3970 6660
2026-03-09 10:30 6.49 62 10600 (2018) 21 (2013) 1980 57 86 283 539 1150 3190 3680 3970 6660
2026-03-09 09:30 6.49 62 10600 (2018) 21 (2013) 1980 57 86 283 539 1150 3190 3680 3970 6660
2026-03-09 08:30 6.49 62 10600 (2018) 21 (2013) 1980 57 86 283 539 1150 3190 3680 3970 6660
2026-03-09 07:30 6.50 63 10600 (2018) 21 (2013) 1980 57 86 283 539 1150 3190 3680 3970 6660
2026-03-09 06:30 6.50 63 10600 (2018) 21 (2013) 1980 57 86 283 539 1150 3190 3680 3970 6660
2026-03-09 05:30 6.50 63 10600 (2018) 21 (2013) 1980 57 86 283 539 1150 3190 3680 3970 6660
2026-03-09 04:30 6.50 63 10600 (2018) 21 (2013) 1980 57 86 283 539 1150 3190 3680 3970 6660
2026-03-09 03:30 6.51 65 10600 (2018) 21 (2013) 1980 57 86 283 539 1150 3190 3680 3970 6660
2026-03-09 02:30 6.51 65 10600 (2018) 21 (2013) 1980 57 86 283 539 1150 3190 3680 3970 6660
2026-03-09 01:30 6.51 65 10600 (2018) 21 (2013) 1980 57 86 283 539 1150 3190 3680 3970 6660
2026-03-09 00:30 6.51 65 10600 (2018) 21 (2013) 1980 57 86 283 539 1150 3190 3680 3970 6660
2026-03-08 23:30 6.51 65 10600 (2018) 21 (2013) 1980 57 86 283 539 1150 3190 3680 3970 6660
2026-03-08 22:30 6.51 65 10700 (2018) 28 (2003) 2010 30 55 178 350 1190 3340 3680 4240 7430
2026-03-08 21:30 6.51 65 10700 (2018) 28 (2003) 2010 30 55 178 350 1190 3340 3680 4240 7430
2026-03-08 20:30 6.52 66 10700 (2018) 28 (2003) 2010 30 55 178 350 1190 3340 3680 4240 7430
2026-03-08 19:30 6.52 66 10700 (2018) 28 (2003) 2010 30 55 178 350 1190 3340 3680 4240 7430
2026-03-08 18:30 6.53 68 10700 (2018) 28 (2003) 2010 30 55 178 350 1190 3340 3680 4240 7430
2026-03-08 17:30 6.53 68 10700 (2018) 28 (2003) 2010 30 55 178 350 1190 3340 3680 4240 7430
2026-03-08 16:30 6.54 70 10700 (2018) 28 (2003) 2010 30 55 178 350 1190 3340 3680 4240 7430
2026-03-08 15:30 6.55 71 10700 (2018) 28 (2003) 2010 30 55 178 350 1190 3340 3680 4240 7430
2026-03-08 14:30 6.54 70 10700 (2018) 28 (2003) 2010 30 55 178 350 1190 3340 3680 4240 7430
2026-03-08 13:30 6.55 71 10700 (2018) 28 (2003) 2010 30 55 178 350 1190 3340 3680 4240 7430
2026-03-08 12:30 6.56 73 10700 (2018) 28 (2003) 2010 30 55 178 350 1190 3340 3680 4240 7430
2026-03-08 11:30 6.55 71 10700 (2018) 28 (2003) 2010 30 55 178 350 1190 3340 3680 4240 7430
2026-03-08 10:30 6.56 73 10700 (2018) 28 (2003) 2010 30 55 178 350 1190 3340 3680 4240 7430
2026-03-08 09:30 6.56 73 10700 (2018) 28 (2003) 2010 30 55 178 350 1190 3340 3680 4240 7430
2026-03-08 08:30 6.57 75 10700 (2018) 28 (2003) 2010 30 55 178 350 1190 3340 3680 4240 7430
2026-03-08 07:30 6.57 75 10700 (2018) 28 (2003) 2010 30 55 178 350 1190 3340 3680 4240 7430
2026-03-08 06:30 6.58 77 10700 (2018) 28 (2003) 2010 30 55 178 350 1190 3340 3680 4240 7430
2026-03-08 05:30 6.58 77 10700 (2018) 28 (2003) 2010 30 55 178 350 1190 3340 3680 4240 7430
2026-03-08 04:30 6.59 78 10700 (2018) 28 (2003) 2010 30 55 178 350 1190 3340 3680 4240 7430
2026-03-08 03:30 6.60 80 10700 (2018) 28 (2003) 2010 30 55 178 350 1190 3340 3680 4240 7430
2026-03-08 01:30 6.61 82 10700 (2018) 28 (2003) 2010 30 55 178 350 1190 3340 3680 4240 7430
2026-03-08 00:30 6.61 82 10700 (2018) 28 (2003) 2010 30 55 178 350 1190 3340 3680 4240 7430
2026-03-07 23:30 6.62 84 10700 (2018) 28 (2003) 2010 30 55 178 350 1190 3340 3680 4240 7430
2026-03-07 22:30 6.63 86 10700 (2018) 10 (1963) 1910 31 47 92 157 1240 3030 3370 3970 7370
2026-03-07 21:30 6.64 88 10700 (2018) 10 (1963) 1910 31 47 92 157 1240 3030 3370 3970 7370
2026-03-07 20:30 6.64 88 10700 (2018) 10 (1963) 1910 31 47 92 157 1240 3030 3370 3970 7370
2026-03-07 19:30 6.64 88 10700 (2018) 10 (1963) 1910 31 47 92 157 1240 3030 3370 3970 7370
2026-03-07 18:30 6.63 86 10700 (2018) 10 (1963) 1910 31 47 92 157 1240 3030 3370 3970 7370
2026-03-07 17:30 6.62 84 10700 (2018) 10 (1963) 1910 31 47 92 157 1240 3030 3370 3970 7370
2026-03-07 16:30 6.59 78 10700 (2018) 10 (1963) 1910 31 47 92 157 1240 3030 3370 3970 7370
2026-03-07 15:30 6.56 73 10700 (2018) 10 (1963) 1910 31 47 92 157 1240 3030 3370 3970 7370
2026-03-07 14:30 6.55 71 10700 (2018) 10 (1963) 1910 31 47 92 157 1240 3030 3370 3970 7370
2026-03-07 13:30 6.55 71 10700 (2018) 10 (1963) 1910 31 47 92 157 1240 3030 3370 3970 7370
2026-03-07 12:30 6.55 71 10700 (2018) 10 (1963) 1910 31 47 92 157 1240 3030 3370 3970 7370
2026-03-07 11:30 6.55 71 10700 (2018) 10 (1963) 1910 31 47 92 157 1240 3030 3370 3970 7370
2026-03-07 10:30 6.54 70 10700 (2018) 10 (1963) 1910 31 47 92 157 1240 3030 3370 3970 7370
2026-03-07 09:30 6.54 70 10700 (2018) 10 (1963) 1910 31 47 92 157 1240 3030 3370 3970 7370
2026-03-07 08:30 6.52 66 10700 (2018) 10 (1963) 1910 31 47 92 157 1240 3030 3370 3970 7370
2026-03-07 07:30 6.51 65 10700 (2018) 10 (1963) 1910 31 47 92 157 1240 3030 3370 3970 7370
2026-03-07 06:30 6.51 65 10700 (2018) 10 (1963) 1910 31 47 92 157 1240 3030 3370 3970 7370
2026-03-07 05:30 6.50 63 10700 (2018) 10 (1963) 1910 31 47 92 157 1240 3030 3370 3970 7370
2026-03-07 04:30 6.50 63 10700 (2018) 10 (1963) 1910 31 47 92 157 1240 3030 3370 3970 7370
2026-03-07 03:30 6.48 60 10700 (2018) 10 (1963) 1910 31 47 92 157 1240 3030 3370 3970 7370
2026-03-07 02:30 6.49 62 10700 (2018) 10 (1963) 1910 31 47 92 157 1240 3030 3370 3970 7370
2026-03-07 01:30 6.49 62 10700 (2018) 10 (1963) 1910 31 47 92 157 1240 3030 3370 3970 7370
2026-03-07 00:30 6.46 57 10700 (2018) 10 (1963) 1910 31 47 92 157 1240 3030 3370 3970 7370
2026-03-06 23:30 6.46 57 10700 (2018) 10 (1963) 1910 31 47 92 157 1240 3030 3370 3970 7370
2026-03-06 22:30 6.47 59 10700 (2018) 11 (1963) 1780 28 45 108 148 1150 2290 3140 3930 7130
2026-03-06 21:30 6.46 57 10700 (2018) 11 (1963) 1780 28 45 108 148 1150 2290 3140 3930 7130
2026-03-06 20:30 6.46 57 10700 (2018) 11 (1963) 1780 28 45 108 148 1150 2290 3140 3930 7130
2026-03-06 19:30 6.47 59 10700 (2018) 11 (1963) 1780 28 45 108 148 1150 2290 3140 3930 7130
2026-03-06 18:30 6.47 59 10700 (2018) 11 (1963) 1780 28 45 108 148 1150 2290 3140 3930 7130
2026-03-06 17:30 6.47 59 10700 (2018) 11 (1963) 1780 28 45 108 148 1150 2290 3140 3930 7130
2026-03-06 16:30 6.47 59 10700 (2018) 11 (1963) 1780 28 45 108 148 1150 2290 3140 3930 7130
2026-03-06 15:30 6.47 59 10700 (2018) 11 (1963) 1780 28 45 108 148 1150 2290 3140 3930 7130
2026-03-06 14:30 6.47 59 10700 (2018) 11 (1963) 1780 28 45 108 148 1150 2290 3140 3930 7130
2026-03-06 13:30 6.47 59 10700 (2018) 11 (1963) 1780 28 45 108 148 1150 2290 3140 3930 7130
2026-03-06 12:30 6.48 60 10700 (2018) 11 (1963) 1780 28 45 108 148 1150 2290 3140 3930 7130
2026-03-06 11:30 6.48 60 10700 (2018) 11 (1963) 1780 28 45 108 148 1150 2290 3140 3930 7130
2026-03-06 10:30 6.47 59 10700 (2018) 11 (1963) 1780 28 45 108 148 1150 2290 3140 3930 7130
2026-03-06 09:30 6.47 59 10700 (2018) 11 (1963) 1780 28 45 108 148 1150 2290 3140 3930 7130
2026-03-06 08:30 6.47 59 10700 (2018) 11 (1963) 1780 28 45 108 148 1150 2290 3140 3930 7130
2026-03-06 07:30 6.47 59 10700 (2018) 11 (1963) 1780 28 45 108 148 1150 2290 3140 3930 7130
2026-03-06 06:30 6.47 59 10700 (2018) 11 (1963) 1780 28 45 108 148 1150 2290 3140 3930 7130
2026-03-06 05:30 6.46 57 10700 (2018) 11 (1963) 1780 28 45 108 148 1150 2290 3140 3930 7130
2026-03-06 04:30 6.46 57 10700 (2018) 11 (1963) 1780 28 45 108 148 1150 2290 3140 3930 7130
2026-03-06 03:30 6.45 56 10700 (2018) 11 (1963) 1780 28 45 108 148 1150 2290 3140 3930 7130
2026-03-06 02:30 6.45 56 10700 (2018) 11 (1963) 1780 28 45 108 148 1150 2290 3140 3930 7130
2026-03-06 01:30 6.44 54 10700 (2018) 11 (1963) 1780 28 45 108 148 1150 2290 3140 3930 7130
2026-03-06 00:30 6.44 54 10700 (2018) 11 (1963) 1780 28 45 108 148 1150 2290 3140 3930 7130
2026-03-05 23:30 6.44 54 10700 (2018) 11 (1963) 1780 28 45 108 148 1150 2290 3140 3930 7130
2026-03-05 22:30 6.44 54 10200 (2001) 13 (1963) 1830 28 45 171 325 1320 2570 2950 4290 6990
2026-03-05 21:30 6.44 54 10200 (2001) 13 (1963) 1830 28 45 171 325 1320 2570 2950 4290 6990
2026-03-05 20:30 6.44 54 10200 (2001) 13 (1963) 1830 28 45 171 325 1320 2570 2950 4290 6990
2026-03-05 19:30 6.44 54 10200 (2001) 13 (1963) 1830 28 45 171 325 1320 2570 2950 4290 6990
2026-03-05 18:30 6.44 54 10200 (2001) 13 (1963) 1830 28 45 171 325 1320 2570 2950 4290 6990
2026-03-05 17:30 6.43 53 10200 (2001) 13 (1963) 1830 28 45 171 325 1320 2570 2950 4290 6990
2026-03-05 16:30 6.43 53 10200 (2001) 13 (1963) 1830 28 45 171 325 1320 2570 2950 4290 6990
2026-03-05 15:30 6.43 53 10200 (2001) 13 (1963) 1830 28 45 171 325 1320 2570 2950 4290 6990
2026-03-05 14:30 6.43 53 10200 (2001) 13 (1963) 1830 28 45 171 325 1320 2570 2950 4290 6990
2026-03-05 13:30 6.42 51 10200 (2001) 13 (1963) 1830 28 45 171 325 1320 2570 2950 4290 6990
2026-03-05 12:30 6.41 50 10200 (2001) 13 (1963) 1830 28 45 171 325 1320 2570 2950 4290 6990
2026-03-05 11:30 6.38 46 10200 (2001) 13 (1963) 1830 28 45 171 325 1320 2570 2950 4290 6990
2026-03-05 10:30 6.33 40 10200 (2001) 13 (1963) 1830 28 45 171 325 1320 2570 2950 4290 6990
2026-03-05 09:30 6.25 32 10200 (2001) 13 (1963) 1830 28 45 171 325 1320 2570 2950 4290 6990
2026-03-05 08:30 6.20 27 10200 (2001) 13 (1963) 1830 28 45 171 325 1320 2570 2950 4290 6990
2026-03-05 07:30 6.21 28 10200 (2001) 13 (1963) 1830 28 45 171 325 1320 2570 2950 4290 6990
2026-03-05 06:30 6.21 28 10200 (2001) 13 (1963) 1830 28 45 171 325 1320 2570 2950 4290 6990
2026-03-05 05:30 6.22 29 10200 (2001) 13 (1963) 1830 28 45 171 325 1320 2570 2950 4290 6990
2026-03-05 04:30 6.22 29 10200 (2001) 13 (1963) 1830 28 45 171 325 1320 2570 2950 4290 6990
2026-03-05 03:30 6.23 30 10200 (2001) 13 (1963) 1830 28 45 171 325 1320 2570 2950 4290 6990
2026-03-05 02:30 6.23 30 10200 (2001) 13 (1963) 1830 28 45 171 325 1320 2570 2950 4290 6990
2026-03-05 01:30 6.23 30 10200 (2001) 13 (1963) 1830 28 45 171 325 1320 2570 2950 4290 6990
2026-03-05 00:30 6.23 30 10200 (2001) 13 (1963) 1830 28 45 171 325 1320 2570 2950 4290 6990
2026-03-04 23:30 6.22 29 10200 (2001) 13 (1963) 1830 28 45 171 325 1320 2570 2950 4290 6990
2026-03-04 22:30 6.24 31 10200 (2001) 15 (1963) 1780 28 66 170 230 1240 2220 2590 3670 8120
2026-03-04 21:30 6.26 33 10200 (2001) 15 (1963) 1780 28 66 170 230 1240 2220 2590 3670 8120
2026-03-04 20:30 6.28 35 10200 (2001) 15 (1963) 1780 28 66 170 230 1240 2220 2590 3670 8120
2026-03-04 19:30 6.33 40 10200 (2001) 15 (1963) 1780 28 66 170 230 1240 2220 2590 3670 8120
2026-03-04 18:30 6.37 45 10200 (2001) 15 (1963) 1780 28 66 170 230 1240 2220 2590 3670 8120
2026-03-04 17:30 6.41 50 10200 (2001) 15 (1963) 1780 28 66 170 230 1240 2220 2590 3670 8120
2026-03-04 16:30 6.42 51 10200 (2001) 15 (1963) 1780 28 66 170 230 1240 2220 2590 3670 8120
2026-03-04 15:30 6.42 51 10200 (2001) 15 (1963) 1780 28 66 170 230 1240 2220 2590 3670 8120
2026-03-04 14:30 6.42 51 10200 (2001) 15 (1963) 1780 28 66 170 230 1240 2220 2590 3670 8120
2026-03-04 13:30 6.42 51 10200 (2001) 15 (1963) 1780 28 66 170 230 1240 2220 2590 3670 8120
2026-03-04 12:30 6.41 50 10200 (2001) 15 (1963) 1780 28 66 170 230 1240 2220 2590 3670 8120
2026-03-04 11:30 6.39 47 10200 (2001) 15 (1963) 1780 28 66 170 230 1240 2220 2590 3670 8120
2026-03-04 10:30 6.32 39 10200 (2001) 15 (1963) 1780 28 66 170 230 1240 2220 2590 3670 8120
2026-03-04 09:30 6.21 28 10200 (2001) 15 (1963) 1780 28 66 170 230 1240 2220 2590 3670 8120
2026-03-04 08:30 6.15 23 10200 (2001) 15 (1963) 1780 28 66 170 230 1240 2220 2590 3670 8120
2026-03-04 07:30 6.14 22 10200 (2001) 15 (1963) 1780 28 66 170 230 1240 2220 2590 3670 8120
2026-03-04 06:30 6.14 22 10200 (2001) 15 (1963) 1780 28 66 170 230 1240 2220 2590 3670 8120
2026-03-04 05:30 6.14 22 10200 (2001) 15 (1963) 1780 28 66 170 230 1240 2220 2590 3670 8120
2026-03-04 04:30 6.14 22 10200 (2001) 15 (1963) 1780 28 66 170 230 1240 2220 2590 3670 8120
2026-03-04 03:30 6.15 23 10200 (2001) 15 (1963) 1780 28 66 170 230 1240 2220 2590 3670 8120
2026-03-04 02:30 6.15 23 10200 (2001) 15 (1963) 1780 28 66 170 230 1240 2220 2590 3670 8120
2026-03-04 01:30 6.15 23 10200 (2001) 15 (1963) 1780 28 66 170 230 1240 2220 2590 3670 8120
2026-03-04 00:30 6.16 23 10200 (2001) 15 (1963) 1780 28 66 170 230 1240 2220 2590 3670 8120
2026-03-03 22:30 6.19 26 10800 (1993) 20 (1963) 1890 24 70 172 238 1120 2490 2820 4590 8100
2026-03-03 21:30 6.21 28 10800 (1993) 20 (1963) 1890 24 70 172 238 1120 2490 2820 4590 8100
2026-03-03 20:30 6.24 31 10800 (1993) 20 (1963) 1890 24 70 172 238 1120 2490 2820 4590 8100
2026-03-03 19:30 6.29 36 10800 (1993) 20 (1963) 1890 24 70 172 238 1120 2490 2820 4590 8100
2026-03-03 18:30 6.34 41 10800 (1993) 20 (1963) 1890 24 70 172 238 1120 2490 2820 4590 8100
2026-03-03 17:30 6.40 49 10800 (1993) 20 (1963) 1890 24 70 172 238 1120 2490 2820 4590 8100
2026-03-03 16:30 6.42 51 10800 (1993) 20 (1963) 1890 24 70 172 238 1120 2490 2820 4590 8100
2026-03-03 15:30 6.42 51 10800 (1993) 20 (1963) 1890 24 70 172 238 1120 2490 2820 4590 8100
2026-03-03 14:30 6.42 51 10800 (1993) 20 (1963) 1890 24 70 172 238 1120 2490 2820 4590 8100
2026-03-03 13:30 6.40 49 10800 (1993) 20 (1963) 1890 24 70 172 238 1120 2490 2820 4590 8100
2026-03-03 12:30 6.39 47 10800 (1993) 20 (1963) 1890 24 70 172 238 1120 2490 2820 4590 8100
2026-03-03 11:30 6.37 45 10800 (1993) 20 (1963) 1890 24 70 172 238 1120 2490 2820 4590 8100
2026-03-03 10:30 6.28 35 10800 (1993) 20 (1963) 1890 24 70 172 238 1120 2490 2820 4590 8100
2026-03-03 09:30 6.20 27 10800 (1993) 20 (1963) 1890 24 70 172 238 1120 2490 2820 4590 8100
2026-03-03 08:30 6.16 23 10800 (1993) 20 (1963) 1890 24 70 172 238 1120 2490 2820 4590 8100
2026-03-03 07:30 6.17 24 10800 (1993) 20 (1963) 1890 24 70 172 238 1120 2490 2820 4590 8100
2026-03-03 06:30 6.17 24 10800 (1993) 20 (1963) 1890 24 70 172 238 1120 2490 2820 4590 8100
2026-03-03 05:30 6.17 24 10800 (1993) 20 (1963) 1890 24 70 172 238 1120 2490 2820 4590 8100
2026-03-03 04:30 6.17 24 10800 (1993) 20 (1963) 1890 24 70 172 238 1120 2490 2820 4590 8100
2026-03-03 03:30 6.18 25 10800 (1993) 20 (1963) 1890 24 70 172 238 1120 2490 2820 4590 8100
2026-03-03 02:30 6.19 26 10800 (1993) 20 (1963) 1890 24 70 172 238 1120 2490 2820 4590 8100
2026-03-03 01:30 6.19 26 10800 (1993) 20 (1963) 1890 24 70 172 238 1120 2490 2820 4590 8100
2026-03-03 00:30 6.20 27 10800 (1993) 20 (1963) 1890 24 70 172 238 1120 2490 2820 4590 8100
2026-03-02 23:30 6.20 27 10800 (1993) 20 (1963) 1890 24 70 172 238 1120 2490 2820 4590 8100
2026-03-02 22:30 6.21 28 11300 (1975) 21 (2013) 1760 27 54 112 199 1080 2380 2580 4050 7850
2026-03-02 21:30 6.22 29 11300 (1975) 21 (2013) 1760 27 54 112 199 1080 2380 2580 4050 7850
2026-03-02 20:30 6.23 30 11300 (1975) 21 (2013) 1760 27 54 112 199 1080 2380 2580 4050 7850
2026-03-02 19:30 6.25 32 11300 (1975) 21 (2013) 1760 27 54 112 199 1080 2380 2580 4050 7850
2026-03-02 18:30 6.27 34 11300 (1975) 21 (2013) 1760 27 54 112 199 1080 2380 2580 4050 7850
2026-03-02 17:30 6.30 37 11300 (1975) 21 (2013) 1760 27 54 112 199 1080 2380 2580 4050 7850
2026-03-02 16:30 6.33 40 11300 (1975) 21 (2013) 1760 27 54 112 199 1080 2380 2580 4050 7850
2026-03-02 15:30 6.37 45 11300 (1975) 21 (2013) 1760 27 54 112 199 1080 2380 2580 4050 7850
2026-03-02 14:30 6.43 53 11300 (1975) 21 (2013) 1760 27 54 112 199 1080 2380 2580 4050 7850
2026-03-02 13:30 6.51 65 11300 (1975) 21 (2013) 1760 27 54 112 199 1080 2380 2580 4050 7850
2026-03-02 12:30 6.64 88 11300 (1975) 21 (2013) 1760 27 54 112 199 1080 2380 2580 4050 7850
2026-03-02 11:30 6.84 132 11300 (1975) 21 (2013) 1760 27 54 112 199 1080 2380 2580 4050 7850
2026-03-02 10:30 7.25 264 11300 (1975) 21 (2013) 1760 27 54 112 199 1080 2380 2580 4050 7850
2026-03-02 09:30 8.37 928 11300 (1975) 21 (2013) 1760 27 54 112 199 1080 2380 2580 4050 7850
2026-03-02 08:30 10.74 3290 11300 (1975) 21 (2013) 1760 27 54 112 199 1080 2380 2580 4050 7850
2026-03-02 07:30 11.00 3610 11300 (1975) 21 (2013) 1760 27 54 112 199 1080 2380 2580 4050 7850
2026-03-02 06:30 6.14 22 11300 (1975) 21 (2013) 1760 27 54 112 199 1080 2380 2580 4050 7850
2026-03-02 05:30 6.14 22 11300 (1975) 21 (2013) 1760 27 54 112 199 1080 2380 2580 4050 7850
2026-03-02 04:30 6.14 22 11300 (1975) 21 (2013) 1760 27 54 112 199 1080 2380 2580 4050 7850
2026-03-02 03:30 6.14 22 11300 (1975) 21 (2013) 1760 27 54 112 199 1080 2380 2580 4050 7850
2026-03-02 02:30 6.13 21 11300 (1975) 21 (2013) 1760 27 54 112 199 1080 2380 2580 4050 7850
2026-03-02 01:30 6.14 22 11300 (1975) 21 (2013) 1760 27 54 112 199 1080 2380 2580 4050 7850
2026-03-02 00:30 6.13 21 11300 (1975) 21 (2013) 1760 27 54 112 199 1080 2380 2580 4050 7850
2026-03-01 23:30 6.14 22 11300 (1975) 21 (2013) 1760 27 54 112 199 1080 2380 2580 4050 7850
2026-03-01 22:30 6.14 22 11300 (1975) 27 (2013) 1750 31 51 124 210 1090 2340 2820 3970 7610
2026-03-01 21:30 6.14 22 11300 (1975) 27 (2013) 1750 31 51 124 210 1090 2340 2820 3970 7610
2026-03-01 20:30 6.14 22 11300 (1975) 27 (2013) 1750 31 51 124 210 1090 2340 2820 3970 7610
2026-03-01 19:30 6.14 22 11300 (1975) 27 (2013) 1750 31 51 124 210 1090 2340 2820 3970 7610
2026-03-01 18:30 6.14 22 11300 (1975) 27 (2013) 1750 31 51 124 210 1090 2340 2820 3970 7610
2026-03-01 17:30 6.14 22 11300 (1975) 27 (2013) 1750 31 51 124 210 1090 2340 2820 3970 7610
2026-03-01 16:30 6.14 22 11300 (1975) 27 (2013) 1750 31 51 124 210 1090 2340 2820 3970 7610
2026-03-01 15:30 6.13 21 11300 (1975) 27 (2013) 1750 31 51 124 210 1090 2340 2820 3970 7610
2026-03-01 14:30 6.14 22 11300 (1975) 27 (2013) 1750 31 51 124 210 1090 2340 2820 3970 7610
2026-03-01 13:30 6.13 21 11300 (1975) 27 (2013) 1750 31 51 124 210 1090 2340 2820 3970 7610
2026-03-01 12:30 6.13 21 11300 (1975) 27 (2013) 1750 31 51 124 210 1090 2340 2820 3970 7610
2026-03-01 11:30 6.14 22 11300 (1975) 27 (2013) 1750 31 51 124 210 1090 2340 2820 3970 7610
2026-03-01 10:30 6.14 22 11300 (1975) 27 (2013) 1750 31 51 124 210 1090 2340 2820 3970 7610
2026-03-01 09:30 6.14 22 11300 (1975) 27 (2013) 1750 31 51 124 210 1090 2340 2820 3970 7610
2026-03-01 08:30 6.14 22 11300 (1975) 27 (2013) 1750 31 51 124 210 1090 2340 2820 3970 7610
2026-03-01 07:30 6.14 22 11300 (1975) 27 (2013) 1750 31 51 124 210 1090 2340 2820 3970 7610
2026-03-01 06:30 6.14 22 11300 (1975) 27 (2013) 1750 31 51 124 210 1090 2340 2820 3970 7610
2026-03-01 05:30 6.14 22 11300 (1975) 27 (2013) 1750 31 51 124 210 1090 2340 2820 3970 7610
2026-03-01 04:30 6.14 22 11300 (1975) 27 (2013) 1750 31 51 124 210 1090 2340 2820 3970 7610
2026-03-01 03:30 6.14 22 11300 (1975) 27 (2013) 1750 31 51 124 210 1090 2340 2820 3970 7610
2026-03-01 02:30 6.14 22 11300 (1975) 27 (2013) 1750 31 51 124 210 1090 2340 2820 3970 7610
2026-03-01 01:30 6.13 21 11300 (1975) 27 (2013) 1750 31 51 124 210 1090 2340 2820 3970 7610
2026-03-01 00:30 6.13 21 11300 (1975) 27 (2013) 1750 31 51 124 210 1090 2340 2820 3970 7610
2026-02-28 23:30 6.13 21 11300 (1975) 27 (2013) 1750 31 51 124 210 1090 2340 2820 3970 7610
2026-02-28 22:30 6.14 22 11400 (1975) 29 (2006) 1840 37 66 149 232 1070 2720 3170 4390 7410
2026-02-28 21:30 6.14 22 11400 (1975) 29 (2006) 1840 37 66 149 232 1070 2720 3170 4390 7410
2026-02-28 20:30 6.14 22 11400 (1975) 29 (2006) 1840 37 66 149 232 1070 2720 3170 4390 7410
2026-02-28 19:30 6.14 22 11400 (1975) 29 (2006) 1840 37 66 149 232 1070 2720 3170 4390 7410
2026-02-28 18:30 6.14 22 11400 (1975) 29 (2006) 1840 37 66 149 232 1070 2720 3170 4390 7410
2026-02-28 17:30 6.14 22 11400 (1975) 29 (2006) 1840 37 66 149 232 1070 2720 3170 4390 7410
2026-02-28 16:30 6.14 22 11400 (1975) 29 (2006) 1840 37 66 149 232 1070 2720 3170 4390 7410
2026-02-28 15:30 6.14 22 11400 (1975) 29 (2006) 1840 37 66 149 232 1070 2720 3170 4390 7410
2026-02-28 14:30 6.14 22 11400 (1975) 29 (2006) 1840 37 66 149 232 1070 2720 3170 4390 7410
2026-02-28 13:30 6.14 22 11400 (1975) 29 (2006) 1840 37 66 149 232 1070 2720 3170 4390 7410
2026-02-28 12:30 6.14 22 11400 (1975) 29 (2006) 1840 37 66 149 232 1070 2720 3170 4390 7410
2026-02-28 11:30 6.14 22 11400 (1975) 29 (2006) 1840 37 66 149 232 1070 2720 3170 4390 7410
2026-02-28 10:30 6.14 22 11400 (1975) 29 (2006) 1840 37 66 149 232 1070 2720 3170 4390 7410
2026-02-28 09:30 6.14 22 11400 (1975) 29 (2006) 1840 37 66 149 232 1070 2720 3170 4390 7410
2026-02-28 08:30 6.13 21 11400 (1975) 29 (2006) 1840 37 66 149 232 1070 2720 3170 4390 7410
2026-02-28 07:30 6.14 22 11400 (1975) 29 (2006) 1840 37 66 149 232 1070 2720 3170 4390 7410
2026-02-28 06:30 6.14 22 11400 (1975) 29 (2006) 1840 37 66 149 232 1070 2720 3170 4390 7410
2026-02-28 05:30 6.14 22 11400 (1975) 29 (2006) 1840 37 66 149 232 1070 2720 3170 4390 7410
2026-02-28 04:30 6.14 22 11400 (1975) 29 (2006) 1840 37 66 149 232 1070 2720 3170 4390 7410
2026-02-28 03:30 6.14 22 11400 (1975) 29 (2006) 1840 37 66 149 232 1070 2720 3170 4390 7410
2026-02-28 02:30 6.14 22 11400 (1975) 29 (2006) 1840 37 66 149 232 1070 2720 3170 4390 7410
2026-02-28 01:30 6.14 22 11400 (1975) 29 (2006) 1840 37 66 149 232 1070 2720 3170 4390 7410
2026-02-28 00:30 6.14 22 11400 (1975) 29 (2006) 1840 37 66 149 232 1070 2720 3170 4390 7410
2026-02-27 23:30 6.14 22 11400 (1975) 29 (2006) 1840 37 66 149 232 1070 2720 3170 4390 7410
2026-02-27 22:30 6.14 22 11500 (1975) 26 (2000) 2000 40 114 344 451 1370 2680 3110 4840 6890
2026-02-27 21:30 6.14 22 11500 (1975) 26 (2000) 2000 40 114 344 451 1370 2680 3110 4840 6890
2026-02-27 20:30 6.14 22 11500 (1975) 26 (2000) 2000 40 114 344 451 1370 2680 3110 4840 6890
2026-02-27 19:30 6.14 22 11500 (1975) 26 (2000) 2000 40 114 344 451 1370 2680 3110 4840 6890
2026-02-27 18:30 6.14 22 11500 (1975) 26 (2000) 2000 40 114 344 451 1370 2680 3110 4840 6890
2026-02-27 17:30 6.14 22 11500 (1975) 26 (2000) 2000 40 114 344 451 1370 2680 3110 4840 6890
2026-02-27 16:30 6.14 22 11500 (1975) 26 (2000) 2000 40 114 344 451 1370 2680 3110 4840 6890
2026-02-27 15:30 6.14 22 11500 (1975) 26 (2000) 2000 40 114 344 451 1370 2680 3110 4840 6890
2026-02-27 14:30 6.14 22 11500 (1975) 26 (2000) 2000 40 114 344 451 1370 2680 3110 4840 6890
2026-02-27 13:30 6.14 22 11500 (1975) 26 (2000) 2000 40 114 344 451 1370 2680 3110 4840 6890
2026-02-27 12:30 6.14 22 11500 (1975) 26 (2000) 2000 40 114 344 451 1370 2680 3110 4840 6890
2026-02-27 11:30 6.14 22 11500 (1975) 26 (2000) 2000 40 114 344 451 1370 2680 3110 4840 6890
2026-02-27 10:30 6.14 22 11500 (1975) 26 (2000) 2000 40 114 344 451 1370 2680 3110 4840 6890
2026-02-27 09:30 6.14 22 11500 (1975) 26 (2000) 2000 40 114 344 451 1370 2680 3110 4840 6890
2026-02-27 08:30 6.14 22 11500 (1975) 26 (2000) 2000 40 114 344 451 1370 2680 3110 4840 6890
2026-02-27 07:30 6.14 22 11500 (1975) 26 (2000) 2000 40 114 344 451 1370 2680 3110 4840 6890
2026-02-27 06:30 6.14 22 11500 (1975) 26 (2000) 2000 40 114 344 451 1370 2680 3110 4840 6890
2026-02-27 05:30 6.14 22 11500 (1975) 26 (2000) 2000 40 114 344 451 1370 2680 3110 4840 6890
2026-02-27 04:30 6.14 22 11500 (1975) 26 (2000) 2000 40 114 344 451 1370 2680 3110 4840 6890
2026-02-27 03:30 6.14 22 11500 (1975) 26 (2000) 2000 40 114 344 451 1370 2680 3110 4840 6890
2026-02-27 02:30 6.14 22 11500 (1975) 26 (2000) 2000 40 114 344 451 1370 2680 3110 4840 6890
2026-02-27 01:30 6.14 22 11500 (1975) 26 (2000) 2000 40 114 344 451 1370 2680 3110 4840 6890
2026-02-27 00:30 6.14 22 11500 (1975) 26 (2000) 2000 40 114 344 451 1370 2680 3110 4840 6890
2026-02-26 23:30 6.14 22 11500 (1975) 26 (2000) 2000 40 114 344 451 1370 2680 3110 4840 6890
2026-02-26 22:30 6.14 22 11600 (1975) 26 (2017) 1860 47 77 232 343 1370 2480 2980 4230 5890
2026-02-26 21:30 6.14 22 11600 (1975) 26 (2017) 1860 47 77 232 343 1370 2480 2980 4230 5890
2026-02-26 20:30 6.14 22 11600 (1975) 26 (2017) 1860 47 77 232 343 1370 2480 2980 4230 5890
2026-02-26 19:30 6.14 22 11600 (1975) 26 (2017) 1860 47 77 232 343 1370 2480 2980 4230 5890
2026-02-26 18:30 6.14 22 11600 (1975) 26 (2017) 1860 47 77 232 343 1370 2480 2980 4230 5890
2026-02-26 17:30 6.14 22 11600 (1975) 26 (2017) 1860 47 77 232 343 1370 2480 2980 4230 5890
2026-02-26 16:30 6.14 22 11600 (1975) 26 (2017) 1860 47 77 232 343 1370 2480 2980 4230 5890
2026-02-26 15:30 6.15 23 11600 (1975) 26 (2017) 1860 47 77 232 343 1370 2480 2980 4230 5890
2026-02-26 14:30 6.14 22 11600 (1975) 26 (2017) 1860 47 77 232 343 1370 2480 2980 4230 5890
2026-02-26 13:30 6.15 23 11600 (1975) 26 (2017) 1860 47 77 232 343 1370 2480 2980 4230 5890
2026-02-26 12:30 6.14 22 11600 (1975) 26 (2017) 1860 47 77 232 343 1370 2480 2980 4230 5890
2026-02-26 11:30 6.15 23 11600 (1975) 26 (2017) 1860 47 77 232 343 1370 2480 2980 4230 5890
2026-02-26 10:30 6.15 23 11600 (1975) 26 (2017) 1860 47 77 232 343 1370 2480 2980 4230 5890
2026-02-26 09:30 6.15 23 11600 (1975) 26 (2017) 1860 47 77 232 343 1370 2480 2980 4230 5890
2026-02-26 08:30 6.15 23 11600 (1975) 26 (2017) 1860 47 77 232 343 1370 2480 2980 4230 5890
2026-02-26 07:30 6.15 23 11600 (1975) 26 (2017) 1860 47 77 232 343 1370 2480 2980 4230 5890
2026-02-26 06:30 6.15 23 11600 (1975) 26 (2017) 1860 47 77 232 343 1370 2480 2980 4230 5890
2026-02-26 05:30 6.15 23 11600 (1975) 26 (2017) 1860 47 77 232 343 1370 2480 2980 4230 5890
2026-02-26 04:30 6.16 23 11600 (1975) 26 (2017) 1860 47 77 232 343 1370 2480 2980 4230 5890
2026-02-26 03:30 6.15 23 11600 (1975) 26 (2017) 1860 47 77 232 343 1370 2480 2980 4230 5890
2026-02-26 02:30 6.15 23 11600 (1975) 26 (2017) 1860 47 77 232 343 1370 2480 2980 4230 5890
2026-02-26 01:30 6.16 23 11600 (1975) 26 (2017) 1860 47 77 232 343 1370 2480 2980 4230 5890
2026-02-26 00:30 6.16 23 11600 (1975) 26 (2017) 1860 47 77 232 343 1370 2480 2980 4230 5890
2026-02-25 23:30 6.16 23 11600 (1975) 26 (2017) 1860 47 77 232 343 1370 2480 2980 4230 5890
2026-02-25 22:30 6.16 23 8020 (1975) 12 (1996) 1720 47 91 276 324 1430 2450 2670 3550 4920
2026-02-25 21:30 6.16 23 8020 (1975) 12 (1996) 1720 47 91 276 324 1430 2450 2670 3550 4920
2026-02-25 20:30 6.16 23 8020 (1975) 12 (1996) 1720 47 91 276 324 1430 2450 2670 3550 4920
2026-02-25 19:30 6.16 23 8020 (1975) 12 (1996) 1720 47 91 276 324 1430 2450 2670 3550 4920
2026-02-25 18:30 6.17 24 8020 (1975) 12 (1996) 1720 47 91 276 324 1430 2450 2670 3550 4920
2026-02-25 17:30 6.17 24 8020 (1975) 12 (1996) 1720 47 91 276 324 1430 2450 2670 3550 4920
2026-02-25 16:30 6.17 24 8020 (1975) 12 (1996) 1720 47 91 276 324 1430 2450 2670 3550 4920
2026-02-25 15:30 6.17 24 8020 (1975) 12 (1996) 1720 47 91 276 324 1430 2450 2670 3550 4920
2026-02-25 14:30 6.18 25 8020 (1975) 12 (1996) 1720 47 91 276 324 1430 2450 2670 3550 4920
2026-02-25 13:30 6.18 25 8020 (1975) 12 (1996) 1720 47 91 276 324 1430 2450 2670 3550 4920
2026-02-25 12:30 6.18 25 8020 (1975) 12 (1996) 1720 47 91 276 324 1430 2450 2670 3550 4920
2026-02-25 11:30 6.18 25 8020 (1975) 12 (1996) 1720 47 91 276 324 1430 2450 2670 3550 4920
2026-02-25 10:30 6.18 25 8020 (1975) 12 (1996) 1720 47 91 276 324 1430 2450 2670 3550 4920
2026-02-25 09:30 6.18 25 8020 (1975) 12 (1996) 1720 47 91 276 324 1430 2450 2670 3550 4920
2026-02-25 08:30 6.19 26 8020 (1975) 12 (1996) 1720 47 91 276 324 1430 2450 2670 3550 4920
2026-02-25 07:30 6.20 27 8020 (1975) 12 (1996) 1720 47 91 276 324 1430 2450 2670 3550 4920
2026-02-25 06:30 6.20 27 8020 (1975) 12 (1996) 1720 47 91 276 324 1430 2450 2670 3550 4920
2026-02-25 05:30 6.20 27 8020 (1975) 12 (1996) 1720 47 91 276 324 1430 2450 2670 3550 4920
2026-02-25 04:30 6.21 28 8020 (1975) 12 (1996) 1720 47 91 276 324 1430 2450 2670 3550 4920
2026-02-25 03:30 6.22 29 8020 (1975) 12 (1996) 1720 47 91 276 324 1430 2450 2670 3550 4920
2026-02-25 02:30 6.22 29 8020 (1975) 12 (1996) 1720 47 91 276 324 1430 2450 2670 3550 4920
2026-02-25 01:30 6.23 30 8020 (1975) 12 (1996) 1720 47 91 276 324 1430 2450 2670 3550 4920
2026-02-25 00:30 6.23 30 8020 (1975) 12 (1996) 1720 47 91 276 324 1430 2450 2670 3550 4920
2026-02-24 23:30 6.24 31 8020 (1975) 12 (1996) 1720 47 91 276 324 1430 2450 2670 3550 4920
2026-02-24 22:30 6.26 33 6630 (1997) 18 (2013) 1560 47 71 212 375 1130 2390 2650 3330 4460
2026-02-24 21:30 6.27 34 6630 (1997) 18 (2013) 1560 47 71 212 375 1130 2390 2650 3330 4460
2026-02-24 20:30 6.28 35 6630 (1997) 18 (2013) 1560 47 71 212 375 1130 2390 2650 3330 4460
2026-02-24 19:30 6.30 37 6630 (1997) 18 (2013) 1560 47 71 212 375 1130 2390 2650 3330 4460
2026-02-24 18:30 6.32 39 6630 (1997) 18 (2013) 1560 47 71 212 375 1130 2390 2650 3330 4460
2026-02-24 17:30 6.35 42 6630 (1997) 18 (2013) 1560 47 71 212 375 1130 2390 2650 3330 4460
2026-02-24 16:30 6.39 47 6630 (1997) 18 (2013) 1560 47 71 212 375 1130 2390 2650 3330 4460
2026-02-24 15:30 6.44 54 6630 (1997) 18 (2013) 1560 47 71 212 375 1130 2390 2650 3330 4460
2026-02-24 14:30 6.49 62 6630 (1997) 18 (2013) 1560 47 71 212 375 1130 2390 2650 3330 4460
2026-02-24 13:30 6.58 77 6630 (1997) 18 (2013) 1560 47 71 212 375 1130 2390 2650 3330 4460
2026-02-24 12:30 6.72 104 6630 (1997) 18 (2013) 1560 47 71 212 375 1130 2390 2650 3330 4460
2026-02-24 11:30 6.87 140 6630 (1997) 18 (2013) 1560 47 71 212 375 1130 2390 2650 3330 4460
2026-02-24 10:30 7.29 280 6630 (1997) 18 (2013) 1560 47 71 212 375 1130 2390 2650 3330 4460
2026-02-24 09:30 8.42 967 6630 (1997) 18 (2013) 1560 47 71 212 375 1130 2390 2650 3330 4460
2026-02-24 08:30 10.76 3320 6630 (1997) 18 (2013) 1560 47 71 212 375 1130 2390 2650 3330 4460
2026-02-24 07:30 11.29 3970 6630 (1997) 18 (2013) 1560 47 71 212 375 1130 2390 2650 3330 4460
2026-02-24 06:30 10.97 3570 6630 (1997) 18 (2013) 1560 47 71 212 375 1130 2390 2650 3330 4460
2026-02-24 05:30 6.75 111 6630 (1997) 18 (2013) 1560 47 71 212 375 1130 2390 2650 3330 4460
2026-02-24 04:30 6.58 77 6630 (1997) 18 (2013) 1560 47 71 212 375 1130 2390 2650 3330 4460
2026-02-24 03:30 6.58 77 6630 (1997) 18 (2013) 1560 47 71 212 375 1130 2390 2650 3330 4460
2026-02-24 02:30 6.59 78 6630 (1997) 18 (2013) 1560 47 71 212 375 1130 2390 2650 3330 4460
2026-02-24 01:30 6.59 78 6630 (1997) 18 (2013) 1560 47 71 212 375 1130 2390 2650 3330 4460
2026-02-24 00:30 6.60 80 6630 (1997) 18 (2013) 1560 47 71 212 375 1130 2390 2650 3330 4460
2026-02-23 23:30 6.60 80 6630 (1997) 18 (2013) 1560 47 71 212 375 1130 2390 2650 3330 4460
2026-02-23 22:30 6.61 82 8500 (1989) 32 (2017) 1480 49 79 178 237 1100 2120 2510 3330 4200
2026-02-23 21:30 6.62 84 8500 (1989) 32 (2017) 1480 49 79 178 237 1100 2120 2510 3330 4200
2026-02-23 20:30 6.62 84 8500 (1989) 32 (2017) 1480 49 79 178 237 1100 2120 2510 3330 4200
2026-02-23 19:30 6.63 86 8500 (1989) 32 (2017) 1480 49 79 178 237 1100 2120 2510 3330 4200
2026-02-23 18:30 6.65 90 8500 (1989) 32 (2017) 1480 49 79 178 237 1100 2120 2510 3330 4200
2026-02-23 17:30 6.66 92 8500 (1989) 32 (2017) 1480 49 79 178 237 1100 2120 2510 3330 4200
2026-02-23 16:30 6.69 98 8500 (1989) 32 (2017) 1480 49 79 178 237 1100 2120 2510 3330 4200
2026-02-23 15:30 6.72 104 8500 (1989) 32 (2017) 1480 49 79 178 237 1100 2120 2510 3330 4200
2026-02-23 14:30 6.77 115 8500 (1989) 32 (2017) 1480 49 79 178 237 1100 2120 2510 3330 4200
2026-02-23 13:30 6.86 137 8500 (1989) 32 (2017) 1480 49 79 178 237 1100 2120 2510 3330 4200
2026-02-23 12:30 7.01 180 8500 (1989) 32 (2017) 1480 49 79 178 237 1100 2120 2510 3330 4200
2026-02-23 11:30 7.37 315 8500 (1989) 32 (2017) 1480 49 79 178 237 1100 2120 2510 3330 4200
2026-02-23 10:30 8.45 990 8500 (1989) 32 (2017) 1480 49 79 178 237 1100 2120 2510 3330 4200
2026-02-23 09:30 10.75 3310 8500 (1989) 32 (2017) 1480 49 79 178 237 1100 2120 2510 3330 4200
2026-02-23 08:30 11.28 3960 8500 (1989) 32 (2017) 1480 49 79 178 237 1100 2120 2510 3330 4200
2026-02-23 07:30 11.00 3610 8500 (1989) 32 (2017) 1480 49 79 178 237 1100 2120 2510 3330 4200
2026-02-23 06:30 6.83 130 8500 (1989) 32 (2017) 1480 49 79 178 237 1100 2120 2510 3330 4200
2026-02-23 05:30 6.63 86 8500 (1989) 32 (2017) 1480 49 79 178 237 1100 2120 2510 3330 4200
2026-02-23 04:30 6.64 88 8500 (1989) 32 (2017) 1480 49 79 178 237 1100 2120 2510 3330 4200
2026-02-23 03:30 6.66 92 8500 (1989) 32 (2017) 1480 49 79 178 237 1100 2120 2510 3330 4200
2026-02-23 02:30 6.68 96 8500 (1989) 32 (2017) 1480 49 79 178 237 1100 2120 2510 3330 4200
2026-02-23 01:30 6.71 102 8500 (1989) 32 (2017) 1480 49 79 178 237 1100 2120 2510 3330 4200
2026-02-23 00:30 6.76 113 8500 (1989) 32 (2017) 1480 49 79 178 237 1100 2120 2510 3330 4200
2026-02-22 23:30 6.84 132 8500 (1989) 32 (2017) 1480 49 79 178 237 1100 2120 2510 3330 4200
2026-02-22 22:30 7.00 177 8530 (1989) 20 (2013) 1530 38 61 145 180 1140 2220 2720 3790 4960
2026-02-22 21:30 7.36 310 8530 (1989) 20 (2013) 1530 38 61 145 180 1140 2220 2720 3790 4960
2026-02-22 20:30 8.44 982 8530 (1989) 20 (2013) 1530 38 61 145 180 1140 2220 2720 3790 4960
2026-02-22 19:30 10.73 3280 8530 (1989) 20 (2013) 1530 38 61 145 180 1140 2220 2720 3790 4960
2026-02-22 18:30 11.02 3630 8530 (1989) 20 (2013) 1530 38 61 145 180 1140 2220 2720 3790 4960
2026-02-22 17:30 6.92 153 8530 (1989) 20 (2013) 1530 38 61 145 180 1140 2220 2720 3790 4960
2026-02-22 16:30 6.73 106 8530 (1989) 20 (2013) 1530 38 61 145 180 1140 2220 2720 3790 4960
2026-02-22 15:30 6.78 117 8530 (1989) 20 (2013) 1530 38 61 145 180 1140 2220 2720 3790 4960
2026-02-22 14:30 6.86 137 8530 (1989) 20 (2013) 1530 38 61 145 180 1140 2220 2720 3790 4960
2026-02-22 13:30 7.02 183 8530 (1989) 20 (2013) 1530 38 61 145 180 1140 2220 2720 3790 4960
2026-02-22 12:30 7.38 319 8530 (1989) 20 (2013) 1530 38 61 145 180 1140 2220 2720 3790 4960
2026-02-22 11:30 8.46 998 8530 (1989) 20 (2013) 1530 38 61 145 180 1140 2220 2720 3790 4960
2026-02-22 10:30 10.76 3320 8530 (1989) 20 (2013) 1530 38 61 145 180 1140 2220 2720 3790 4960
2026-02-22 09:30 11.29 3970 8530 (1989) 20 (2013) 1530 38 61 145 180 1140 2220 2720 3790 4960
2026-02-22 08:30 11.00 3610 8530 (1989) 20 (2013) 1530 38 61 145 180 1140 2220 2720 3790 4960
2026-02-22 07:30 6.85 135 8530 (1989) 20 (2013) 1530 38 61 145 180 1140 2220 2720 3790 4960
2026-02-22 06:30 6.66 92 8530 (1989) 20 (2013) 1530 38 61 145 180 1140 2220 2720 3790 4960
2026-02-22 05:30 6.67 94 8530 (1989) 20 (2013) 1530 38 61 145 180 1140 2220 2720 3790 4960
2026-02-22 04:30 6.70 100 8530 (1989) 20 (2013) 1530 38 61 145 180 1140 2220 2720 3790 4960
2026-02-22 03:30 6.74 108 8530 (1989) 20 (2013) 1530 38 61 145 180 1140 2220 2720 3790 4960
2026-02-22 02:30 6.79 120 8530 (1989) 20 (2013) 1530 38 61 145 180 1140 2220 2720 3790 4960
2026-02-22 01:30 6.87 140 8530 (1989) 20 (2013) 1530 38 61 145 180 1140 2220 2720 3790 4960
2026-02-22 00:30 7.03 186 8530 (1989) 20 (2013) 1530 38 61 145 180 1140 2220 2720 3790 4960
2026-02-21 23:30 7.39 324 8530 (1989) 20 (2013) 1530 38 61 145 180 1140 2220 2720 3790 4960
2026-02-21 22:30 8.48 1010 7670 (1989) 21 (2013) 1460 46 65 155 181 1080 2280 2400 3680 4800
2026-02-21 21:30 10.80 3370 7670 (1989) 21 (2013) 1460 46 65 155 181 1080 2280 2400 3680 4800
2026-02-21 20:30 11.35 4050 7670 (1989) 21 (2013) 1460 46 65 155 181 1080 2280 2400 3680 4800
2026-02-21 19:30 11.30 3980 7670 (1989) 21 (2013) 1460 46 65 155 181 1080 2280 2400 3680 4800
2026-02-21 18:30 10.99 3600 7670 (1989) 21 (2013) 1460 46 65 155 181 1080 2280 2400 3680 4800
2026-02-21 17:30 6.84 132 7670 (1989) 21 (2013) 1460 46 65 155 181 1080 2280 2400 3680 4800
2026-02-21 16:30 6.71 102 7670 (1989) 21 (2013) 1460 46 65 155 181 1080 2280 2400 3680 4800
2026-02-21 15:30 6.76 113 7670 (1989) 21 (2013) 1460 46 65 155 181 1080 2280 2400 3680 4800
2026-02-21 14:30 6.84 132 7670 (1989) 21 (2013) 1460 46 65 155 181 1080 2280 2400 3680 4800
2026-02-21 13:30 7.01 180 7670 (1989) 21 (2013) 1460 46 65 155 181 1080 2280 2400 3680 4800
2026-02-21 12:30 7.37 315 7670 (1989) 21 (2013) 1460 46 65 155 181 1080 2280 2400 3680 4800
2026-02-21 11:30 8.46 998 7670 (1989) 21 (2013) 1460 46 65 155 181 1080 2280 2400 3680 4800
2026-02-21 10:30 10.79 3350 7670 (1989) 21 (2013) 1460 46 65 155 181 1080 2280 2400 3680 4800
2026-02-21 09:30 11.32 4010 7670 (1989) 21 (2013) 1460 46 65 155 181 1080 2280 2400 3680 4800
2026-02-21 08:30 11.00 3610 7670 (1989) 21 (2013) 1460 46 65 155 181 1080 2280 2400 3680 4800
2026-02-21 07:30 6.70 100 7670 (1989) 21 (2013) 1460 46 65 155 181 1080 2280 2400 3680 4800
2026-02-21 06:30 6.57 75 7670 (1989) 21 (2013) 1460 46 65 155 181 1080 2280 2400 3680 4800
2026-02-21 05:30 6.57 75 7670 (1989) 21 (2013) 1460 46 65 155 181 1080 2280 2400 3680 4800
2026-02-21 04:30 6.57 75 7670 (1989) 21 (2013) 1460 46 65 155 181 1080 2280 2400 3680 4800
2026-02-21 03:30 6.57 75 7670 (1989) 21 (2013) 1460 46 65 155 181 1080 2280 2400 3680 4800
2026-02-21 02:30 6.58 77 7670 (1989) 21 (2013) 1460 46 65 155 181 1080 2280 2400 3680 4800
2026-02-21 01:30 6.58 77 7670 (1989) 21 (2013) 1460 46 65 155 181 1080 2280 2400 3680 4800
2026-02-21 00:30 6.58 77 7670 (1989) 21 (2013) 1460 46 65 155 181 1080 2280 2400 3680 4800
2026-02-20 23:30 6.59 78 7670 (1989) 21 (2013) 1460 46 65 155 181 1080 2280 2400 3680 4800
2026-02-20 22:30 6.59 78 6430 (1989) 20 (2013) 1610 36 54 232 502 1210 2200 3150 3770 4240
2026-02-20 21:30 6.60 80 6430 (1989) 20 (2013) 1610 36 54 232 502 1210 2200 3150 3770 4240
2026-02-20 20:30 6.60 80 6430 (1989) 20 (2013) 1610 36 54 232 502 1210 2200 3150 3770 4240
2026-02-20 19:30 6.61 82 6430 (1989) 20 (2013) 1610 36 54 232 502 1210 2200 3150 3770 4240
2026-02-20 18:30 6.62 84 6430 (1989) 20 (2013) 1610 36 54 232 502 1210 2200 3150 3770 4240
2026-02-20 17:30 6.63 86 6430 (1989) 20 (2013) 1610 36 54 232 502 1210 2200 3150 3770 4240
2026-02-20 16:30 6.65 90 6430 (1989) 20 (2013) 1610 36 54 232 502 1210 2200 3150 3770 4240
2026-02-20 15:30 6.68 96 6430 (1989) 20 (2013) 1610 36 54 232 502 1210 2200 3150 3770 4240
2026-02-20 14:30 6.72 104 6430 (1989) 20 (2013) 1610 36 54 232 502 1210 2200 3150 3770 4240
2026-02-20 13:30 6.81 125 6430 (1989) 20 (2013) 1610 36 54 232 502 1210 2200 3150 3770 4240
2026-02-20 12:30 6.97 168 6430 (1989) 20 (2013) 1610 36 54 232 502 1210 2200 3150 3770 4240
2026-02-20 11:30 7.33 297 6430 (1989) 20 (2013) 1610 36 54 232 502 1210 2200 3150 3770 4240
2026-02-20 10:30 8.41 959 6430 (1989) 20 (2013) 1610 36 54 232 502 1210 2200 3150 3770 4240
2026-02-20 09:30 10.71 3260 6430 (1989) 20 (2013) 1610 36 54 232 502 1210 2200 3150 3770 4240
2026-02-20 08:30 10.98 3580 6430 (1989) 20 (2013) 1610 36 54 232 502 1210 2200 3150 3770 4240
2026-02-20 07:30 6.72 104 6430 (1989) 20 (2013) 1610 36 54 232 502 1210 2200 3150 3770 4240
2026-02-20 06:30 6.56 73 6430 (1989) 20 (2013) 1610 36 54 232 502 1210 2200 3150 3770 4240
2026-02-20 05:30 6.56 73 6430 (1989) 20 (2013) 1610 36 54 232 502 1210 2200 3150 3770 4240
2026-02-20 04:30 6.56 73 6430 (1989) 20 (2013) 1610 36 54 232 502 1210 2200 3150 3770 4240
2026-02-20 03:30 6.56 73 6430 (1989) 20 (2013) 1610 36 54 232 502 1210 2200 3150 3770 4240
2026-02-20 02:30 6.56 73 6430 (1989) 20 (2013) 1610 36 54 232 502 1210 2200 3150 3770 4240
2026-02-20 01:30 6.56 73 6430 (1989) 20 (2013) 1610 36 54 232 502 1210 2200 3150 3770 4240
2026-02-20 00:30 6.56 73 6430 (1989) 20 (2013) 1610 36 54 232 502 1210 2200 3150 3770 4240
2026-02-19 23:30 6.56 73 6430 (1989) 20 (2013) 1610 36 54 232 502 1210 2200 3150 3770 4240
2026-02-19 22:30 6.56 73 6460 (1989) 20 (2011) 1600 32 51 179 462 1400 2150 2480 3640 4180
2026-02-19 21:30 6.56 73 6460 (1989) 20 (2011) 1600 32 51 179 462 1400 2150 2480 3640 4180
2026-02-19 20:30 6.56 73 6460 (1989) 20 (2011) 1600 32 51 179 462 1400 2150 2480 3640 4180
2026-02-19 19:30 6.56 73 6460 (1989) 20 (2011) 1600 32 51 179 462 1400 2150 2480 3640 4180
2026-02-19 18:30 6.57 75 6460 (1989) 20 (2011) 1600 32 51 179 462 1400 2150 2480 3640 4180
2026-02-19 17:30 6.57 75 6460 (1989) 20 (2011) 1600 32 51 179 462 1400 2150 2480 3640 4180
2026-02-19 16:30 6.57 75 6460 (1989) 20 (2011) 1600 32 51 179 462 1400 2150 2480 3640 4180
2026-02-19 15:30 6.59 78 6460 (1989) 20 (2011) 1600 32 51 179 462 1400 2150 2480 3640 4180
2026-02-19 14:30 6.57 75 6460 (1989) 20 (2011) 1600 32 51 179 462 1400 2150 2480 3640 4180
2026-02-19 13:30 6.58 77 6460 (1989) 20 (2011) 1600 32 51 179 462 1400 2150 2480 3640 4180
2026-02-19 12:30 6.57 75 6460 (1989) 20 (2011) 1600 32 51 179 462 1400 2150 2480 3640 4180
2026-02-19 11:30 6.57 75 6460 (1989) 20 (2011) 1600 32 51 179 462 1400 2150 2480 3640 4180
2026-02-19 10:30 6.57 75 6460 (1989) 20 (2011) 1600 32 51 179 462 1400 2150 2480 3640 4180
2026-02-19 09:30 6.56 73 6460 (1989) 20 (2011) 1600 32 51 179 462 1400 2150 2480 3640 4180
2026-02-19 08:30 6.57 75 6460 (1989) 20 (2011) 1600 32 51 179 462 1400 2150 2480 3640 4180
2026-02-19 07:30 6.56 73 6460 (1989) 20 (2011) 1600 32 51 179 462 1400 2150 2480 3640 4180
2026-02-19 06:30 6.56 73 6460 (1989) 20 (2011) 1600 32 51 179 462 1400 2150 2480 3640 4180
2026-02-19 05:30 6.57 75 6460 (1989) 20 (2011) 1600 32 51 179 462 1400 2150 2480 3640 4180
2026-02-19 04:30 6.57 75 6460 (1989) 20 (2011) 1600 32 51 179 462 1400 2150 2480 3640 4180
2026-02-19 03:30 6.57 75 6460 (1989) 20 (2011) 1600 32 51 179 462 1400 2150 2480 3640 4180
2026-02-19 02:30 6.57 75 6460 (1989) 20 (2011) 1600 32 51 179 462 1400 2150 2480 3640 4180
2026-02-19 01:30 6.57 75 6460 (1989) 20 (2011) 1600 32 51 179 462 1400 2150 2480 3640 4180
2026-02-19 00:30 6.57 75 6460 (1989) 20 (2011) 1600 32 51 179 462 1400 2150 2480 3640 4180
2026-02-18 23:30 6.57 75 6460 (1989) 20 (2011) 1600 32 51 179 462 1400 2150 2480 3640 4180
2026-02-18 22:30 6.57 75 6570 (1989) 21 (2011) 1650 33 57 187 417 1410 2330 2710 3620 4200
2026-02-18 21:30 6.57 75 6570 (1989) 21 (2011) 1650 33 57 187 417 1410 2330 2710 3620 4200
2026-02-18 20:30 6.57 75 6570 (1989) 21 (2011) 1650 33 57 187 417 1410 2330 2710 3620 4200
2026-02-18 19:30 6.57 75 6570 (1989) 21 (2011) 1650 33 57 187 417 1410 2330 2710 3620 4200
2026-02-18 18:30 6.57 75 6570 (1989) 21 (2011) 1650 33 57 187 417 1410 2330 2710 3620 4200
2026-02-18 17:30 6.57 75 6570 (1989) 21 (2011) 1650 33 57 187 417 1410 2330 2710 3620 4200
2026-02-18 16:30 6.57 75 6570 (1989) 21 (2011) 1650 33 57 187 417 1410 2330 2710 3620 4200
2026-02-18 15:30 6.57 75 6570 (1989) 21 (2011) 1650 33 57 187 417 1410 2330 2710 3620 4200
2026-02-18 14:30 6.57 75 6570 (1989) 21 (2011) 1650 33 57 187 417 1410 2330 2710 3620 4200
2026-02-18 13:30 6.58 77 6570 (1989) 21 (2011) 1650 33 57 187 417 1410 2330 2710 3620 4200
2026-02-18 12:30 6.58 77 6570 (1989) 21 (2011) 1650 33 57 187 417 1410 2330 2710 3620 4200
2026-02-18 11:30 6.58 77 6570 (1989) 21 (2011) 1650 33 57 187 417 1410 2330 2710 3620 4200
2026-02-18 10:30 6.58 77 6570 (1989) 21 (2011) 1650 33 57 187 417 1410 2330 2710 3620 4200
2026-02-18 09:30 6.58 77 6570 (1989) 21 (2011) 1650 33 57 187 417 1410 2330 2710 3620 4200
2026-02-18 08:30 6.58 77 6570 (1989) 21 (2011) 1650 33 57 187 417 1410 2330 2710 3620 4200
2026-02-18 07:30 6.58 77 6570 (1989) 21 (2011) 1650 33 57 187 417 1410 2330 2710 3620 4200
2026-02-18 06:30 6.58 77 6570 (1989) 21 (2011) 1650 33 57 187 417 1410 2330 2710 3620 4200
2026-02-18 05:30 6.58 77 6570 (1989) 21 (2011) 1650 33 57 187 417 1410 2330 2710 3620 4200
2026-02-18 04:30 6.59 78 6570 (1989) 21 (2011) 1650 33 57 187 417 1410 2330 2710 3620 4200
2026-02-18 03:30 6.59 78 6570 (1989) 21 (2011) 1650 33 57 187 417 1410 2330 2710 3620 4200
2026-02-18 02:30 6.59 78 6570 (1989) 21 (2011) 1650 33 57 187 417 1410 2330 2710 3620 4200
2026-02-18 01:30 6.60 80 6570 (1989) 21 (2011) 1650 33 57 187 417 1410 2330 2710 3620 4200
2026-02-18 00:30 6.60 80 6570 (1989) 21 (2011) 1650 33 57 187 417 1410 2330 2710 3620 4200
2026-02-17 23:30 6.60 80 6570 (1989) 21 (2011) 1650 33 57 187 417 1410 2330 2710 3620 4200
2026-02-17 22:30 6.61 82 6600 (1989) 21 (2013) 1600 29 45 107 231 1380 2430 2770 3710 4430
2026-02-17 21:30 6.61 82 6600 (1989) 21 (2013) 1600 29 45 107 231 1380 2430 2770 3710 4430
2026-02-17 20:30 6.61 82 6600 (1989) 21 (2013) 1600 29 45 107 231 1380 2430 2770 3710 4430
2026-02-17 19:30 6.62 84 6600 (1989) 21 (2013) 1600 29 45 107 231 1380 2430 2770 3710 4430
2026-02-17 18:30 6.63 86 6600 (1989) 21 (2013) 1600 29 45 107 231 1380 2430 2770 3710 4430
2026-02-17 17:30 6.64 88 6600 (1989) 21 (2013) 1600 29 45 107 231 1380 2430 2770 3710 4430
2026-02-17 16:30 6.66 92 6600 (1989) 21 (2013) 1600 29 45 107 231 1380 2430 2770 3710 4430
2026-02-17 15:30 6.67 94 6600 (1989) 21 (2013) 1600 29 45 107 231 1380 2430 2770 3710 4430
2026-02-17 14:30 6.71 102 6600 (1989) 21 (2013) 1600 29 45 107 231 1380 2430 2770 3710 4430
2026-02-17 13:30 6.74 108 6600 (1989) 21 (2013) 1600 29 45 107 231 1380 2430 2770 3710 4430
2026-02-17 12:30 6.83 130 6600 (1989) 21 (2013) 1600 29 45 107 231 1380 2430 2770 3710 4430
2026-02-17 11:30 6.99 174 6600 (1989) 21 (2013) 1600 29 45 107 231 1380 2430 2770 3710 4430
2026-02-17 10:30 7.35 306 6600 (1989) 21 (2013) 1600 29 45 107 231 1380 2430 2770 3710 4430
2026-02-17 09:30 8.42 967 6600 (1989) 21 (2013) 1600 29 45 107 231 1380 2430 2770 3710 4430
2026-02-17 08:30 10.73 3280 6600 (1989) 21 (2013) 1600 29 45 107 231 1380 2430 2770 3710 4430
2026-02-17 07:30 11.00 3610 6600 (1989) 21 (2013) 1600 29 45 107 231 1380 2430 2770 3710 4430
2026-02-17 06:30 6.81 125 6600 (1989) 21 (2013) 1600 29 45 107 231 1380 2430 2770 3710 4430
2026-02-17 05:30 6.63 86 6600 (1989) 21 (2013) 1600 29 45 107 231 1380 2430 2770 3710 4430
2026-02-17 04:30 6.64 88 6600 (1989) 21 (2013) 1600 29 45 107 231 1380 2430 2770 3710 4430
2026-02-17 03:30 6.65 90 6600 (1989) 21 (2013) 1600 29 45 107 231 1380 2430 2770 3710 4430
2026-02-17 02:30 6.67 94 6600 (1989) 21 (2013) 1600 29 45 107 231 1380 2430 2770 3710 4430
2026-02-17 01:30 6.70 100 6600 (1989) 21 (2013) 1600 29 45 107 231 1380 2430 2770 3710 4430
2026-02-17 00:30 6.75 111 6600 (1989) 21 (2013) 1600 29 45 107 231 1380 2430 2770 3710 4430
2026-02-16 23:30 6.83 130 6600 (1989) 21 (2013) 1600 29 45 107 231 1380 2430 2770 3710 4430
2026-02-16 22:30 6.98 171 6160 (1973) 30 (2006) 1580 51 55 183 345 1060 2440 2800 3770 5620
2026-02-16 21:30 7.34 301 6160 (1973) 30 (2006) 1580 51 55 183 345 1060 2440 2800 3770 5620
2026-02-16 20:30 8.42 967 6160 (1973) 30 (2006) 1580 51 55 183 345 1060 2440 2800 3770 5620
2026-02-16 19:30 10.71 3260 6160 (1973) 30 (2006) 1580 51 55 183 345 1060 2440 2800 3770 5620
2026-02-16 18:30 10.96 3560 6160 (1973) 30 (2006) 1580 51 55 183 345 1060 2440 2800 3770 5620
2026-02-16 17:30 6.77 115 6160 (1973) 30 (2006) 1580 51 55 183 345 1060 2440 2800 3770 5620
2026-02-16 16:30 6.59 78 6160 (1973) 30 (2006) 1580 51 55 183 345 1060 2440 2800 3770 5620
2026-02-16 15:30 6.59 78 6160 (1973) 30 (2006) 1580 51 55 183 345 1060 2440 2800 3770 5620
2026-02-16 14:30 6.58 77 6160 (1973) 30 (2006) 1580 51 55 183 345 1060 2440 2800 3770 5620
2026-02-16 13:30 6.58 77 6160 (1973) 30 (2006) 1580 51 55 183 345 1060 2440 2800 3770 5620
2026-02-16 12:30 6.59 78 6160 (1973) 30 (2006) 1580 51 55 183 345 1060 2440 2800 3770 5620
2026-02-16 11:30 6.59 78 6160 (1973) 30 (2006) 1580 51 55 183 345 1060 2440 2800 3770 5620
2026-02-16 10:30 6.58 77 6160 (1973) 30 (2006) 1580 51 55 183 345 1060 2440 2800 3770 5620
2026-02-16 09:30 6.59 78 6160 (1973) 30 (2006) 1580 51 55 183 345 1060 2440 2800 3770 5620
2026-02-16 08:30 6.59 78 6160 (1973) 30 (2006) 1580 51 55 183 345 1060 2440 2800 3770 5620
2026-02-16 07:30 6.59 78 6160 (1973) 30 (2006) 1580 51 55 183 345 1060 2440 2800 3770 5620
2026-02-16 06:30 6.59 78 6160 (1973) 30 (2006) 1580 51 55 183 345 1060 2440 2800 3770 5620
2026-02-16 04:30 6.60 80 6160 (1973) 30 (2006) 1580 51 55 183 345 1060 2440 2800 3770 5620
2026-02-16 03:30 6.60 80 6160 (1973) 30 (2006) 1580 51 55 183 345 1060 2440 2800 3770 5620
2026-02-16 02:30 6.60 80 6160 (1973) 30 (2006) 1580 51 55 183 345 1060 2440 2800 3770 5620
2026-02-16 01:30 6.60 80 6160 (1973) 30 (2006) 1580 51 55 183 345 1060 2440 2800 3770 5620
2026-02-16 00:30 6.60 80 6160 (1973) 30 (2006) 1580 51 55 183 345 1060 2440 2800 3770 5620
2026-02-15 23:30 6.60 80 6160 (1973) 30 (2006) 1580 51 55 183 345 1060 2440 2800 3770 5620
2026-02-15 22:30 6.60 80 8140 (1973) 20 (2013) 1620 55 71 200 346 1210 2410 2710 4080 4800
2026-02-15 21:30 6.60 80 8140 (1973) 20 (2013) 1620 55 71 200 346 1210 2410 2710 4080 4800
2026-02-15 20:30 6.60 80 8140 (1973) 20 (2013) 1620 55 71 200 346 1210 2410 2710 4080 4800
2026-02-15 19:30 6.60 80 8140 (1973) 20 (2013) 1620 55 71 200 346 1210 2410 2710 4080 4800
2026-02-15 18:30 6.59 78 8140 (1973) 20 (2013) 1620 55 71 200 346 1210 2410 2710 4080 4800
2026-02-15 17:30 6.60 80 8140 (1973) 20 (2013) 1620 55 71 200 346 1210 2410 2710 4080 4800
2026-02-15 16:30 6.60 80 8140 (1973) 20 (2013) 1620 55 71 200 346 1210 2410 2710 4080 4800
2026-02-15 15:30 6.60 80 8140 (1973) 20 (2013) 1620 55 71 200 346 1210 2410 2710 4080 4800
2026-02-15 14:30 6.59 78 8140 (1973) 20 (2013) 1620 55 71 200 346 1210 2410 2710 4080 4800
2026-02-15 13:30 6.60 80 8140 (1973) 20 (2013) 1620 55 71 200 346 1210 2410 2710 4080 4800
2026-02-15 12:30 6.60 80 8140 (1973) 20 (2013) 1620 55 71 200 346 1210 2410 2710 4080 4800
2026-02-15 11:30 6.60 80 8140 (1973) 20 (2013) 1620 55 71 200 346 1210 2410 2710 4080 4800
2026-02-15 10:30 6.60 80 8140 (1973) 20 (2013) 1620 55 71 200 346 1210 2410 2710 4080 4800
2026-02-15 09:30 6.60 80 8140 (1973) 20 (2013) 1620 55 71 200 346 1210 2410 2710 4080 4800
2026-02-15 08:30 6.59 78 8140 (1973) 20 (2013) 1620 55 71 200 346 1210 2410 2710 4080 4800
2026-02-15 07:30 6.59 78 8140 (1973) 20 (2013) 1620 55 71 200 346 1210 2410 2710 4080 4800
2026-02-15 06:30 6.58 77 8140 (1973) 20 (2013) 1620 55 71 200 346 1210 2410 2710 4080 4800
2026-02-15 05:30 6.57 75 8140 (1973) 20 (2013) 1620 55 71 200 346 1210 2410 2710 4080 4800
2026-02-15 04:30 6.57 75 8140 (1973) 20 (2013) 1620 55 71 200 346 1210 2410 2710 4080 4800
2026-02-15 03:30 6.57 75 8140 (1973) 20 (2013) 1620 55 71 200 346 1210 2410 2710 4080 4800
2026-02-15 02:30 6.57 75 8140 (1973) 20 (2013) 1620 55 71 200 346 1210 2410 2710 4080 4800
2026-02-15 01:30 6.57 75 8140 (1973) 20 (2013) 1620 55 71 200 346 1210 2410 2710 4080 4800
2026-02-15 00:30 6.57 75 8140 (1973) 20 (2013) 1620 55 71 200 346 1210 2410 2710 4080 4800
2026-02-14 23:30 6.58 77 8140 (1973) 20 (2013) 1620 55 71 200 346 1210 2410 2710 4080 4800
2026-02-14 22:30 6.58 77 8160 (1973) 21 (2013) 1590 54 94 233 424 1060 2160 2570 3770 5420
2026-02-14 21:30 6.58 77 8160 (1973) 21 (2013) 1590 54 94 233 424 1060 2160 2570 3770 5420
2026-02-14 20:30 6.58 77 8160 (1973) 21 (2013) 1590 54 94 233 424 1060 2160 2570 3770 5420
2026-02-14 19:30 6.58 77 8160 (1973) 21 (2013) 1590 54 94 233 424 1060 2160 2570 3770 5420
2026-02-14 18:30 6.58 77 8160 (1973) 21 (2013) 1590 54 94 233 424 1060 2160 2570 3770 5420
2026-02-14 17:30 6.59 78 8160 (1973) 21 (2013) 1590 54 94 233 424 1060 2160 2570 3770 5420
2026-02-14 16:30 6.59 78 8160 (1973) 21 (2013) 1590 54 94 233 424 1060 2160 2570 3770 5420
2026-02-14 15:30 6.59 78 8160 (1973) 21 (2013) 1590 54 94 233 424 1060 2160 2570 3770 5420
2026-02-14 14:30 6.60 80 8160 (1973) 21 (2013) 1590 54 94 233 424 1060 2160 2570 3770 5420
2026-02-14 13:30 6.61 82 8160 (1973) 21 (2013) 1590 54 94 233 424 1060 2160 2570 3770 5420
2026-02-14 12:30 6.62 84 8160 (1973) 21 (2013) 1590 54 94 233 424 1060 2160 2570 3770 5420
2026-02-14 11:30 6.64 88 8160 (1973) 21 (2013) 1590 54 94 233 424 1060 2160 2570 3770 5420
2026-02-14 10:30 6.63 86 8160 (1973) 21 (2013) 1590 54 94 233 424 1060 2160 2570 3770 5420
2026-02-14 09:30 6.61 82 8160 (1973) 21 (2013) 1590 54 94 233 424 1060 2160 2570 3770 5420
2026-02-14 08:30 6.60 80 8160 (1973) 21 (2013) 1590 54 94 233 424 1060 2160 2570 3770 5420
2026-02-14 07:30 6.59 78 8160 (1973) 21 (2013) 1590 54 94 233 424 1060 2160 2570 3770 5420
2026-02-14 06:30 6.58 77 8160 (1973) 21 (2013) 1590 54 94 233 424 1060 2160 2570 3770 5420
2026-02-14 05:30 6.59 78 8160 (1973) 21 (2013) 1590 54 94 233 424 1060 2160 2570 3770 5420
2026-02-14 04:30 6.59 78 8160 (1973) 21 (2013) 1590 54 94 233 424 1060 2160 2570 3770 5420
2026-02-14 03:30 6.59 78 8160 (1973) 21 (2013) 1590 54 94 233 424 1060 2160 2570 3770 5420
2026-02-14 02:30 6.60 80 8160 (1973) 21 (2013) 1590 54 94 233 424 1060 2160 2570 3770 5420
2026-02-14 01:30 6.60 80 8160 (1973) 21 (2013) 1590 54 94 233 424 1060 2160 2570 3770 5420
2026-02-14 00:30 6.60 80 8160 (1973) 21 (2013) 1590 54 94 233 424 1060 2160 2570 3770 5420
2026-02-13 23:30 6.61 82 8160 (1973) 21 (2013) 1590 54 94 233 424 1060 2160 2570 3770 5420
2026-02-13 22:30 6.62 84 8200 (1973) 21 (2013) 1630 32 71 347 632 1110 2160 2570 3780 5430
2026-02-13 21:30 6.63 86 8200 (1973) 21 (2013) 1630 32 71 347 632 1110 2160 2570 3780 5430
2026-02-13 20:30 6.63 86 8200 (1973) 21 (2013) 1630 32 71 347 632 1110 2160 2570 3780 5430
2026-02-13 19:30 6.64 88 8200 (1973) 21 (2013) 1630 32 71 347 632 1110 2160 2570 3780 5430
2026-02-13 18:30 6.66 92 8200 (1973) 21 (2013) 1630 32 71 347 632 1110 2160 2570 3780 5430
2026-02-13 17:30 6.68 96 8200 (1973) 21 (2013) 1630 32 71 347 632 1110 2160 2570 3780 5430
2026-02-13 16:30 6.70 100 8200 (1973) 21 (2013) 1630 32 71 347 632 1110 2160 2570 3780 5430
2026-02-13 15:30 6.74 108 8200 (1973) 21 (2013) 1630 32 71 347 632 1110 2160 2570 3780 5430
2026-02-13 14:30 6.79 120 8200 (1973) 21 (2013) 1630 32 71 347 632 1110 2160 2570 3780 5430
2026-02-13 13:30 6.88 142 8200 (1973) 21 (2013) 1630 32 71 347 632 1110 2160 2570 3780 5430
2026-02-13 12:30 7.03 186 8200 (1973) 21 (2013) 1630 32 71 347 632 1110 2160 2570 3780 5430
2026-02-13 11:30 7.39 324 8200 (1973) 21 (2013) 1630 32 71 347 632 1110 2160 2570 3780 5430
2026-02-13 10:30 8.47 1010 8200 (1973) 21 (2013) 1630 32 71 347 632 1110 2160 2570 3780 5430
2026-02-13 09:30 10.77 3330 8200 (1973) 21 (2013) 1630 32 71 347 632 1110 2160 2570 3780 5430
2026-02-13 08:30 11.32 4010 8200 (1973) 21 (2013) 1630 32 71 347 632 1110 2160 2570 3780 5430
2026-02-13 07:30 11.28 3960 8200 (1973) 21 (2013) 1630 32 71 347 632 1110 2160 2570 3780 5430
2026-02-13 06:30 10.98 3580 8200 (1973) 21 (2013) 1630 32 71 347 632 1110 2160 2570 3780 5430
2026-02-13 05:30 6.88 142 8200 (1973) 21 (2013) 1630 32 71 347 632 1110 2160 2570 3780 5430
2026-02-13 04:30 6.68 96 8200 (1973) 21 (2013) 1630 32 71 347 632 1110 2160 2570 3780 5430
2026-02-13 03:30 6.69 98 8200 (1973) 21 (2013) 1630 32 71 347 632 1110 2160 2570 3780 5430
2026-02-13 02:30 6.72 104 8200 (1973) 21 (2013) 1630 32 71 347 632 1110 2160 2570 3780 5430
2026-02-13 01:30 6.76 113 8200 (1973) 21 (2013) 1630 32 71 347 632 1110 2160 2570 3780 5430
2026-02-13 00:30 6.81 125 8200 (1973) 21 (2013) 1630 32 71 347 632 1110 2160 2570 3780 5430
2026-02-12 23:30 6.90 148 8200 (1973) 21 (2013) 1630 32 71 347 632 1110 2160 2570 3780 5430
2026-02-12 22:30 7.05 192 8280 (1973) 21 (2013) 1760 33 52 391 489 1470 2240 2650 3700 5460
2026-02-12 21:30 7.41 333 8280 (1973) 21 (2013) 1760 33 52 391 489 1470 2240 2650 3700 5460
2026-02-12 20:30 8.50 1030 8280 (1973) 21 (2013) 1760 33 52 391 489 1470 2240 2650 3700 5460
2026-02-12 19:30 10.82 3390 8280 (1973) 21 (2013) 1760 33 52 391 489 1470 2240 2650 3700 5460
2026-02-12 18:30 11.39 4100 8280 (1973) 21 (2013) 1760 33 52 391 489 1470 2240 2650 3700 5460
2026-02-12 17:30 11.35 4050 8280 (1973) 21 (2013) 1760 33 52 391 489 1470 2240 2650 3700 5460
2026-02-12 16:30 11.03 3640 8280 (1973) 21 (2013) 1760 33 52 391 489 1470 2240 2650 3700 5460
2026-02-12 15:30 7.01 180 8280 (1973) 21 (2013) 1760 33 52 391 489 1470 2240 2650 3700 5460
2026-02-12 14:30 6.89 145 8280 (1973) 21 (2013) 1760 33 52 391 489 1470 2240 2650 3700 5460
2026-02-12 13:30 7.05 192 8280 (1973) 21 (2013) 1760 33 52 391 489 1470 2240 2650 3700 5460
2026-02-12 12:30 7.40 328 8280 (1973) 21 (2013) 1760 33 52 391 489 1470 2240 2650 3700 5460
2026-02-12 11:30 8.48 1010 8280 (1973) 21 (2013) 1760 33 52 391 489 1470 2240 2650 3700 5460
2026-02-12 10:30 10.78 3340 8280 (1973) 21 (2013) 1760 33 52 391 489 1470 2240 2650 3700 5460
2026-02-12 09:30 11.34 4040 8280 (1973) 21 (2013) 1760 33 52 391 489 1470 2240 2650 3700 5460
2026-02-12 08:30 11.33 4020 8280 (1973) 21 (2013) 1760 33 52 391 489 1470 2240 2650 3700 5460
2026-02-12 07:30 11.28 3960 8280 (1973) 21 (2013) 1760 33 52 391 489 1470 2240 2650 3700 5460
2026-02-12 06:30 10.99 3600 8280 (1973) 21 (2013) 1760 33 52 391 489 1470 2240 2650 3700 5460
2026-02-12 05:30 6.91 151 8280 (1973) 21 (2013) 1760 33 52 391 489 1470 2240 2650 3700 5460
2026-02-12 04:30 6.71 102 8280 (1973) 21 (2013) 1760 33 52 391 489 1470 2240 2650 3700 5460
2026-02-12 03:30 6.75 111 8280 (1973) 21 (2013) 1760 33 52 391 489 1470 2240 2650 3700 5460
2026-02-12 02:30 6.81 125 8280 (1973) 21 (2013) 1760 33 52 391 489 1470 2240 2650 3700 5460
2026-02-12 01:30 6.89 145 8280 (1973) 21 (2013) 1760 33 52 391 489 1470 2240 2650 3700 5460
2026-02-12 00:30 7.04 189 8280 (1973) 21 (2013) 1760 33 52 391 489 1470 2240 2650 3700 5460
2026-02-11 23:30 7.40 328 8280 (1973) 21 (2013) 1760 33 52 391 489 1470 2240 2650 3700 5460
2026-02-11 22:30 8.48 1010 8350 (1973) 20 (2013) 1850 54 79 427 670 1530 2320 2500 3740 6150
2026-02-11 21:30 10.78 3340 8350 (1973) 20 (2013) 1850 54 79 427 670 1530 2320 2500 3740 6150
2026-02-11 20:30 11.32 4010 8350 (1973) 20 (2013) 1850 54 79 427 670 1530 2320 2500 3740 6150
2026-02-11 19:30 11.13 3770 8350 (1973) 20 (2013) 1850 54 79 427 670 1530 2320 2500 3740 6150
2026-02-11 18:30 9.46 1880 8350 (1973) 20 (2013) 1850 54 79 427 670 1530 2320 2500 3740 6150
2026-02-11 17:30 9.39 1810 8350 (1973) 20 (2013) 1850 54 79 427 670 1530 2320 2500 3740 6150
2026-02-11 16:30 6.84 132 8350 (1973) 20 (2013) 1850 54 79 427 670 1530 2320 2500 3740 6150
2026-02-11 15:30 6.90 148 8350 (1973) 20 (2013) 1850 54 79 427 670 1530 2320 2500 3740 6150
2026-02-11 14:30 7.05 192 8350 (1973) 20 (2013) 1850 54 79 427 670 1530 2320 2500 3740 6150
2026-02-11 13:30 7.41 333 8350 (1973) 20 (2013) 1850 54 79 427 670 1530 2320 2500 3740 6150
2026-02-11 12:30 8.49 1020 8350 (1973) 20 (2013) 1850 54 79 427 670 1530 2320 2500 3740 6150
2026-02-11 11:30 10.79 3350 8350 (1973) 20 (2013) 1850 54 79 427 670 1530 2320 2500 3740 6150
2026-02-11 10:30 11.37 4070 8350 (1973) 20 (2013) 1850 54 79 427 670 1530 2320 2500 3740 6150
2026-02-11 09:30 11.37 4070 8350 (1973) 20 (2013) 1850 54 79 427 670 1530 2320 2500 3740 6150
2026-02-11 08:30 11.36 4060 8350 (1973) 20 (2013) 1850 54 79 427 670 1530 2320 2500 3740 6150
2026-02-11 07:30 11.33 4020 8350 (1973) 20 (2013) 1850 54 79 427 670 1530 2320 2500 3740 6150
2026-02-11 06:30 11.29 3970 8350 (1973) 20 (2013) 1850 54 79 427 670 1530 2320 2500 3740 6150
2026-02-11 05:30 10.98 3580 8350 (1973) 20 (2013) 1850 54 79 427 670 1530 2320 2500 3740 6150
2026-02-11 04:30 6.88 142 8350 (1973) 20 (2013) 1850 54 79 427 670 1530 2320 2500 3740 6150
2026-02-11 03:30 6.69 98 8350 (1973) 20 (2013) 1850 54 79 427 670 1530 2320 2500 3740 6150
2026-02-11 02:30 6.73 106 8350 (1973) 20 (2013) 1850 54 79 427 670 1530 2320 2500 3740 6150
2026-02-11 01:30 6.78 117 8350 (1973) 20 (2013) 1850 54 79 427 670 1530 2320 2500 3740 6150
2026-02-11 00:30 6.86 137 8350 (1973) 20 (2013) 1850 54 79 427 670 1530 2320 2500 3740 6150
2026-02-10 23:30 7.02 183 8350 (1973) 20 (2013) 1850 54 79 427 670 1530 2320 2500 3740 6150
2026-02-10 22:30 7.38 319 10100 (1969) 21 (2013) 1880 50 84 574 645 1150 2490 3220 3790 6430
2026-02-10 21:30 8.46 998 10100 (1969) 21 (2013) 1880 50 84 574 645 1150 2490 3220 3790 6430
2026-02-10 20:30 10.76 3320 10100 (1969) 21 (2013) 1880 50 84 574 645 1150 2490 3220 3790 6430
2026-02-10 19:30 11.31 4000 10100 (1969) 21 (2013) 1880 50 84 574 645 1150 2490 3220 3790 6430
2026-02-10 18:30 11.26 3930 10100 (1969) 21 (2013) 1880 50 84 574 645 1150 2490 3220 3790 6430
2026-02-10 17:30 10.97 3570 10100 (1969) 21 (2013) 1880 50 84 574 645 1150 2490 3220 3790 6430
2026-02-10 16:30 6.80 122 10100 (1969) 21 (2013) 1880 50 84 574 645 1150 2490 3220 3790 6430
2026-02-10 15:30 6.64 88 10100 (1969) 21 (2013) 1880 50 84 574 645 1150 2490 3220 3790 6430
2026-02-10 14:30 6.67 94 10100 (1969) 21 (2013) 1880 50 84 574 645 1150 2490 3220 3790 6430
2026-02-10 13:30 6.70 100 10100 (1969) 21 (2013) 1880 50 84 574 645 1150 2490 3220 3790 6430
2026-02-10 12:30 6.76 113 10100 (1969) 21 (2013) 1880 50 84 574 645 1150 2490 3220 3790 6430
2026-02-10 11:30 6.87 140 10100 (1969) 21 (2013) 1880 50 84 574 645 1150 2490 3220 3790 6430
2026-02-10 10:30 7.11 212 10100 (1969) 21 (2013) 1880 50 84 574 645 1150 2490 3220 3790 6430
2026-02-10 09:30 7.76 521 10100 (1969) 21 (2013) 1880 50 84 574 645 1150 2490 3220 3790 6430
2026-02-10 08:30 9.21 1640 10100 (1969) 21 (2013) 1880 50 84 574 645 1150 2490 3220 3790 6430
2026-02-10 07:30 10.71 3260 10100 (1969) 21 (2013) 1880 50 84 574 645 1150 2490 3220 3790 6430
2026-02-10 06:30 9.75 2180 10100 (1969) 21 (2013) 1880 50 84 574 645 1150 2490 3220 3790 6430
2026-02-10 05:30 6.59 78 10100 (1969) 21 (2013) 1880 50 84 574 645 1150 2490 3220 3790 6430
2026-02-10 04:30 6.58 77 10100 (1969) 21 (2013) 1880 50 84 574 645 1150 2490 3220 3790 6430
2026-02-10 03:30 6.58 77 10100 (1969) 21 (2013) 1880 50 84 574 645 1150 2490 3220 3790 6430
2026-02-10 02:30 6.58 77 10100 (1969) 21 (2013) 1880 50 84 574 645 1150 2490 3220 3790 6430
2026-02-10 01:30 6.59 78 10100 (1969) 21 (2013) 1880 50 84 574 645 1150 2490 3220 3790 6430
2026-02-10 00:30 6.59 78 10100 (1969) 21 (2013) 1880 50 84 574 645 1150 2490 3220 3790 6430
2026-02-09 23:30 6.60 80 10100 (1969) 21 (2013) 1880 50 84 574 645 1150 2490 3220 3790 6430
2026-02-09 22:30 6.60 80 10100 (1969) 20 (2013) 1840 48 82 289 403 1460 2420 2920 3800 5640
2026-02-09 21:30 6.61 82 10100 (1969) 20 (2013) 1840 48 82 289 403 1460 2420 2920 3800 5640
2026-02-09 20:30 6.62 84 10100 (1969) 20 (2013) 1840 48 82 289 403 1460 2420 2920 3800 5640
2026-02-09 19:30 6.63 86 10100 (1969) 20 (2013) 1840 48 82 289 403 1460 2420 2920 3800 5640
2026-02-09 18:30 6.65 90 10100 (1969) 20 (2013) 1840 48 82 289 403 1460 2420 2920 3800 5640
2026-02-09 17:30 6.67 94 10100 (1969) 20 (2013) 1840 48 82 289 403 1460 2420 2920 3800 5640
2026-02-09 16:30 6.69 98 10100 (1969) 20 (2013) 1840 48 82 289 403 1460 2420 2920 3800 5640
2026-02-09 15:30 6.74 108 10100 (1969) 20 (2013) 1840 48 82 289 403 1460 2420 2920 3800 5640
2026-02-09 14:30 6.82 127 10100 (1969) 20 (2013) 1840 48 82 289 403 1460 2420 2920 3800 5640
2026-02-09 13:30 6.94 159 10100 (1969) 20 (2013) 1840 48 82 289 403 1460 2420 2920 3800 5640
2026-02-09 12:30 7.23 256 10100 (1969) 20 (2013) 1840 48 82 289 403 1460 2420 2920 3800 5640
2026-02-09 11:30 8.05 705 10100 (1969) 20 (2013) 1840 48 82 289 403 1460 2420 2920 3800 5640
2026-02-09 10:30 9.83 2260 10100 (1969) 20 (2013) 1840 48 82 289 403 1460 2420 2920 3800 5640
2026-02-09 09:30 11.03 3640 10100 (1969) 20 (2013) 1840 48 82 289 403 1460 2420 2920 3800 5640
2026-02-09 08:30 11.26 3930 10100 (1969) 20 (2013) 1840 48 82 289 403 1460 2420 2920 3800 5640
2026-02-09 07:30 11.11 3740 10100 (1969) 20 (2013) 1840 48 82 289 403 1460 2420 2920 3800 5640
2026-02-09 06:30 9.75 2180 10100 (1969) 20 (2013) 1840 48 82 289 403 1460 2420 2920 3800 5640
2026-02-09 05:30 6.56 73 10100 (1969) 20 (2013) 1840 48 82 289 403 1460 2420 2920 3800 5640
2026-02-09 04:30 6.55 71 10100 (1969) 20 (2013) 1840 48 82 289 403 1460 2420 2920 3800 5640
2026-02-09 03:30 6.55 71 10100 (1969) 20 (2013) 1840 48 82 289 403 1460 2420 2920 3800 5640
2026-02-09 02:30 6.55 71 10100 (1969) 20 (2013) 1840 48 82 289 403 1460 2420 2920 3800 5640
2026-02-09 01:30 6.55 71 10100 (1969) 20 (2013) 1840 48 82 289 403 1460 2420 2920 3800 5640
2026-02-09 00:30 6.55 71 10100 (1969) 20 (2013) 1840 48 82 289 403 1460 2420 2920 3800 5640
2026-02-08 23:30 6.55 71 10100 (1969) 20 (2013) 1840 48 82 289 403 1460 2420 2920 3800 5640
2026-02-08 22:30 6.55 71 10100 (1969) 3 (1965) 1670 72 95 216 418 1100 2320 2700 3740 4430
2026-02-08 21:30 6.56 73 10100 (1969) 3 (1965) 1670 72 95 216 418 1100 2320 2700 3740 4430
2026-02-08 20:30 6.55 71 10100 (1969) 3 (1965) 1670 72 95 216 418 1100 2320 2700 3740 4430
2026-02-08 19:30 6.55 71 10100 (1969) 3 (1965) 1670 72 95 216 418 1100 2320 2700 3740 4430
2026-02-08 18:30 6.56 73 10100 (1969) 3 (1965) 1670 72 95 216 418 1100 2320 2700 3740 4430
2026-02-08 17:30 6.55 71 10100 (1969) 3 (1965) 1670 72 95 216 418 1100 2320 2700 3740 4430
2026-02-08 16:30 6.55 71 10100 (1969) 3 (1965) 1670 72 95 216 418 1100 2320 2700 3740 4430
2026-02-08 15:30 6.55 71 10100 (1969) 3 (1965) 1670 72 95 216 418 1100 2320 2700 3740 4430
2026-02-08 14:30 6.56 73 10100 (1969) 3 (1965) 1670 72 95 216 418 1100 2320 2700 3740 4430
2026-02-08 13:30 6.56 73 10100 (1969) 3 (1965) 1670 72 95 216 418 1100 2320 2700 3740 4430
2026-02-08 12:30 6.56 73 10100 (1969) 3 (1965) 1670 72 95 216 418 1100 2320 2700 3740 4430
2026-02-08 11:30 6.56 73 10100 (1969) 3 (1965) 1670 72 95 216 418 1100 2320 2700 3740 4430
2026-02-08 10:30 6.56 73 10100 (1969) 3 (1965) 1670 72 95 216 418 1100 2320 2700 3740 4430
2026-02-08 09:30 6.56 73 10100 (1969) 3 (1965) 1670 72 95 216 418 1100 2320 2700 3740 4430
2026-02-08 08:30 6.56 73 10100 (1969) 3 (1965) 1670 72 95 216 418 1100 2320 2700 3740 4430
2026-02-08 07:30 6.56 73 10100 (1969) 3 (1965) 1670 72 95 216 418 1100 2320 2700 3740 4430
2026-02-08 06:30 6.57 75 10100 (1969) 3 (1965) 1670 72 95 216 418 1100 2320 2700 3740 4430
2026-02-08 05:30 6.57 75 10100 (1969) 3 (1965) 1670 72 95 216 418 1100 2320 2700 3740 4430
2026-02-08 04:30 6.57 75 10100 (1969) 3 (1965) 1670 72 95 216 418 1100 2320 2700 3740 4430
2026-02-08 03:30 6.57 75 10100 (1969) 3 (1965) 1670 72 95 216 418 1100 2320 2700 3740 4430
2026-02-08 02:30 6.57 75 10100 (1969) 3 (1965) 1670 72 95 216 418 1100 2320 2700 3740 4430
2026-02-08 01:30 6.58 77 10100 (1969) 3 (1965) 1670 72 95 216 418 1100 2320 2700 3740 4430
2026-02-08 00:30 6.58 77 10100 (1969) 3 (1965) 1670 72 95 216 418 1100 2320 2700 3740 4430
2026-02-07 23:30 6.58 77 10100 (1969) 3 (1965) 1670 72 95 216 418 1100 2320 2700 3740 4430

A total of 2190 rows are displayed for years 1954 through 2025.